GFSNGP_925_thetae_000.txt.gz
Theta_e
329 328 328 327 325 324 326 327 333 333 333 334 334 333 333 333 336 343 350 351 353 354 361 362 357 356 355 355 355 355 356 357 358 358 357 352 348 344 339 321 327 324 326 328
335 331 330 329 327 325 325 325 327 329 331 332 333 333 333 333 334 343 351 351 353 355 357 359 357 357 356 356 355 356 357 358 358 358 354 347 345 341 334 323 328 325 328 331
339 334 333 333 331 328 326 325 326 328 329 330 330 332 335 335 340 344 349 351 352 354 355 357 356 357 357 356 356 356 358 358 359 357 352 346 344 343 338 334 331 332 334 335
339 339 340 331 331 330 327 325 327 329 330 330 332 336 339 341 338 343 349 350 351 351 354 353 353 353 353 354 355 356 357 358 358 354 350 347 344 344 340 336 334 336 337 336
338 338 336 334 335 330 329 327 326 329 331 332 333 338 343 342 341 344 348 350 350 348 350 351 349 350 350 352 353 355 356 356 354 352 348 347 346 344 343 339 337 339 339 338
338 338 339 342 340 339 341 339 329 329 331 332 337 339 334 343 340 341 345 347 348 345 347 347 346 347 349 351 353 355 355 355 352 350 349 347 346 345 342 342 339 339 339 338
337 340 338 342 338 339 345 336 330 337 339 340 342 344 345 343 343 344 347 348 346 345 345 346 345 347 349 350 353 353 354 353 350 349 350 348 346 344 343 342 340 341 340 339
338 342 341 337 339 346 346 343 342 343 343 344 344 346 347 347 348 348 347 345 343 346 349 348 348 349 351 352 354 354 354 352 349 350 349 349 346 343 341 341 341 340 339 340
337 335 338 335 338 338 340 342 342 343 343 343 343 344 345 345 344 344 343 344 342 347 350 351 352 352 354 358 356 355 352 350 349 349 347 346 345 342 341 340 340 339 339 339
340 338 337 336 335 335 336 337 338 338 338 339 340 340 342 342 344 347 348 346 344 345 349 353 353 354 356 352 353 353 352 351 348 349 347 344 343 342 342 342 340 339 339 338
339 337 334 333 332 332 332 333 335 336 336 338 342 345 347 349 348 348 348 346 344 346 350 352 352 352 351 351 351 351 350 349 347 345 344 345 342 339 341 336 336 336 335 333
337 336 335 328 326 326 328 329 331 332 332 332 335 338 341 345 347 347 349 348 349 349 351 352 352 351 351 350 350 349 346 346 345 345 345 344 339 332 332 331 328 329 332 332
334 329 324 323 322 322 323 324 325 326 327 328 328 329 331 334 335 336 339 342 349 348 349 349 350 350 350 350 349 347 345 344 343 342 340 339 338 335 332 325 328 327 328 328
325 324 324 323 324 322 322 321 321 322 323 323 323 323 324 326 327 330 334 336 338 345 347 347 347 348 347 345 345 345 343 340 339 338 338 336 335 335 334 333 330 324 321 321
322 322 321 320 322 322 321 321 321 322 322 322 323 325 325 326 325 325 327 330 333 336 341 346 346 345 343 342 341 339 336 335 335 334 333 332 332 332 332 332 330 328 315 311
321 320 321 323 323 321 321 322 323 323 323 324 325 326 326 327 326 326 326 329 330 332 337 341 345 343 340 336 333 332 332 331 331 332 333 333 333 332 331 330 330 329 325 323
321 320 320 323 323 322 322 322 322 323 323 324 324 324 326 328 329 331 332 332 334 335 337 340 342 340 337 334 333 333 332 332 332 332 331 330 329 328 327 327 327 326 326 324
323 322 321 323 322 322 322 322 323 324 324 322 322 324 327 330 333 333 334 335 336 337 338 340 340 338 336 335 333 332 331 330 328 326 326 328 328 328 328 327 326 325 324 321
321 320 320 320 321 321 321 321 321 322 323 322 322 325 327 330 332 333 333 333 335 336 335 337 334 335 335 333 331 329 328 327 328 329 328 328 328 327 327 326 325 325 324 323
319 318 318 319 319 320 321 321 320 321 322 323 323 324 326 328 329 330 332 333 332 333 332 331 333 332 330 327 327 328 328 328 327 326 325 324 324 325 325 325 324 324 323 322
318 318 318 319 320 320 321 321 321 322 324 324 325 326 326 326 327 327 328 330 329 330 329 329 329 329 327 325 326 326 325 325 324 324 324 323 323 322 322 322 321 321 320 319
320 319 319 319 319 319 322 323 323 323 324 324 323 323 323 323 325 326 326 326 327 327 327 326 325 323 322 321 323 321 320 320 319 319 319 319 318 318 318 318 317 316 316 316
320 320 319 319 320 321 320 320 322 324 324 324 324 322 321 320 320 323 326 324 325 323 324 322 318 318 316 318 317 317 316 316 315 315 314 314 314 314 315 314 314 313 312 312
321 321 322 321 319 319 321 320 320 320 322 322 321 321 318 315 319 319 321 321 320 320 322 319 317 314 314 317 316 315 315 314 314 313 312 309 310 310 312 312 313 312 311 311
321 320 320 320 318 318 318 319 318 316 318 320 319 318 317 317 316 316 318 319 319 321 322 320 318 316 316 317 317 317 316 315 314 313 313 312 312 310 310 310 312 312 311 310
316 317 317 317 317 316 315 315 316 316 315 316 316 316 316 316 316 316 316 316 317 318 317 319 321 319 319 318 317 317 316 315 314 313 312 312 312 311 310 309 309 308 308 308
312 311 313 313 312 313 313 314 315 315 315 313 314 315 315 315 315 314 315 315 316 316 316 316 316 317 317 316 316 316 315 315 314 314 313 312 312 311 310 309 308 308 308 308

GFSNGP_925_thetae_003.txt.gz
Theta_e
331 331 331 328 325 325 326 328 332 333 335 336 338 337 336 335 335 336 337 346 351 352 359 360 356 355 353 351 351 352 356 357 361 363 360 359 360 360 356 352 348 340 338 336
332 330 329 329 329 326 326 326 327 329 331 333 335 337 336 335 335 335 336 337 350 354 356 364 360 359 357 356 356 356 360 360 362 365 362 360 360 359 353 350 345 338 335 334
340 335 334 333 330 329 329 328 327 327 329 330 333 336 338 336 335 337 339 340 345 353 356 360 357 360 360 360 357 359 361 363 365 366 363 360 359 355 351 347 344 338 335 336
337 338 340 334 335 333 331 330 329 328 328 329 334 337 337 334 335 338 341 341 342 350 355 358 356 356 356 358 361 363 364 364 365 366 362 357 353 351 349 349 346 341 337 335
338 340 342 338 341 341 343 339 332 331 329 328 330 331 336 335 335 337 337 340 343 350 352 359 358 359 360 360 362 363 363 365 365 365 360 355 352 350 350 350 349 342 338 337
340 340 341 335 341 340 339 340 333 333 331 328 329 334 334 335 338 342 342 340 347 350 353 358 359 358 360 358 360 363 362 363 364 362 357 354 350 349 350 351 349 343 340 340
335 338 336 342 340 340 341 341 347 345 344 340 330 334 345 346 344 343 342 350 352 352 358 358 356 354 358 357 358 357 358 360 361 358 353 351 350 350 349 349 345 341 340 342
334 335 337 340 339 341 346 344 345 345 344 346 332 343 347 347 347 346 347 351 350 354 355 352 353 355 357 358 357 357 358 358 356 353 352 352 350 349 347 345 345 344 343 344
332 335 343 340 342 341 341 343 344 344 343 343 346 347 348 350 351 351 350 351 348 349 353 350 352 354 359 360 359 359 359 356 353 352 352 353 351 350 347 346 344 344 344 342
337 341 341 340 338 338 338 339 340 342 344 345 347 347 347 346 345 345 345 348 347 349 354 356 353 354 359 359 359 359 356 353 351 352 351 350 350 347 344 342 343 343 343 343
343 341 338 336 336 335 336 337 337 340 341 346 345 346 347 350 350 347 346 345 346 349 352 354 355 358 356 358 358 355 353 352 354 351 350 349 344 343 344 343 341 342 341 340
340 340 338 333 330 330 331 331 331 333 335 336 341 343 345 348 347 347 348 346 348 348 351 353 354 355 354 355 355 355 353 353 351 349 350 346 340 333 334 333 332 333 334 334
337 333 328 326 325 324 324 324 325 326 327 329 330 331 331 335 337 337 343 344 346 346 348 351 352 354 354 354 354 352 351 350 349 347 346 345 343 341 338 328 327 327 328 330
330 330 330 328 325 322 324 322 322 324 325 326 326 326 327 329 328 333 338 337 342 344 347 349 349 351 352 352 351 350 348 346 344 345 342 341 340 338 335 334 332 327 323 324
325 327 327 326 324 324 324 324 322 322 324 327 326 328 329 328 328 327 327 329 332 337 343 344 347 347 347 348 348 347 344 341 341 339 338 337 336 334 334 334 332 329 319 317
323 324 324 323 321 322 323 323 324 324 323 326 327 328 329 330 330 329 328 328 330 333 336 340 343 345 344 344 343 340 339 338 337 336 335 334 333 332 332 331 330 330 328 325
321 323 324 324 323 323 322 321 320 324 325 324 326 327 329 330 331 333 332 331 331 332 334 338 342 344 342 339 336 335 334 334 334 335 333 332 331 330 329 328 327 326 328 326
318 319 321 321 324 324 322 322 323 324 324 323 324 327 330 332 335 333 332 332 334 334 335 338 342 341 340 337 336 334 334 333 333 332 330 328 328 328 327 327 326 326 324 323
321 322 323 323 321 322 322 322 323 324 324 324 325 327 328 330 330 331 333 333 335 337 338 340 340 339 339 338 335 333 332 331 330 328 328 328 328 328 327 326 326 326 326 326
320 320 320 320 321 321 323 322 322 323 324 324 325 326 328 327 328 331 333 334 335 335 335 336 337 337 337 334 331 330 330 329 329 329 329 328 326 325 325 325 325 325 324 324
319 319 319 320 321 322 322 322 322 324 324 324 326 327 326 326 325 327 330 332 333 333 332 333 332 332 331 329 329 330 330 328 328 327 326 325 324 323 324 324 323 322 323 322
320 320 319 320 321 321 323 322 323 324 324 324 324 323 323 324 326 327 327 328 329 327 328 328 327 325 327 325 327 328 327 325 325 324 323 322 322 322 321 321 321 320 319 318
320 319 319 319 320 321 320 321 322 323 324 324 322 321 321 321 322 326 328 325 325 322 322 321 319 318 318 321 322 322 321 321 320 319 318 318 317 317 317 317 317 316 315 314
320 321 322 320 319 320 323 319 319 319 320 321 319 319 318 317 319 319 322 321 320 319 321 317 315 313 314 319 319 318 317 317 316 316 315 313 313 312 312 313 314 314 314 313
320 320 320 321 322 322 319 318 320 318 319 321 320 319 319 318 317 317 316 319 318 317 321 319 314 313 315 317 318 318 318 317 316 316 315 315 314 314 313 312 312 313 313 313
319 319 318 318 317 317 316 316 317 317 316 317 316 316 317 316 316 316 318 317 317 318 317 320 321 319 318 317 317 318 318 318 316 316 315 314 313 313 313 312 312 311 310 310
314 313 314 314 313 313 313 313 314 314 314 314 314 314 315 315 316 315 316 316 316 316 316 317 317 319 318 318 317 317 317 317 316 315 315 315 315 314 313 313 312 311 311 310

GFSNGP_925_thetae_006.txt.gz
Theta_e
330 329 331 331 329 328 329 330 332 331 333 340 340 343 341 341 343 344 346 353 354 356 357 355 354 353 353 353 354 356 361 364 365 365 364 364 363 363 362 362 361 359 354 350
333 331 331 332 331 329 328 329 330 330 331 333 337 337 344 341 342 344 344 344 355 356 362 364 357 354 352 352 352 353 356 361 363 364 366 364 363 364 363 364 362 359 351 347
336 332 332 333 333 331 330 327 328 329 331 333 334 338 341 346 342 343 343 343 348 358 358 360 359 355 353 352 353 353 357 359 360 364 367 365 364 363 364 363 359 355 349 344
338 338 338 332 331 330 330 330 329 330 331 332 333 335 335 335 338 340 343 342 343 339 357 358 358 356 355 354 354 354 362 361 362 365 368 366 364 364 364 361 357 353 348 341
340 341 337 335 334 335 334 335 334 332 335 331 332 332 334 333 334 337 337 346 343 338 343 356 357 356 360 357 356 363 361 366 365 370 369 367 365 363 361 358 355 352 348 340
339 338 343 341 340 339 339 341 344 345 344 341 338 333 332 336 336 335 334 337 348 345 346 360 360 358 360 363 361 360 365 367 369 371 368 364 361 357 355 353 352 352 349 342
337 336 335 340 339 338 343 343 345 345 345 344 344 345 348 348 354 351 338 342 344 352 360 363 361 361 362 363 365 363 367 368 371 369 365 359 355 352 350 352 354 351 345 342
338 343 344 339 340 343 345 343 342 342 343 344 346 346 345 345 348 350 350 345 352 369 369 365 363 365 367 368 366 367 367 368 369 363 358 354 352 351 352 350 348 345 342 341
331 334 336 342 346 343 341 342 345 348 344 342 342 343 347 348 349 350 349 355 353 363 366 363 364 364 366 365 363 364 365 366 363 357 354 352 353 350 348 348 347 346 345 346
332 335 341 341 339 339 340 345 345 346 348 350 349 347 347 349 351 355 357 359 357 359 363 365 362 362 364 363 363 363 364 359 355 354 354 354 353 350 349 348 347 346 346 343
335 347 343 341 340 340 340 340 341 339 339 341 347 348 351 355 356 357 358 358 359 362 364 364 366 363 363 364 364 361 357 354 353 352 352 353 348 347 345 343 343 345 342 341
348 343 342 340 337 333 334 335 335 335 335 337 339 341 342 347 347 349 352 353 356 358 359 358 360 360 361 361 358 356 354 352 353 351 350 342 338 335 340 340 338 337 336 340
332 333 329 329 327 327 328 327 327 329 330 331 334 339 336 339 339 342 347 351 354 356 357 357 357 356 357 358 355 354 354 354 351 350 349 345 341 337 330 327 329 330 330 331
328 328 329 327 327 325 325 326 326 328 328 328 329 329 329 332 333 337 342 345 347 349 351 354 354 355 354 354 353 352 352 350 350 349 349 347 346 344 341 332 329 325 327 328
330 327 326 327 327 325 326 326 326 325 326 328 328 330 331 332 331 333 331 331 338 344 348 350 353 354 353 353 353 354 351 349 348 348 347 346 344 342 341 337 335 324 319 322
326 325 325 325 324 324 325 324 326 327 326 325 325 331 331 331 333 334 333 331 338 345 345 346 348 350 350 349 347 346 345 344 344 337 340 340 338 336 335 335 330 325 324 320
325 325 323 325 325 323 323 323 322 320 322 325 325 327 331 334 334 334 333 333 333 334 336 342 343 344 344 345 343 342 340 338 337 336 336 335 334 333 332 331 333 332 329 324
322 323 322 321 320 319 321 321 322 323 319 322 325 328 330 332 336 335 335 336 335 337 337 341 343 341 341 339 339 336 335 335 335 335 333 333 332 330 329 328 328 330 329 326
322 324 324 324 324 322 321 323 324 325 325 325 327 330 329 331 331 334 335 337 336 337 339 340 340 340 341 339 337 335 333 333 333 331 330 329 329 330 329 327 327 328 325 322
321 321 321 323 322 322 323 324 323 325 324 326 327 327 330 329 330 332 332 334 335 334 336 336 336 338 339 338 334 332 331 331 330 330 329 329 328 329 327 326 326 327 327 327
321 320 322 324 323 323 322 322 324 325 325 325 327 328 328 327 329 329 330 333 331 331 330 332 334 334 335 331 330 330 330 330 330 329 328 326 325 325 325 325 324 324 324 324
321 321 322 322 324 324 324 324 324 324 325 322 323 322 325 327 326 327 328 327 325 325 326 325 323 327 327 327 329 326 326 327 327 326 326 326 325 324 323 323 323 323 322 321
322 322 323 322 323 322 320 322 321 322 324 321 322 322 321 322 325 325 325 321 321 322 319 317 316 317 320 321 323 325 326 324 324 323 321 320 320 319 319 319 318 319 319 318
321 322 319 322 321 322 325 322 320 320 322 322 320 319 319 319 319 322 321 320 319 320 321 317 314 315 316 319 320 320 320 319 318 318 317 316 315 315 314 313 314 315 316 316
319 320 321 321 319 318 317 317 317 317 319 318 318 317 319 317 319 318 319 319 317 318 321 320 320 317 316 317 318 318 319 319 318 317 317 316 316 316 315 314 313 312 313 314
319 318 316 317 315 314 314 315 316 315 315 317 316 315 316 317 316 317 317 317 317 317 318 319 321 319 319 319 317 317 317 318 318 318 317 317 315 314 314 314 314 313 312 312
314 313 314 313 311 311 311 311 312 312 312 312 312 313 314 315 315 315 314 315 315 316 316 316 316 319 317 317 317 316 318 318 317 317 317 316 316 315 315 315 314 314 313 312

GFSNGP_925_thetae_009.txt.gz
Theta_e
326 328 327 326 328 326 325 323 323 323 323 324 326 338 338 338 339 339 341 346 344 348 347 350 352 353 354 356 358 364 366 366 365 365 365 365 365 364 360 362 360 359 353 350
330 329 327 327 328 329 325 325 325 325 325 326 325 326 342 338 335 334 344 349 346 347 347 347 349 351 353 355 357 360 364 365 364 364 364 365 365 364 364 360 361 359 357 354
328 330 330 329 327 328 329 326 326 325 325 325 326 327 336 337 338 332 336 344 346 346 353 347 349 350 352 354 356 358 361 363 363 362 364 363 364 363 364 363 362 361 359 356
327 332 335 331 330 330 330 332 327 326 326 328 327 329 331 332 333 330 333 337 342 347 347 356 350 350 351 353 355 356 357 361 362 363 362 364 364 363 364 364 363 362 361 357
328 330 331 333 331 332 330 329 335 343 342 337 335 330 328 329 331 327 332 330 332 338 348 352 354 351 350 351 353 353 354 356 360 361 364 365 364 364 364 364 362 360 358 354
327 331 333 331 337 338 338 342 346 345 345 344 341 338 330 341 344 336 332 329 328 338 337 353 354 353 351 350 352 351 352 355 358 360 362 365 364 364 364 363 359 356 353 350
333 329 334 340 339 337 341 348 344 343 344 344 344 343 341 340 347 347 345 341 332 339 343 352 355 354 352 351 351 353 351 359 361 363 367 365 364 364 360 357 356 353 352 350
335 338 338 341 339 343 347 345 349 349 349 344 342 341 342 343 345 347 345 344 362 350 354 355 358 358 357 354 354 356 362 368 370 367 363 364 362 359 357 353 352 353 350 344
327 334 340 340 339 342 342 348 349 349 351 349 349 351 352 348 348 349 354 358 362 363 365 368 362 362 366 368 363 366 370 366 361 361 361 358 354 351 350 351 347 344 343 343
337 329 336 337 337 346 344 343 340 343 344 342 343 342 343 345 351 355 355 357 360 362 361 363 366 366 367 367 367 368 364 359 356 355 353 352 351 351 350 348 347 345 344 343
338 340 341 341 342 341 341 338 336 336 337 338 337 338 337 337 339 344 352 358 361 361 364 364 364 365 364 365 365 360 357 355 353 353 353 351 348 348 348 347 347 346 346 344
340 334 335 337 332 333 335 334 332 332 335 335 333 333 333 333 332 335 336 341 358 360 361 362 364 363 362 361 359 354 353 352 353 350 344 342 340 338 341 342 343 344 342 340
334 328 328 327 326 327 328 328 328 329 330 331 330 330 331 332 331 331 333 331 349 355 357 359 361 360 358 357 355 353 352 351 351 345 340 337 338 338 330 333 336 336 337 338
328 328 329 327 326 325 324 324 324 326 328 329 327 326 326 328 329 331 332 332 345 354 353 353 355 358 356 355 354 352 353 350 349 346 343 340 339 337 336 330 326 327 329 330
328 327 327 326 325 325 325 325 326 326 324 324 330 332 332 331 330 333 334 335 341 350 354 355 354 355 354 352 352 353 351 349 349 348 345 343 341 339 336 332 327 324 324 327
327 326 324 324 325 326 324 324 325 325 325 325 326 331 332 334 332 333 334 337 339 340 343 351 354 353 353 352 352 351 350 349 349 349 347 345 343 343 338 334 327 324 323 324
325 326 326 325 323 323 324 322 321 323 325 325 327 329 325 325 331 334 334 336 336 339 341 342 343 343 344 344 343 344 343 341 341 344 342 343 341 341 338 335 328 325 324 324
322 321 321 321 322 322 322 324 324 323 323 325 328 327 328 329 329 330 333 334 334 337 338 339 340 340 339 338 338 340 341 337 337 336 335 334 333 333 332 331 328 327 326 324
323 324 323 320 317 318 322 324 325 325 325 325 328 327 328 329 330 331 328 327 331 332 332 336 338 338 338 336 335 334 335 335 334 333 332 330 329 329 328 331 331 331 328 324
322 322 321 323 323 323 324 325 325 325 327 326 326 327 327 328 329 329 331 331 330 332 332 334 336 336 334 331 332 332 332 331 330 330 329 329 329 329 328 327 327 325 325 324
322 322 323 324 324 324 325 325 325 324 325 325 325 326 327 327 327 328 328 326 325 328 326 327 329 332 329 330 330 330 330 330 329 329 328 326 325 326 326 325 326 326 325 324
322 321 323 323 323 322 322 323 324 323 321 322 323 323 325 326 326 324 323 322 323 323 320 319 318 323 322 324 326 327 327 327 326 327 327 326 325 323 322 324 323 324 326 326
320 322 322 321 323 323 322 322 320 323 323 324 321 321 322 325 324 324 321 321 321 318 318 315 315 316 319 319 322 326 324 325 325 324 322 322 320 318 317 317 318 319 319 319
318 319 319 317 318 318 318 318 317 318 318 316 316 319 317 319 320 320 319 318 317 321 320 319 317 317 317 317 317 319 324 323 319 319 318 317 316 315 315 314 313 314 315 316
317 317 316 314 315 317 316 317 315 315 317 316 315 315 316 316 316 319 318 317 317 318 321 319 319 318 317 318 319 317 318 317 318 317 317 316 316 315 315 313 313 312 312 313
315 313 312 310 309 310 311 311 312 313 313 312 312 315 315 314 312 312 313 315 315 316 317 319 317 318 316 316 316 317 317 317 317 317 317 316 316 315 315 314 314 314 313 312
310 310 309 308 307 308 308 308 308 311 310 311 313 312 311 310 309 308 307 308 309 310 312 316 315 314 314 314 313 313 314 314 315 316 315 316 315 316 316 316 315 315 313 312

GFSNGP_925_thetae_012.txt.gz
Theta_e
321 323 323 324 323 323 321 321 321 322 318 319 319 320 323 326 334 335 338 340 339 343 344 347 350 350 353 356 359 361 362 363 362 362 362 362 360 358 357 356 356 356 354 352
323 324 324 325 325 325 324 323 322 319 319 317 319 320 325 330 335 335 335 340 342 343 346 348 349 350 352 355 360 361 362 363 363 363 363 363 363 361 359 358 359 359 355 352
321 323 325 326 326 325 324 323 323 321 320 319 321 322 323 325 327 332 335 341 343 344 347 347 350 351 351 355 359 362 362 363 363 363 363 363 363 363 362 359 359 360 358 355
321 322 328 327 326 325 324 326 324 322 321 322 322 322 322 327 328 330 330 334 343 344 344 347 350 351 352 352 356 361 362 363 364 363 363 362 363 363 362 362 359 359 359 359
323 325 324 330 329 326 324 326 335 326 330 324 324 324 326 328 325 326 328 330 330 339 344 345 347 350 352 352 354 356 359 361 362 363 362 362 362 362 361 362 360 360 360 358
323 327 330 326 333 333 330 348 343 342 340 337 330 326 327 335 341 327 325 326 327 330 342 350 346 348 350 351 353 354 356 358 361 362 361 361 361 361 361 362 361 361 361 358
326 331 327 338 337 334 336 335 341 341 340 338 339 333 334 338 342 341 339 333 329 326 329 342 350 347 347 350 352 353 355 356 358 361 361 360 362 361 362 361 361 360 356 356
329 337 342 326 336 334 335 348 349 351 348 349 348 349 346 343 341 343 340 339 351 329 328 334 343 349 347 348 350 351 353 354 354 358 359 361 362 361 361 360 357 352 351 350
327 334 326 325 338 343 341 343 344 345 345 345 346 344 344 347 350 351 352 352 356 354 348 356 347 350 349 348 348 349 350 353 355 358 360 361 360 358 355 354 351 350 348 346
330 329 332 341 342 339 337 340 339 338 338 338 340 339 338 338 340 340 339 340 339 344 355 358 359 353 350 349 349 352 359 362 361 359 357 357 355 354 350 349 347 345 344 342
330 329 331 334 338 337 335 335 335 334 335 335 335 334 334 334 334 335 336 334 333 332 331 329 354 363 361 360 363 363 360 359 356 353 353 348 348 347 347 347 349 346 344 344
337 331 331 330 334 333 332 331 331 331 332 332 333 333 331 331 330 332 334 333 329 328 327 328 330 337 363 363 360 357 354 354 351 340 335 336 338 341 346 347 346 345 344 343
331 326 326 328 326 326 327 327 328 328 326 327 328 329 329 328 328 331 334 334 336 336 330 329 338 332 353 356 356 355 354 350 342 339 339 338 340 342 326 337 345 345 345 341
327 327 328 326 327 326 325 326 325 327 330 331 329 326 326 328 331 332 334 337 342 340 340 343 342 338 350 351 351 350 348 343 342 339 336 337 336 332 331 329 330 333 339 340
326 326 326 326 325 324 323 323 325 326 327 328 327 329 329 328 330 334 336 338 340 342 345 346 349 350 351 351 349 348 347 344 342 339 338 337 336 333 330 330 327 329 330 331
325 324 325 326 326 323 323 322 323 324 325 326 324 322 326 331 332 333 334 335 337 338 338 340 343 348 350 351 349 349 348 346 344 341 339 337 335 333 331 329 327 325 326 327
325 325 322 323 323 323 323 323 322 321 323 324 324 326 324 323 324 326 329 329 327 332 336 337 336 334 332 339 345 344 347 348 347 344 342 340 340 337 337 337 331 325 325 327
321 320 321 322 322 323 324 324 323 323 324 325 326 326 326 327 326 323 324 324 323 323 331 337 337 337 335 329 329 332 338 336 335 340 341 341 340 339 336 332 328 325 323 323
322 323 322 319 319 321 322 323 324 324 325 327 325 325 326 327 329 330 329 329 328 326 323 332 333 334 334 335 335 333 332 335 335 334 336 336 335 332 335 333 328 326 324 323
323 323 322 323 322 320 323 324 325 325 325 325 325 325 324 325 328 326 325 325 325 326 328 323 326 330 330 332 334 335 333 331 330 329 329 328 328 329 330 330 329 327 325 323
322 323 322 322 323 323 324 322 321 321 323 322 325 325 323 325 325 323 321 322 319 319 321 325 325 328 329 330 330 331 331 330 330 329 328 327 327 328 328 329 329 328 326 324
321 321 322 321 321 321 321 322 321 320 319 318 320 324 323 321 320 320 320 319 317 315 314 315 317 318 320 326 329 329 329 329 328 328 326 324 324 323 325 326 326 326 326 325
318 317 316 317 316 316 316 317 317 315 315 316 316 315 319 321 320 315 314 319 320 318 317 315 316 317 318 318 324 326 326 327 327 324 323 323 320 317 320 322 323 325 325 324
313 309 309 310 312 314 313 314 314 313 313 314 314 313 313 315 314 314 315 316 317 319 318 318 317 318 318 317 317 318 320 322 322 321 322 321 320 319 317 315 315 315 316 317
308 306 306 307 307 308 307 310 310 310 313 313 312 310 310 308 308 307 307 309 316 318 317 317 316 316 316 317 317 316 316 316 316 316 316 317 316 315 314 314 313 313 313 313
305 304 304 304 305 306 306 307 307 307 309 309 308 307 306 305 305 305 304 306 308 312 312 313 313 313 313 314 314 314 314 315 315 314 314 315 315 315 313 313 313 311 312 312
304 303 303 303 304 305 306 306 305 304 304 304 303 303 304 304 303 303 303 303 303 303 303 303 306 307 309 307 309 309 308 308 309 313 313 313 313 312 312 310 310 310 310 310

GFSNGP_925_thetae_015.txt.gz
Theta_e
317 318 319 321 320 321 319 320 321 322 317 318 319 319 320 320 323 332 334 335 336 338 339 340 343 346 349 351 353 353 354 356 356 356 356 356 355 354 354 354 354 353 354 353
317 319 321 322 320 322 321 321 320 320 316 317 319 317 318 318 320 325 331 332 333 338 339 340 342 346 348 351 353 355 355 356 356 357 358 358 357 356 355 354 354 354 353 352
317 317 319 322 322 322 322 321 320 321 319 316 317 317 316 318 320 325 325 328 333 334 335 340 343 346 348 351 352 356 356 357 357 357 359 359 358 358 356 355 355 354 353 352
316 318 326 322 322 323 322 322 320 320 319 319 319 320 319 317 319 321 325 328 333 335 336 340 344 346 347 350 353 356 357 358 359 359 359 359 360 359 358 356 356 355 354 354
318 321 322 324 327 325 322 322 325 320 320 319 319 321 321 320 321 322 324 325 330 337 339 342 344 347 348 349 352 356 357 358 359 360 360 360 360 360 360 359 356 356 355 356
317 323 327 324 329 332 330 325 339 330 323 321 320 321 323 331 331 324 321 322 328 336 340 342 344 347 348 349 352 356 358 358 359 360 360 360 360 360 360 360 357 356 357 357
319 321 324 328 339 334 333 326 339 337 336 326 322 321 325 334 336 338 329 329 330 325 335 341 344 347 348 349 350 353 356 358 359 360 361 360 360 360 361 360 359 358 357 356
321 327 331 335 339 345 341 340 346 345 346 346 345 347 347 348 349 346 345 346 351 350 345 347 335 343 347 348 350 350 353 354 358 359 361 360 360 360 360 360 359 358 356 352
325 328 327 331 334 339 337 340 342 344 344 345 345 343 342 342 340 338 336 333 333 333 337 337 356 349 343 345 348 350 351 352 354 357 359 359 359 360 360 360 358 354 349 345
327 328 332 334 333 334 334 335 335 335 337 337 339 338 337 337 336 334 333 332 330 329 328 327 332 345 349 352 350 346 349 351 353 355 358 359 359 360 360 358 356 352 348 345
329 328 330 334 332 332 332 331 332 333 334 334 333 332 330 330 330 331 331 330 329 328 327 327 330 336 337 339 349 346 347 349 351 354 358 359 358 359 358 354 352 348 345 344
326 330 331 331 329 328 329 330 327 331 332 330 330 329 329 329 329 330 331 332 331 331 329 330 336 342 344 343 338 346 353 356 357 357 341 336 337 337 346 346 347 346 339 337
329 326 327 327 326 326 328 328 331 330 328 329 327 328 328 329 329 331 334 336 337 338 340 337 341 339 337 334 337 345 347 357 349 340 339 341 345 341 334 343 345 344 345 344
325 325 328 328 327 325 327 327 327 327 327 328 328 328 330 332 333 333 334 336 338 339 341 343 345 336 331 335 336 336 329 335 342 342 343 344 342 338 333 335 336 341 339 343
327 324 325 324 324 324 323 327 326 326 324 325 328 330 330 330 330 329 331 335 336 337 337 337 338 340 334 333 340 339 334 335 336 339 338 337 336 335 334 335 332 329 335 340
326 324 324 324 324 323 323 323 326 326 326 325 324 322 322 325 326 325 325 328 333 335 334 332 331 335 341 343 341 337 335 337 337 335 333 332 331 330 330 329 330 332 332 333
325 325 324 323 323 322 322 322 323 324 325 325 324 325 324 321 321 321 323 323 327 331 333 333 333 329 334 339 340 341 340 339 337 336 334 333 332 332 330 330 327 328 331 333
321 320 321 321 321 320 322 322 323 324 324 325 325 325 325 324 324 324 327 327 324 326 329 330 332 333 332 330 334 335 340 340 339 338 337 336 333 332 328 327 326 326 325 326
322 322 321 321 320 321 321 322 323 324 325 324 325 325 325 325 325 324 323 322 324 326 326 329 331 332 333 334 331 331 333 332 335 339 339 338 336 335 333 331 328 326 324 323
324 322 321 322 322 322 324 324 323 323 324 324 323 322 322 322 321 321 319 316 315 317 320 324 329 330 331 333 334 334 333 333 333 333 333 335 335 335 336 333 330 326 325 324
322 322 322 322 321 321 320 319 318 317 321 323 320 318 317 317 318 317 315 313 313 315 317 317 318 324 329 330 331 330 330 330 329 328 328 328 329 329 329 329 327 326 325 322
316 318 318 317 316 316 315 315 315 315 315 317 319 318 317 315 315 315 315 314 316 317 317 317 317 321 326 328 328 328 328 329 328 327 326 326 325 326 326 326 326 327 324 322
308 308 309 311 312 312 311 311 312 312 311 310 310 313 311 308 309 310 310 315 316 316 316 316 317 317 321 322 322 323 324 326 326 323 324 325 325 325 325 325 324 324 323 323
305 306 306 306 307 307 308 308 310 311 309 307 306 305 305 306 305 307 311 314 313 313 313 314 316 317 316 315 315 315 315 315 317 319 320 322 324 323 320 321 322 322 323 324
303 303 303 304 304 304 305 308 308 306 305 304 304 303 303 303 304 304 304 304 305 306 307 309 310 310 310 311 313 314 314 313 313 314 314 314 312 311 311 312 313 313 315 316
301 302 302 303 303 304 304 304 304 303 303 302 301 301 301 301 301 302 301 301 301 300 300 301 301 303 305 307 307 307 309 313 314 313 313 312 311 310 309 310 308 308 310 310
299 299 300 301 302 303 302 302 301 300 301 300 298 297 298 299 299 299 298 298 298 298 298 298 298 299 300 301 303 306 307 307 308 310 311 312 312 311 310 306 307 307 306 307

GFSNGP_925_thetae_018.txt.gz
Theta_e
316 316 317 318 319 319 316 318 319 320 320 319 318 318 319 320 320 323 326 329 334 335 336 336 340 342 343 344 347 349 350 350 350 351 351 351 352 352 352 351 351 352 351 352
316 316 317 318 319 320 319 318 317 319 317 316 318 317 319 319 320 321 324 329 333 335 336 338 340 342 343 345 347 349 350 350 351 352 352 352 352 352 352 352 352 352 351 351
316 316 316 319 318 319 319 318 318 319 319 318 317 317 318 319 319 319 320 326 331 333 336 337 339 342 344 345 348 349 350 351 352 353 353 354 353 352 352 352 352 352 351 351
315 316 321 317 318 323 320 320 319 320 319 319 320 321 319 318 320 319 319 322 326 328 332 333 337 340 343 345 348 351 351 351 353 354 354 354 355 354 353 352 352 352 351 351
317 317 317 318 327 334 333 331 321 320 320 318 318 318 320 317 316 318 319 319 322 326 329 333 335 339 342 346 349 351 352 352 353 354 355 355 356 356 355 354 353 353 352 351
313 319 322 322 330 332 332 335 338 330 320 320 317 319 321 319 322 319 320 320 324 328 334 335 337 341 344 346 349 350 353 354 354 355 355 356 357 356 356 356 354 354 352 352
315 319 319 323 332 336 335 336 341 341 342 319 319 321 327 341 346 345 348 346 325 329 329 332 340 344 345 346 348 350 352 354 355 356 357 356 357 357 358 357 356 355 354 352
315 320 321 325 335 345 339 338 338 341 341 334 336 345 346 343 341 340 341 346 346 345 347 349 340 344 345 345 347 349 352 354 355 356 357 357 358 358 358 359 359 357 355 354
318 319 318 327 328 333 334 336 336 336 337 341 344 344 344 340 337 335 333 332 330 330 333 338 347 345 344 347 348 346 349 352 356 356 357 358 359 359 359 359 359 357 355 355
319 320 323 330 331 330 331 332 331 333 335 335 338 338 335 333 333 332 331 330 328 327 328 329 335 337 336 337 350 354 347 347 351 355 357 359 359 359 359 360 359 357 357 354
318 319 325 331 330 328 330 330 330 331 331 331 330 330 331 331 331 331 330 329 329 328 327 329 336 338 338 335 337 339 353 349 346 351 355 358 359 359 359 359 359 358 356 349
318 319 324 327 327 327 329 331 329 331 331 329 329 331 333 333 333 334 336 336 338 339 339 337 338 334 333 335 335 335 337 349 348 348 352 357 346 346 358 359 359 357 351 345
321 322 324 326 326 327 329 331 331 331 330 331 330 332 333 334 332 333 335 336 336 337 339 341 342 337 334 334 335 336 334 345 351 350 350 342 345 343 334 339 351 345 344 342
319 322 327 327 328 327 328 327 328 329 330 329 329 329 330 331 331 334 335 335 334 334 336 338 339 339 338 341 338 337 336 337 346 347 344 346 344 343 340 339 337 334 338 335
319 321 325 325 326 326 326 327 328 327 326 326 325 326 326 327 326 326 329 334 333 332 331 332 336 337 340 341 340 334 336 337 339 340 336 345 344 342 339 337 335 332 329 335
323 323 324 326 327 326 326 326 327 326 325 324 322 321 321 321 322 322 324 328 333 333 331 331 331 335 339 340 337 335 333 333 335 336 332 329 333 334 335 332 329 326 328 321
325 326 326 326 326 326 325 324 325 325 325 324 325 326 325 326 326 325 325 325 326 327 328 329 330 331 335 339 339 337 338 335 335 335 334 330 329 331 332 330 330 331 330 333
321 321 321 322 324 324 323 323 324 324 325 325 326 325 323 322 321 320 320 322 322 323 325 328 330 332 332 332 338 338 338 337 335 334 332 332 331 329 329 330 330 328 324 327
323 322 322 322 320 322 324 325 324 324 324 323 322 322 320 318 316 314 314 314 315 317 318 325 329 332 333 333 332 333 336 336 335 334 333 332 331 329 329 328 328 326 326 327
322 323 322 321 319 320 320 321 323 322 320 318 317 317 316 315 315 314 314 314 313 314 317 322 328 329 330 330 333 333 332 332 334 334 334 333 333 331 331 330 329 328 328 330
317 317 316 315 315 314 315 318 318 318 317 315 315 313 312 312 312 313 314 315 314 315 316 318 322 324 326 327 328 329 329 329 329 329 330 330 329 331 331 329 328 327 325 323
310 311 311 312 311 311 311 311 310 309 309 308 307 306 307 308 312 312 311 311 311 313 313 314 315 317 319 321 322 323 323 324 324 325 323 323 324 324 324 325 325 324 323 322
307 308 308 309 310 309 308 307 306 305 304 304 304 305 306 307 307 308 307 306 306 309 309 309 312 313 314 314 313 314 315 315 315 317 322 324 325 325 325 325 325 325 324 323
303 304 305 306 306 307 306 305 304 303 303 303 302 302 303 304 302 301 301 301 302 303 303 304 307 308 309 310 312 312 312 312 312 313 313 312 312 314 315 320 323 321 323 324
302 302 303 303 304 304 303 303 302 301 301 300 300 300 300 300 300 300 299 299 299 299 299 302 303 305 306 306 307 308 310 310 310 309 310 310 309 309 308 308 308 309 309 312
298 299 301 301 301 301 302 301 300 299 298 298 297 297 297 297 297 297 297 297 297 297 297 298 300 302 304 305 305 304 304 306 308 309 309 308 307 307 307 306 306 306 306 305
296 296 297 299 299 299 298 297 297 296 296 296 295 294 294 294 294 295 295 294 294 294 295 296 298 299 300 301 302 302 302 302 302 303 305 306 307 306 307 308 308 307 307 306

GFSNGP_925_thetae_021.txt.gz
Theta_e
319 319 319 320 321 321 323 325 328 326 326 326 327 328 329 329 332 332 332 334 337 340 348 350 347 346 346 347 349 350 352 352 353 355 355 355 355 354 354 354 353 352 353 353
318 317 318 320 320 321 321 322 322 323 324 324 324 327 330 329 331 333 334 332 334 339 344 346 347 347 346 347 348 350 352 352 352 354 355 355 355 355 355 354 354 354 353 353
318 318 319 321 320 321 321 322 322 324 324 324 324 326 327 329 332 334 335 336 337 337 342 346 344 346 346 347 348 350 351 352 353 353 354 355 355 355 355 355 354 354 354 354
316 317 321 321 321 324 325 324 323 323 323 324 326 329 331 331 331 333 333 333 336 332 338 344 342 342 345 346 348 350 351 353 353 353 354 355 355 355 356 356 355 355 354 354
313 317 319 318 320 332 336 328 333 338 327 324 325 327 332 329 329 331 332 334 333 329 330 338 341 343 346 348 350 351 352 353 354 354 355 355 356 355 355 356 356 355 355 355
313 312 317 320 323 330 336 331 341 344 346 341 326 327 329 333 329 327 327 328 329 330 333 337 339 340 346 348 350 353 353 353 354 355 355 356 356 357 356 356 356 355 356 355
314 315 315 317 325 338 341 332 342 343 345 347 348 329 334 338 336 343 344 333 329 336 344 344 344 342 348 348 352 351 352 354 355 355 356 357 357 357 357 357 357 356 356 355
313 313 314 315 321 326 340 340 342 343 342 343 346 347 335 345 351 354 353 347 343 350 351 350 347 349 350 352 351 353 354 355 357 357 357 357 358 359 359 358 358 358 357 356
313 313 314 317 323 331 336 339 340 341 340 340 345 347 345 351 350 350 347 347 352 351 348 348 350 352 353 353 351 352 354 356 357 358 359 358 359 360 360 359 358 358 357 356
315 313 315 317 321 326 333 336 336 337 337 339 346 345 347 345 343 340 338 337 336 339 343 344 343 344 346 347 354 354 354 356 358 358 360 360 359 360 360 360 359 359 358 357
316 316 318 317 318 324 331 333 336 334 335 337 340 340 340 339 339 338 338 336 338 343 344 342 342 341 340 340 340 343 350 354 353 356 358 360 361 361 361 360 359 359 359 358
316 316 319 320 323 327 330 334 334 334 337 336 338 337 336 337 337 338 340 342 344 345 345 343 339 338 339 340 340 340 342 342 344 348 351 355 358 361 360 361 360 359 359 358
317 315 317 319 321 323 329 334 333 335 338 339 337 335 335 336 337 336 337 337 338 339 340 343 344 344 344 344 343 342 342 341 343 350 349 349 355 359 354 350 359 359 359 357
314 314 315 318 321 326 331 333 330 333 332 334 335 336 337 337 337 338 339 338 339 339 341 343 342 338 340 344 340 341 339 340 343 336 336 340 344 349 352 343 346 333 351 354
313 313 314 319 322 326 328 331 331 330 328 327 327 330 332 334 334 334 336 336 335 335 335 336 338 338 339 342 339 338 338 340 339 334 330 329 328 327 328 337 345 332 323 331
316 318 319 321 325 326 328 329 328 328 328 328 328 330 330 330 328 328 329 332 334 336 334 335 335 335 338 339 341 339 339 335 336 339 337 336 335 332 327 329 331 332 332 326
316 318 321 324 325 327 328 328 329 329 330 330 330 328 327 325 324 322 324 326 327 326 329 332 334 335 335 338 340 339 337 337 334 337 336 336 333 334 330 328 327 331 332 323
321 322 318 318 325 326 326 327 328 328 327 325 323 321 320 319 319 319 320 321 324 325 325 328 330 335 335 334 337 338 334 336 335 335 334 333 333 332 331 331 331 330 326 325
322 322 320 323 325 326 326 326 325 323 322 319 318 317 317 318 318 319 319 320 321 324 323 326 329 331 332 331 333 334 336 336 333 333 333 332 332 330 330 328 325 323 324 326
315 317 319 319 319 319 320 318 318 318 318 317 317 317 316 316 317 318 317 316 317 318 320 321 325 325 327 328 329 329 330 332 333 334 334 334 334 332 329 327 326 326 328 330
312 313 313 313 312 310 309 310 310 310 311 313 315 316 316 314 312 314 316 316 312 314 315 316 317 319 320 323 323 322 323 322 325 326 326 327 330 331 330 329 328 328 325 326
310 311 310 310 309 307 306 307 308 309 311 311 311 312 312 312 311 308 306 308 307 309 311 311 313 314 316 317 319 319 318 318 317 320 323 324 325 325 324 325 325 324 323 324
307 308 308 307 307 306 305 305 305 305 304 306 307 306 306 305 305 307 306 303 304 305 307 306 308 310 312 316 314 314 315 313 313 312 312 313 314 317 319 317 319 321 321 321
306 306 307 306 306 305 305 303 302 302 302 302 303 302 304 304 303 302 301 300 300 302 303 304 305 306 308 308 310 313 313 314 314 313 312 311 310 311 312 312 313 314 314 317
304 305 305 305 306 305 303 302 302 301 301 301 300 300 300 300 300 299 300 300 299 300 300 301 303 305 305 305 306 306 306 309 310 311 311 310 310 309 308 307 306 306 306 307
302 303 303 302 302 303 302 302 301 300 300 299 298 297 297 297 296 297 297 296 297 297 298 298 299 301 302 302 303 303 303 302 305 305 306 307 307 306 305 306 306 306 305 305
299 299 302 302 300 298 298 299 298 298 297 297 296 296 295 295 295 295 294 294 294 294 295 295 295 295 297 298 299 300 300 300 299 300 301 302 303 303 304 303 302 303 305 304

GFSNGP_925_thetae_024.txt.gz
Theta_e
329 326 325 328 327 328 329 329 330 329 330 329 329 329 330 330 330 330 332 335 337 343 346 349 348 350 354 353 351 351 354 355 358 360 361 360 360 361 360 360 360 360 359 360
327 324 323 325 325 326 328 329 329 329 330 329 329 329 330 330 330 330 331 331 331 334 343 345 347 349 349 353 351 352 355 356 357 360 361 361 361 361 361 361 361 361 360 360
327 324 324 326 325 325 326 326 327 329 329 328 328 328 328 329 329 329 331 332 333 335 338 341 340 345 349 351 351 353 355 358 358 360 361 362 362 362 362 362 361 361 361 361
324 325 328 326 326 326 326 326 326 327 327 328 328 329 329 329 330 330 330 332 333 333 333 333 337 337 345 349 353 353 357 358 359 360 361 362 362 362 362 362 361 362 362 361
321 323 325 324 323 324 326 327 326 328 329 328 328 328 328 328 329 331 333 333 333 332 332 334 335 337 341 349 352 353 358 359 359 359 359 360 362 363 363 362 362 362 362 362
317 320 323 323 322 327 326 332 329 335 335 338 341 338 331 330 329 331 331 333 333 331 332 333 335 338 343 348 350 355 357 357 358 359 360 361 362 363 362 362 362 361 361 361
316 317 319 320 325 332 331 343 340 340 341 344 347 344 346 346 343 339 338 338 335 334 334 336 340 341 342 347 350 353 355 355 357 359 360 361 361 362 362 362 360 362 362 362
314 316 317 316 318 325 334 337 336 338 341 344 346 347 348 348 349 343 341 343 345 339 339 344 348 348 347 354 351 353 354 355 358 360 359 359 362 363 362 362 362 362 362 362
314 315 315 316 318 320 322 325 333 332 333 338 342 346 349 351 348 346 347 350 350 346 351 353 354 354 355 354 353 354 355 356 358 360 360 359 362 363 363 363 361 362 361 362
313 313 315 316 316 318 320 323 325 329 330 336 339 344 349 350 349 350 347 348 348 351 352 354 358 359 360 359 357 358 359 360 360 361 362 361 360 361 361 361 363 361 361 362
316 315 314 314 316 318 319 323 327 328 333 337 340 342 348 349 347 345 344 344 347 348 349 349 348 347 346 347 350 358 359 359 360 360 361 361 362 360 360 361 360 362 361 361
315 314 315 316 317 319 322 323 326 329 333 338 338 341 342 342 343 345 346 347 348 348 348 346 345 347 348 348 349 348 347 346 347 349 351 356 357 360 359 359 359 361 361 361
315 316 316 317 317 317 320 321 323 328 335 339 338 338 340 342 342 341 343 343 344 345 347 348 344 342 343 348 347 347 348 348 348 348 350 350 350 352 354 357 360 360 360 360
314 314 316 316 318 317 320 323 325 331 335 334 339 338 339 341 342 343 345 343 344 344 345 345 342 341 344 344 345 346 344 343 344 344 346 348 348 348 347 349 351 352 352 352
313 312 313 314 316 317 321 327 330 333 330 330 338 340 339 341 340 341 339 339 339 340 340 340 342 343 341 345 345 344 343 343 341 338 337 336 339 339 338 338 338 339 330 333
312 312 313 317 318 319 322 325 322 330 330 331 334 336 337 336 335 334 333 334 336 337 337 339 340 339 341 342 342 341 341 336 338 341 341 341 340 340 336 337 337 335 328 323
314 314 316 320 322 322 323 321 324 328 330 332 332 328 326 328 329 329 330 331 332 333 334 335 338 338 337 340 340 339 339 338 336 337 337 338 339 338 337 335 333 335 333 329
314 316 319 322 323 323 325 328 329 327 328 325 323 326 327 329 329 327 328 329 329 329 330 331 334 335 335 338 338 339 338 336 336 336 336 335 335 335 336 336 336 334 332 330
318 318 321 320 320 322 321 320 321 320 321 322 322 324 323 323 323 324 325 325 325 326 324 327 328 330 330 330 333 335 335 338 336 337 337 335 333 331 331 329 327 325 328 327
315 314 312 312 311 313 314 315 316 317 319 318 318 318 320 321 320 320 318 318 318 319 319 322 325 326 328 326 327 328 330 332 331 332 332 334 335 334 333 331 328 327 327 329
312 312 311 310 310 310 311 314 315 314 316 316 316 313 311 310 312 316 315 315 313 315 315 317 318 321 322 324 325 324 323 324 326 328 328 328 328 327 327 327 327 327 328 327
310 310 310 309 308 307 306 306 308 311 311 310 310 310 312 313 311 308 309 311 310 311 312 312 313 315 318 319 320 320 320 319 319 319 316 319 320 318 318 318 319 317 318 319
310 309 310 311 309 307 306 306 305 307 306 306 309 307 307 307 306 305 306 305 306 307 309 308 308 310 311 315 317 318 319 318 317 314 314 313 314 315 313 312 312 311 314 315
310 309 308 307 308 308 309 307 306 305 305 305 304 304 305 305 304 304 303 302 303 304 303 304 305 307 309 310 310 312 312 315 316 316 316 314 314 313 312 313 312 309 309 310
308 308 308 308 308 308 306 305 304 304 302 302 302 301 301 300 301 300 301 301 299 302 302 300 302 305 306 307 307 307 307 307 308 311 312 312 312 312 312 312 311 311 310 308
304 307 306 305 305 305 305 304 303 303 302 301 301 300 299 299 299 298 299 297 298 299 299 299 298 301 302 302 304 304 305 304 305 305 306 306 306 306 306 306 307 309 310 310
301 301 304 304 303 302 301 301 301 300 300 300 299 298 298 297 297 297 296 296 296 296 296 296 296 296 298 299 300 300 301 301 301 303 304 304 304 304 304 304 302 300 300 300

GFSNGP_925_thetae_027.txt.gz
Theta_e
332 333 332 330 329 329 330 331 331 331 332 332 332 333 334 334 334 334 337 339 340 341 344 347 352 356 356 354 355 356 359 360 361 364 365 365 365 364 365 364 365 364 364 363
333 331 331 331 331 330 329 330 330 331 332 332 332 332 332 332 332 332 332 333 335 337 340 346 347 352 354 358 355 354 359 360 361 363 365 366 366 366 367 365 366 365 365 364
333 331 331 332 331 331 331 330 331 332 332 332 332 332 332 332 332 332 331 331 333 334 334 340 343 345 349 355 356 355 357 361 360 363 365 367 368 367 367 367 367 367 366 366
330 332 335 331 330 329 330 330 330 331 332 332 332 332 332 331 332 332 332 333 333 333 334 334 335 336 344 346 356 358 359 359 362 362 366 367 368 368 368 368 367 367 367 367
328 331 330 329 329 330 329 330 329 330 330 329 329 330 331 330 331 332 332 333 333 332 332 334 334 334 337 346 352 359 360 362 361 363 365 367 368 368 368 368 368 367 367 367
324 329 333 329 327 326 328 331 329 329 329 331 331 334 336 345 345 342 335 336 336 332 333 334 334 335 336 339 347 358 361 362 363 364 365 367 368 368 368 368 368 367 367 367
320 324 326 327 329 328 331 347 342 333 334 336 340 344 348 347 347 346 346 345 340 342 341 337 337 338 342 343 347 352 356 359 364 364 366 366 366 367 369 369 367 368 367 367
319 321 324 322 323 330 332 331 334 337 336 338 340 342 342 345 348 349 349 345 339 342 345 341 339 343 349 352 350 354 356 359 363 364 364 364 367 368 368 369 369 368 368 367
317 319 320 320 321 321 322 324 327 330 331 332 333 338 339 343 350 351 349 349 348 349 347 348 354 354 353 356 354 356 360 362 364 365 365 364 367 368 368 367 365 365 365 366
315 316 316 317 318 318 319 320 322 323 325 331 333 338 340 344 352 351 350 350 348 351 354 356 361 360 361 364 360 358 360 361 362 363 364 364 363 365 364 363 364 364 362 364
314 315 316 316 317 317 318 318 320 324 328 330 331 336 341 345 352 351 349 347 351 353 355 355 355 354 354 356 362 362 363 363 363 363 363 365 365 361 362 363 362 362 363 361
316 316 316 317 317 317 317 319 322 324 325 326 330 335 341 344 347 350 351 351 353 353 352 351 352 352 353 353 354 355 361 362 361 360 362 363 362 364 361 360 360 360 360 359
315 314 315 316 316 317 317 319 320 321 322 323 328 337 341 343 344 343 345 346 348 351 349 347 345 348 350 351 352 352 353 352 349 347 348 349 352 353 354 357 358 358 358 357
313 314 317 316 318 318 317 317 318 319 319 321 328 336 339 341 342 344 346 348 349 347 347 346 345 348 348 348 350 350 346 345 347 347 348 350 351 350 347 346 345 344 342 341
315 314 315 316 316 317 317 319 320 324 325 328 332 336 339 340 343 345 344 344 343 343 343 344 344 346 347 346 347 345 345 346 345 342 340 341 344 344 342 341 341 339 338 336
314 314 315 316 316 316 317 319 319 322 328 328 333 334 338 340 338 338 338 340 341 341 341 341 342 343 342 344 344 343 341 339 341 343 343 344 343 343 340 339 338 339 336 333
312 313 312 314 316 317 318 319 320 327 325 330 330 330 336 334 334 335 335 337 337 337 338 339 341 342 342 341 340 340 340 340 340 340 340 340 341 341 340 340 339 336 335 329
311 312 313 315 318 320 322 324 324 324 326 329 328 328 329 329 331 331 331 331 332 332 333 333 335 336 337 338 339 340 339 338 338 337 337 337 336 336 335 334 334 334 334 335
316 316 318 320 322 322 321 322 319 317 317 322 323 323 323 324 323 322 321 323 325 328 329 330 329 330 330 330 334 334 336 336 335 335 337 337 336 335 333 331 331 330 330 332
312 312 311 313 314 315 316 316 315 314 313 311 312 314 315 318 317 316 317 319 320 320 320 323 327 328 327 327 328 330 332 331 331 331 329 330 330 330 329 328 327 326 326 328
312 311 310 310 310 310 312 312 313 311 309 311 313 311 310 309 309 312 314 314 312 313 315 317 319 323 323 324 324 325 325 325 326 327 325 324 324 324 324 323 321 319 317 318
315 313 311 309 309 308 309 309 311 312 311 310 309 308 308 310 309 307 307 308 307 310 311 311 312 314 319 322 322 322 321 321 321 320 319 319 317 318 317 316 316 314 314 313
311 311 312 311 311 310 309 309 308 307 307 309 310 308 307 306 306 307 307 305 304 304 307 307 307 310 313 316 317 319 320 320 320 318 316 315 315 315 314 313 312 311 310 310
309 310 310 310 309 309 311 308 307 306 306 305 304 304 304 305 303 304 303 301 302 303 301 302 304 307 309 311 311 312 312 315 316 316 316 316 316 316 316 315 315 314 313 312
307 308 308 308 308 308 308 307 306 306 305 304 304 303 303 302 302 302 300 301 300 302 302 299 301 304 305 307 308 308 308 308 308 311 311 311 311 310 310 311 310 310 312 312
304 306 307 306 306 306 306 306 305 304 304 303 302 302 302 301 300 300 300 299 299 298 299 299 298 300 301 302 303 304 305 304 306 307 308 308 308 308 307 306 305 304 304 304
303 302 305 305 304 303 303 302 302 302 301 302 302 301 300 299 298 298 298 299 299 298 299 299 298 298 299 300 300 300 301 301 300 302 304 305 305 306 306 306 306 305 304 302

GFSNGP_925_thetae_030.txt.gz
Theta_e
331 333 333 330 330 330 332 333 334 333 332 336 337 337 338 339 343 343 346 348 351 352 355 357 357 358 359 358 357 358 359 364 365 365 366 365 365 365 365 363 363 364 364 364
334 333 333 334 330 330 330 330 331 332 332 334 337 339 339 340 338 339 341 342 344 346 348 353 361 360 359 359 360 359 359 361 363 364 365 367 366 366 366 366 365 365 366 365
335 334 334 336 333 331 330 330 330 333 335 335 337 338 338 337 336 336 333 334 336 341 347 350 348 359 361 359 359 361 361 362 362 363 365 366 368 367 367 367 367 367 367 367
332 334 338 334 333 332 331 330 331 332 335 338 339 339 337 335 334 334 333 337 341 335 340 338 339 344 351 359 359 359 360 361 365 365 366 367 368 368 368 368 368 368 368 368
332 334 334 334 333 332 332 333 332 332 333 333 333 333 335 332 332 332 337 339 339 335 335 336 339 341 346 349 361 362 360 362 361 366 367 368 369 369 369 370 369 369 368 369
327 332 335 333 331 330 331 333 342 334 331 332 331 331 347 349 348 348 347 348 350 345 344 340 341 337 341 350 357 361 361 362 363 362 366 367 369 370 370 370 370 370 370 369
323 327 331 330 329 329 333 344 340 340 338 336 342 348 346 343 345 347 349 349 346 345 347 347 346 341 349 346 350 359 360 361 362 365 364 366 367 370 371 371 371 370 370 370
320 325 329 324 327 335 337 331 331 334 335 337 337 338 340 341 344 347 351 349 345 347 345 345 345 343 346 353 348 349 353 361 364 365 366 367 368 370 371 370 370 370 370 370
319 322 328 322 323 322 323 325 325 327 326 329 333 335 338 342 345 353 354 353 351 352 353 353 351 357 361 359 357 354 362 363 362 367 368 365 369 370 370 370 370 370 370 369
318 319 320 319 319 319 320 320 322 321 323 330 332 332 335 341 344 351 356 354 348 352 357 365 366 366 364 365 361 360 366 367 366 369 369 368 368 369 369 369 369 369 368 368
317 317 317 317 317 318 318 318 319 320 321 327 327 328 331 338 343 346 352 355 358 359 358 359 358 358 357 358 362 364 363 365 367 367 367 369 368 365 369 367 366 367 367 366
315 317 320 321 318 317 317 318 318 319 321 324 324 328 329 339 343 344 348 349 353 356 354 356 355 355 356 357 358 361 367 366 365 364 365 365 367 366 364 363 362 360 357 357
315 314 316 317 316 317 318 319 318 319 320 322 321 323 325 335 341 341 343 346 348 353 350 350 350 351 353 354 355 357 356 355 350 352 355 367 366 367 368 352 357 355 344 339
312 313 315 316 317 317 317 319 320 319 320 319 320 322 322 333 337 342 346 346 348 348 347 347 347 350 351 353 352 347 347 348 349 349 351 350 347 346 347 346 349 344 340 336
309 310 312 314 316 317 318 318 319 319 319 320 321 328 328 334 338 341 344 344 345 346 346 346 346 346 348 350 347 345 349 348 345 343 343 345 346 346 344 342 344 342 339 336
308 309 311 313 316 317 317 317 318 318 318 319 321 326 327 331 335 339 341 341 342 342 342 343 344 345 347 346 344 342 341 341 345 346 345 345 345 344 343 341 339 340 338 333
311 313 313 316 316 317 317 317 317 317 319 321 323 327 330 333 335 337 334 335 335 335 335 339 340 341 343 342 342 342 341 341 341 341 341 341 340 340 339 339 339 338 336 333
314 314 314 315 315 317 317 318 318 321 322 324 326 327 331 330 331 327 331 330 330 330 330 331 332 332 333 340 341 340 339 339 338 338 337 336 334 333 332 332 331 331 331 331
311 315 315 315 318 318 318 317 317 316 315 315 317 317 317 317 317 317 316 316 318 320 319 329 328 328 329 334 334 335 336 333 333 333 332 332 332 331 330 328 325 323 323 325
311 310 310 311 311 313 315 314 313 312 311 311 310 309 311 313 312 311 311 311 312 312 312 314 321 327 326 328 330 331 330 330 329 327 327 327 327 326 324 322 321 319 318 317
311 310 310 309 309 308 311 311 310 309 309 310 309 308 307 307 307 308 308 309 309 309 309 312 315 319 323 324 325 325 325 325 324 323 322 322 322 321 320 318 318 317 316 315
313 312 311 310 310 308 308 306 309 310 309 308 308 309 309 307 307 306 305 305 306 308 307 308 312 315 319 320 320 320 320 320 319 320 319 318 317 317 316 315 315 313 313 312
312 311 310 310 309 309 307 306 306 306 305 306 307 307 306 305 305 305 304 304 303 304 304 304 308 311 313 314 316 317 318 318 318 318 318 318 318 317 316 316 316 314 314 312
310 309 311 309 308 308 309 307 307 306 305 304 304 303 304 304 302 302 301 301 302 301 301 302 305 307 309 310 311 311 310 313 314 314 314 313 314 314 313 312 312 311 310 309
306 308 308 308 309 309 308 307 306 304 304 304 303 303 302 301 302 300 300 300 300 301 299 300 302 304 305 306 307 307 307 307 308 311 311 310 310 309 308 307 305 305 305 305
305 306 306 306 305 304 305 304 304 302 303 303 302 301 301 299 300 300 300 300 300 300 300 299 300 301 302 302 303 303 302 301 304 306 307 307 307 308 308 307 306 305 304 303
304 304 305 304 304 303 302 302 302 301 300 301 301 300 300 299 299 299 300 300 300 300 300 300 299 300 300 300 301 301 301 301 301 302 302 303 303 304 304 305 305 304 303 302

GFSNGP_925_thetae_033.txt.gz
Theta_e
329 329 329 330 328 327 326 326 328 326 331 335 337 338 339 339 338 340 341 346 349 352 353 353 352 351 351 352 354 356 362 363 364 364 363 363 363 363 361 356 358 360 360 363
333 331 330 331 329 328 327 327 328 327 327 332 336 336 335 335 335 333 339 344 344 348 352 353 354 353 352 353 354 355 359 363 364 364 364 364 364 363 364 363 358 359 363 360
333 333 334 335 333 328 328 327 327 329 328 335 337 335 333 334 332 332 331 331 336 340 344 350 355 355 355 355 354 355 356 360 363 364 364 364 364 364 363 363 364 361 360 363
330 332 337 333 332 333 328 329 327 327 334 333 336 339 336 332 331 331 333 335 334 331 332 338 352 357 356 357 357 356 357 358 359 363 364 364 365 364 365 364 364 365 364 362
329 333 333 333 331 330 332 338 338 342 336 336 344 347 348 347 346 346 345 344 344 344 346 343 338 347 358 359 359 360 358 359 359 362 363 364 364 366 365 365 365 365 365 365
323 334 339 326 326 330 331 343 335 339 341 335 345 352 348 344 346 347 347 345 345 345 342 347 345 343 353 359 359 359 361 364 363 362 363 364 364 365 366 366 366 366 366 367
321 327 333 324 326 331 340 339 330 328 334 339 344 344 341 341 344 347 349 348 345 345 344 344 347 342 344 350 357 359 357 357 360 362 365 366 365 365 367 367 367 367 368 368
321 327 333 321 322 332 330 323 324 325 326 333 334 337 342 342 344 347 353 350 351 350 351 349 344 343 347 355 352 355 358 360 360 359 361 364 367 368 368 369 369 369 369 369
320 325 319 320 320 320 320 322 320 321 321 329 329 329 333 341 340 341 349 353 355 355 354 367 364 363 360 362 357 357 354 358 359 360 362 364 366 368 370 370 370 370 369 369
317 317 316 317 319 318 319 318 317 317 319 325 326 326 325 327 340 341 342 346 350 355 358 359 357 357 357 360 363 364 357 369 365 365 365 367 366 368 371 371 369 369 369 368
313 317 317 316 318 318 317 318 319 318 319 323 324 324 323 323 339 338 338 341 345 347 353 356 356 356 356 356 358 361 365 371 368 367 368 368 366 370 368 368 367 367 367 367
313 311 315 314 315 315 317 318 319 320 321 321 322 321 320 319 334 339 339 340 341 345 349 353 352 351 350 354 355 357 364 365 367 367 368 368 367 359 364 365 363 362 362 362
309 309 310 311 311 314 317 317 318 319 319 320 319 319 319 319 331 338 340 341 343 346 350 350 349 349 349 353 353 355 356 362 365 362 364 366 367 355 334 336 338 337 335 333
307 307 309 309 311 314 316 316 318 319 318 319 319 320 324 328 333 336 338 340 342 346 348 346 347 347 350 353 352 349 349 348 352 348 350 352 353 359 341 339 339 333 334 332
313 309 308 308 309 311 313 315 318 318 318 317 318 320 321 327 327 334 336 338 343 348 348 347 346 346 347 348 345 345 344 345 343 345 346 344 344 343 345 343 340 337 333 331
311 312 310 309 309 311 314 315 316 316 316 316 316 318 325 326 328 334 336 340 342 342 342 344 344 344 346 342 341 342 342 344 344 343 342 341 341 340 340 340 339 333 331 332
315 310 309 310 310 312 314 316 317 317 316 316 316 321 324 327 328 334 335 332 328 326 332 335 333 339 344 343 342 340 340 339 338 336 334 334 333 332 332 331 332 331 329 330
312 313 313 315 316 316 316 317 318 318 319 319 320 323 324 325 325 317 316 318 317 319 317 325 329 334 341 341 338 336 336 336 335 334 332 330 330 328 326 324 323 323 323 324
309 310 310 310 313 317 316 317 315 312 311 313 315 315 314 313 313 312 311 311 311 311 311 321 328 333 335 335 333 332 331 331 331 330 329 326 324 324 322 320 319 318 318 317
307 307 308 308 308 310 311 311 310 309 308 308 308 308 309 309 310 311 310 308 308 308 312 313 320 325 331 330 329 327 326 325 324 324 324 323 322 320 318 317 316 315 314 313
309 307 306 306 307 307 306 308 308 308 308 308 307 307 306 305 305 306 307 307 306 308 311 315 315 319 319 321 324 323 321 321 321 320 319 319 317 316 315 314 313 312 311 310
309 308 307 306 306 306 306 305 305 305 306 305 304 305 304 304 304 304 304 304 304 306 308 310 313 315 316 317 318 318 318 318 319 318 316 316 315 315 314 314 312 310 308 307
311 310 308 307 306 306 305 304 304 304 304 304 304 304 303 303 302 302 303 302 303 304 305 308 310 311 312 312 313 315 316 316 315 316 316 316 314 313 313 311 310 309 309 306
308 309 308 308 307 306 306 306 306 304 303 302 302 303 302 302 301 302 301 301 300 301 303 305 306 307 308 307 306 305 306 312 312 311 310 309 308 307 306 305 305 305 302 301
307 306 306 306 307 308 305 304 302 303 303 303 301 300 300 300 300 300 300 300 300 301 301 302 303 304 304 304 304 303 303 305 309 309 309 309 307 306 305 304 304 302 301 301
306 307 305 304 303 303 302 301 300 300 302 301 300 300 299 299 299 300 300 300 299 299 300 300 301 301 302 302 301 301 301 302 302 304 303 303 303 306 306 305 303 302 301 299
303 304 303 303 303 302 301 300 300 299 300 300 300 300 300 300 300 300 300 300 300 300 299 300 300 300 301 301 301 300 301 301 301 301 301 301 300 301 303 303 301 300 299 298

GFSNGP_925_thetae_036.txt.gz
Theta_e
315 318 322 325 326 327 323 322 324 323 324 322 324 331 329 328 328 337 348 349 349 350 349 348 348 348 351 352 356 358 358 358 358 357 358 358 358 356 353 355 356 357 352 351
315 326 328 328 328 328 324 324 322 321 323 321 328 330 332 333 336 339 348 351 351 351 350 350 349 348 350 351 354 358 359 359 359 359 358 358 359 359 357 356 354 355 357 357
320 325 330 333 329 329 324 323 324 324 323 331 334 343 342 328 330 335 344 350 352 351 350 350 350 349 349 350 352 356 358 359 360 360 361 360 360 360 360 360 358 355 354 357
319 324 335 327 324 327 335 333 331 337 336 341 348 347 346 346 338 340 340 337 334 342 347 351 351 350 349 350 351 352 355 359 360 361 361 362 361 361 361 361 362 361 358 356
321 327 329 327 324 324 328 332 326 330 343 347 345 346 346 343 347 344 341 340 340 341 338 348 352 352 351 350 351 352 352 354 359 361 362 362 362 362 362 362 361 361 362 360
315 329 335 325 323 327 329 332 324 330 341 343 338 351 345 342 349 351 344 340 338 338 344 342 343 353 353 352 352 352 352 354 354 359 361 362 362 362 363 362 362 362 362 362
321 331 327 322 321 324 333 331 323 325 328 333 343 341 340 340 342 349 350 348 349 353 348 341 341 345 353 354 355 355 354 354 355 356 358 361 362 362 362 363 363 363 363 363
324 328 332 321 321 321 319 319 318 322 325 325 324 325 334 339 339 341 345 349 355 359 358 358 351 350 357 356 356 356 357 358 358 358 358 359 361 361 362 363 364 364 364 365
319 323 318 321 320 317 317 317 320 318 320 322 322 321 321 336 336 336 338 342 346 352 354 356 356 357 356 357 361 358 357 358 359 361 363 363 362 362 362 364 364 364 365 365
314 316 313 319 317 315 314 316 319 318 316 320 320 319 318 320 335 335 335 338 342 345 352 352 353 354 355 355 357 361 361 358 359 358 360 362 363 364 365 365 366 366 367 367
311 310 312 315 313 312 312 314 317 318 318 320 317 316 316 316 321 334 335 337 340 343 347 350 350 350 349 350 352 355 359 365 367 364 363 363 364 364 367 367 367 367 367 367
310 308 307 308 310 310 311 312 317 317 317 317 316 315 320 320 322 333 335 337 339 342 347 349 349 348 348 349 352 353 355 361 366 367 366 365 362 353 359 367 368 368 367 366
310 309 308 307 308 308 309 312 316 316 316 317 317 318 321 324 329 332 333 333 335 338 344 347 346 347 349 349 351 350 351 348 360 365 367 365 353 341 331 334 343 343 343 343
312 311 311 310 309 309 310 313 314 315 317 316 316 317 321 323 324 328 331 332 337 341 344 346 345 346 348 349 350 347 346 349 354 358 360 363 353 340 336 333 331 332 334 334
313 312 311 310 310 309 308 310 314 317 316 316 316 315 320 320 321 326 327 333 339 343 345 346 345 344 345 345 344 343 343 344 344 344 344 351 344 338 338 333 330 330 331 333
312 312 309 311 311 309 308 309 311 313 314 315 314 315 319 321 322 327 332 332 331 327 331 337 336 338 344 341 341 343 341 342 342 339 337 336 338 337 335 331 330 328 329 331
310 311 312 311 309 308 309 310 311 314 316 317 319 320 321 323 324 322 322 319 320 321 322 325 329 336 343 341 340 339 337 336 335 333 331 330 329 329 329 329 327 324 322 325
307 308 309 311 316 311 313 315 313 313 314 316 316 317 318 319 313 313 314 316 317 320 321 323 330 336 341 339 338 336 333 331 330 329 327 325 324 324 323 321 320 319 318 320
306 307 307 307 309 311 310 310 309 309 309 310 311 312 312 310 310 309 310 311 310 312 316 322 330 335 333 334 335 332 330 328 325 323 322 321 320 319 318 316 315 314 314 315
306 306 305 305 305 305 306 307 307 307 306 306 306 306 306 306 309 308 308 306 305 308 314 319 329 329 328 327 327 327 325 324 323 320 319 317 315 314 313 313 312 312 311 310
307 306 305 305 304 304 304 305 305 305 304 304 304 304 304 304 304 306 307 307 305 308 314 315 318 319 322 321 321 322 321 320 318 317 315 314 312 311 310 309 308 308 308 306
307 306 305 305 304 303 303 302 302 303 303 302 302 303 302 302 303 303 303 303 305 308 312 313 313 317 317 316 316 317 316 315 315 314 314 313 312 311 309 307 306 304 303 302
308 307 306 305 305 304 304 303 302 301 300 301 300 300 301 302 301 301 301 302 303 306 308 309 310 315 315 316 315 314 314 315 314 312 312 313 311 312 310 307 303 300 299 299
309 308 308 307 307 306 305 305 304 303 302 303 302 300 299 298 299 301 301 302 301 303 305 306 307 307 306 304 305 312 312 312 310 308 307 307 306 305 304 302 301 300 300 299
305 306 307 307 305 304 303 300 300 301 301 300 300 300 300 300 300 300 300 301 302 302 302 303 303 303 302 302 302 303 304 304 304 306 306 305 305 304 303 302 301 300 299 297
304 303 301 301 302 300 299 299 299 300 300 299 299 299 300 300 300 300 300 300 300 300 301 302 302 302 301 301 302 302 301 301 301 301 302 304 304 303 302 301 300 299 298 297
301 300 300 300 301 300 299 299 299 299 299 299 299 299 299 299 299 299 299 299 299 300 300 300 301 301 301 301 300 300 300 300 300 299 300 301 302 301 300 299 298 298 297 297

GFSNGP_925_thetae_039.txt.gz
Theta_e
311 312 312 314 316 319 319 321 322 321 318 320 320 321 327 328 324 323 338 346 346 345 343 345 346 346 349 352 354 353 353 354 355 355 355 354 353 352 352 353 352 351 353 353
311 313 313 315 321 325 325 321 320 319 320 319 327 340 343 331 325 331 340 343 344 345 344 345 345 346 347 352 355 355 355 355 355 355 355 355 355 354 353 353 353 353 353 353
313 318 323 328 325 328 328 327 326 321 326 327 344 348 348 348 331 329 338 342 343 345 345 345 346 346 347 350 354 356 355 355 356 355 355 355 355 355 354 353 352 353 353 353
311 318 335 323 322 324 329 327 327 332 336 342 348 347 348 346 349 340 338 341 344 346 346 346 346 346 346 350 351 355 356 356 356 356 355 355 356 357 357 356 354 353 353 353
314 323 327 325 323 324 324 328 324 329 336 347 349 349 349 343 349 345 338 337 341 346 347 347 347 347 347 349 350 353 355 356 357 357 357 358 357 357 357 358 358 357 356 355
311 331 334 325 323 320 323 328 321 326 326 342 347 356 349 340 343 350 352 345 337 342 348 349 348 347 347 348 348 350 353 355 356 357 358 358 359 359 359 359 359 359 359 360
316 332 327 321 321 319 325 323 319 322 324 324 335 339 339 335 337 342 348 355 353 344 339 339 349 348 348 348 348 349 350 351 354 357 358 359 359 359 360 360 360 360 360 360
326 329 331 319 320 321 317 318 318 320 322 322 321 322 331 335 335 338 341 346 352 353 353 353 347 350 350 353 352 350 350 351 351 353 357 358 360 361 360 361 361 361 360 361
319 321 318 320 320 314 313 313 314 319 318 321 320 322 323 326 333 336 338 341 346 350 350 352 354 355 354 355 360 354 354 354 352 352 354 355 358 359 360 360 360 361 361 361
313 312 312 317 315 312 312 312 312 315 318 318 319 321 325 325 333 334 336 339 342 347 347 346 348 349 350 352 356 358 358 358 356 357 356 355 356 358 358 359 360 361 361 362
311 310 312 313 311 310 311 311 312 311 316 318 321 325 328 328 330 330 331 334 337 341 345 345 347 347 349 349 349 354 357 359 364 361 357 359 360 360 360 360 361 361 362 363
312 309 310 310 310 310 311 312 311 311 315 316 318 321 324 325 325 327 328 328 333 336 340 344 345 346 348 349 349 350 353 354 360 364 361 356 350 347 354 362 364 364 365 365
311 310 310 310 309 310 310 310 312 312 315 317 316 317 322 319 320 321 321 326 332 336 340 344 344 346 348 349 350 347 350 350 352 362 362 353 346 344 332 336 357 362 362 360
311 313 314 312 312 310 310 310 310 312 314 316 315 315 320 318 318 320 323 327 330 339 343 344 343 343 345 343 345 344 344 348 351 357 362 355 343 338 336 335 331 331 331 332
310 310 311 311 309 309 310 309 310 315 316 316 315 314 315 318 319 320 327 325 329 336 338 343 341 338 343 341 343 343 343 343 346 350 354 347 338 334 331 330 330 330 332 333
308 308 309 311 311 311 311 310 309 309 312 315 316 315 319 320 322 326 324 323 326 324 327 330 336 335 340 340 342 340 340 339 342 344 342 340 336 332 331 329 328 328 330 331
308 308 308 311 315 308 309 307 307 308 315 316 317 319 319 319 320 322 322 324 323 323 320 323 330 334 340 339 341 338 337 335 336 336 333 333 332 330 328 325 323 321 322 325
307 306 306 306 309 311 311 310 311 311 312 314 314 314 315 315 314 312 314 314 316 319 322 321 326 333 340 338 339 338 334 331 329 326 326 325 324 324 322 320 319 317 316 317
305 305 305 305 305 306 306 306 306 306 306 307 308 309 310 310 310 310 310 310 310 312 319 322 329 332 337 335 334 332 332 328 325 322 321 322 320 318 317 315 314 313 313 313
305 304 304 304 303 303 304 304 303 303 304 304 304 304 304 305 305 307 308 306 305 307 315 318 325 328 330 330 329 327 323 323 320 317 317 315 314 313 312 312 311 310 310 310
305 305 304 303 302 302 302 301 301 301 301 300 302 302 302 302 303 303 303 307 306 310 314 315 318 322 326 324 323 321 318 317 316 315 313 311 310 309 308 307 307 306 304 304
305 305 305 305 303 302 301 300 300 300 300 300 299 299 299 301 301 302 302 302 303 307 309 311 315 317 318 318 317 315 314 314 312 310 309 308 306 305 304 303 302 301 300 299
306 305 305 305 304 304 303 301 301 301 300 300 300 298 298 298 299 300 302 302 303 305 305 305 309 314 315 315 314 313 313 313 312 311 310 308 307 304 302 299 298 298 298 297
307 306 306 307 306 305 304 304 304 302 301 299 299 299 298 298 298 299 301 302 302 303 303 302 305 310 313 312 311 310 309 308 308 309 308 303 302 301 300 299 298 297 296 295
303 303 304 305 304 303 301 299 300 302 302 300 300 300 299 300 299 299 299 299 301 302 302 301 301 301 302 303 303 304 305 306 307 306 305 304 303 301 300 299 298 297 295 293
299 299 300 303 302 299 298 299 299 299 298 298 299 299 300 300 299 299 299 300 300 300 300 302 302 301 301 300 300 300 302 304 304 303 302 302 301 300 299 298 297 296 296 294
299 298 299 299 299 298 298 298 298 297 298 298 298 298 299 299 298 299 299 299 300 301 301 301 301 301 301 302 301 301 302 303 304 303 302 301 300 299 298 298 297 296 295 295

GFSNGP_925_thetae_042.txt.gz
Theta_e
312 312 312 313 313 314 316 319 328 325 325 325 323 322 318 319 320 321 328 340 343 344 344 344 345 345 347 347 347 347 348 350 349 350 350 350 350 351 350 350 350 350 350 350
312 311 311 312 314 315 316 319 318 319 319 326 319 331 345 345 343 331 326 328 341 344 344 344 344 345 347 348 348 348 348 350 351 350 350 350 350 350 351 351 351 352 352 352
310 312 314 317 318 325 328 328 327 321 326 332 336 349 347 347 348 349 336 324 329 343 344 343 344 345 346 349 350 350 349 350 351 352 352 351 351 350 350 351 351 352 352 352
312 311 328 324 323 326 325 322 326 328 328 341 341 347 345 341 345 347 347 336 334 343 343 342 344 345 345 349 352 352 351 352 352 353 353 353 353 353 352 351 351 352 352 352
312 315 327 325 322 323 325 325 320 324 326 330 342 344 347 339 339 345 351 338 338 341 342 342 344 345 345 349 353 354 353 353 353 353 353 353 353 354 353 353 352 351 351 352
315 320 338 324 320 320 321 328 319 320 324 325 342 351 348 337 339 344 350 348 340 342 343 343 344 344 347 349 351 354 354 354 354 354 354 353 354 354 354 355 354 354 353 353
316 321 328 320 321 317 328 324 317 320 321 322 329 329 328 337 340 343 348 351 345 345 344 344 345 344 347 348 349 350 353 354 354 355 355 355 355 354 355 355 356 357 357 356
322 331 334 320 317 320 316 314 314 316 319 321 326 332 330 334 337 339 344 347 350 350 349 343 345 345 346 347 348 348 350 353 354 355 356 356 356 357 357 357 357 358 358 358
316 320 313 317 314 312 312 313 314 313 317 322 327 330 330 331 331 333 336 339 345 345 347 348 349 347 350 354 351 348 348 350 351 354 355 356 357 358 358 358 359 358 359 359
314 312 313 315 313 311 311 313 313 312 314 318 325 327 327 325 327 328 329 334 337 343 343 344 347 350 352 354 355 352 352 349 349 350 352 355 356 358 358 359 359 359 359 359
312 311 312 314 311 311 311 312 313 313 313 316 319 322 322 320 321 322 324 328 335 337 340 341 345 347 348 348 353 356 358 359 354 353 351 351 353 355 357 358 359 358 359 360
314 311 311 311 311 311 312 311 312 313 313 313 316 319 321 319 318 319 320 324 332 338 338 340 343 346 348 348 346 347 352 354 360 357 354 354 351 347 352 355 357 358 359 360
311 311 312 312 312 312 312 312 312 312 312 312 315 316 320 318 318 318 321 322 325 333 338 341 342 343 343 343 345 346 347 348 349 359 353 347 342 342 334 338 358 361 362 364
308 309 310 311 311 310 310 311 311 310 311 311 314 315 315 317 319 320 322 321 318 324 330 336 337 336 340 340 342 342 343 346 347 358 353 345 341 338 336 336 332 330 336 340
308 307 308 309 310 310 308 309 310 311 313 314 314 316 315 318 319 321 322 319 318 317 321 327 330 333 337 339 340 341 342 343 346 353 353 344 339 336 334 331 329 329 330 331
308 307 308 310 310 309 309 310 310 309 310 311 311 313 316 319 319 319 320 320 319 319 320 322 326 328 332 337 338 340 339 342 344 343 339 336 334 332 331 331 329 329 329 330
308 307 307 308 308 309 308 310 309 309 311 315 316 315 315 315 316 314 314 315 316 317 319 319 321 327 331 336 337 338 338 338 340 339 335 333 332 330 327 326 324 322 324 328
304 305 305 305 306 306 306 306 306 306 308 308 309 309 310 310 310 310 310 311 313 315 317 317 320 324 331 335 336 335 335 333 332 331 331 329 326 324 323 320 318 316 315 319
304 303 303 304 303 303 303 303 302 302 303 304 304 304 304 305 305 306 308 309 308 308 312 313 317 324 331 334 334 333 332 328 327 326 325 322 321 319 317 316 315 314 313 312
303 302 302 302 302 302 302 301 301 301 300 300 301 302 302 302 302 303 303 307 304 304 307 311 314 320 329 331 332 330 326 324 322 319 319 316 314 313 312 311 310 308 308 308
304 304 303 302 301 300 300 300 300 301 300 299 299 300 300 300 300 302 303 303 303 304 308 311 315 320 324 326 328 325 322 318 316 315 313 311 309 307 306 305 305 304 305 306
304 303 304 304 303 301 300 300 300 300 300 300 299 299 299 299 300 301 302 302 302 303 303 305 310 317 320 320 320 319 317 315 312 310 308 307 305 303 302 301 300 299 298 299
304 304 304 304 303 303 303 303 300 299 299 299 299 299 299 299 299 299 301 300 302 302 302 303 305 314 315 315 314 313 311 310 308 306 305 303 300 299 298 297 297 296 295 295
305 305 305 305 305 304 302 301 302 302 299 299 299 299 299 299 299 299 299 299 300 301 302 302 302 307 309 310 310 310 310 308 304 302 301 300 299 298 297 296 294 293 293 293
303 303 304 303 303 302 297 297 299 302 302 300 300 299 299 299 299 299 299 299 299 299 300 302 300 300 301 302 304 306 305 304 303 302 301 301 301 300 298 296 294 293 293 293
298 298 297 299 298 297 298 298 297 297 297 298 298 299 299 299 299 298 299 300 299 298 299 300 301 300 300 301 301 302 304 304 303 302 302 300 299 299 298 297 296 295 295 294
297 298 297 297 297 297 297 297 297 297 297 297 297 298 299 299 299 299 299 299 300 299 299 298 299 300 301 302 301 300 300 300 300 300 299 298 297 296 296 295 295 294 294 294

GFSNGP_925_thetae_045.txt.gz
Theta_e
310 310 310 312 313 315 318 323 332 333 335 332 333 335 333 332 330 330 330 338 348 348 349 351 351 350 350 350 349 349 350 350 350 350 350 350 351 351 350 350 348 347 349 350
310 307 310 314 314 315 316 318 323 326 331 333 334 333 331 334 342 344 344 337 340 347 350 351 350 350 349 350 350 350 351 351 351 351 351 351 352 352 352 351 351 352 353 353
309 308 313 317 315 316 317 321 322 326 329 333 338 348 348 348 348 349 349 351 348 338 350 350 349 350 350 350 350 350 351 352 352 352 352 352 353 353 353 353 352 353 353 353
310 310 320 318 324 318 327 327 328 331 333 336 344 350 348 343 344 346 348 349 351 347 340 348 347 348 349 350 351 351 351 352 353 353 353 353 353 354 354 355 355 354 354 354
313 317 318 328 326 325 331 327 324 328 332 338 346 352 351 340 336 342 345 346 352 350 333 345 347 349 350 352 352 352 352 352 353 354 354 354 354 354 353 353 354 355 355 356
312 318 327 327 322 322 324 333 320 324 327 338 346 356 349 334 334 343 347 352 350 343 335 346 348 348 351 353 354 354 353 353 354 355 355 356 356 356 355 354 355 354 355 355
312 314 314 319 321 320 335 329 317 319 322 337 340 336 333 333 334 339 343 350 348 344 348 348 348 349 352 354 356 354 354 354 355 356 356 356 357 357 357 357 356 356 356 356
313 315 317 315 320 325 319 316 317 318 319 331 328 325 325 326 328 333 342 346 351 350 349 349 349 350 353 355 355 356 357 357 357 357 356 357 357 357 357 358 358 358 359 359
313 315 309 313 315 315 315 315 315 315 316 322 323 322 322 321 322 326 335 345 348 352 352 351 350 351 353 353 354 356 357 358 358 358 358 358 358 358 358 359 358 359 359 360
312 312 313 314 314 314 313 313 314 315 314 316 321 321 320 321 321 321 325 338 345 348 350 352 353 355 356 357 353 354 356 357 358 359 359 358 359 359 359 360 360 360 360 361
313 312 312 313 313 314 314 313 313 313 315 314 316 319 321 321 321 323 322 323 338 344 347 348 350 349 349 352 358 355 354 355 356 357 357 359 359 358 360 360 360 361 361 362
313 311 312 313 314 314 313 313 312 313 313 314 314 317 319 321 321 322 322 321 324 334 344 344 344 344 344 344 348 356 361 358 354 353 354 357 349 346 355 358 358 359 360 361
310 309 311 311 311 311 312 312 311 312 312 313 314 316 317 319 319 321 321 321 320 323 328 339 340 338 338 342 343 347 350 350 358 355 354 352 349 348 340 343 352 356 358 358
308 308 310 312 313 312 311 311 311 311 313 314 313 313 316 319 319 320 321 320 320 321 322 326 333 334 333 339 343 345 346 346 336 355 352 349 348 351 347 345 344 338 352 359
308 307 308 309 312 311 311 311 311 311 311 312 312 315 317 321 321 320 319 318 319 319 320 321 323 326 327 333 341 341 344 348 353 350 347 348 348 348 348 343 338 329 330 333
306 306 307 307 308 308 308 310 312 312 312 314 316 315 316 316 318 317 315 315 317 319 318 319 320 320 323 328 338 340 341 339 343 340 340 343 344 343 342 341 338 337 334 330
306 306 306 306 306 306 306 306 306 308 309 309 310 310 309 310 311 312 313 313 315 317 318 318 314 316 318 323 332 339 339 338 339 339 337 336 336 336 334 330 326 325 327 329
305 305 305 305 305 305 304 304 303 304 305 306 306 306 306 306 307 307 308 311 311 312 315 312 313 314 319 323 330 337 336 336 336 336 335 333 331 327 324 322 321 319 317 322
304 304 303 303 303 303 303 303 303 302 303 303 304 303 303 303 304 305 305 307 305 306 307 309 311 316 319 324 328 334 334 332 331 328 327 324 325 322 320 318 316 315 314 314
305 304 304 303 302 302 302 302 303 302 301 302 302 302 302 302 303 303 304 304 303 304 304 307 309 313 317 322 327 330 331 330 327 324 323 322 319 317 313 313 312 311 310 309
307 306 306 305 304 303 302 302 301 302 302 301 301 301 301 301 301 301 302 303 302 303 303 304 306 311 313 319 325 327 326 324 321 318 316 313 311 309 308 307 306 306 305 305
307 307 306 306 306 306 305 304 302 302 301 302 301 300 300 300 300 301 301 301 301 302 303 303 304 309 315 319 322 323 322 320 317 314 311 309 308 305 304 304 303 303 302 302
308 307 307 307 307 307 307 305 304 302 302 301 301 301 301 299 299 300 301 300 301 301 303 302 302 309 316 317 319 317 315 313 310 308 306 304 302 301 300 299 299 298 297 297
307 307 307 308 307 306 303 302 302 304 302 301 301 301 301 301 300 299 299 300 300 300 301 302 301 303 309 311 310 307 305 303 301 300 299 298 297 297 296 295 295 294 294 293
305 303 303 305 304 301 301 300 301 302 303 303 301 301 301 301 301 301 300 299 299 300 299 300 300 300 301 304 303 302 302 301 300 300 299 297 296 295 293 293 293 292 292 292
302 301 301 302 300 300 300 300 300 300 300 300 300 301 301 301 301 301 301 299 298 299 298 298 300 300 300 300 300 301 301 300 299 298 297 296 295 295 295 294 294 294 294 293
300 299 301 300 300 300 299 299 300 300 300 300 300 300 301 301 300 301 300 301 299 298 298 297 298 300 301 301 300 299 299 299 298 298 297 296 295 294 294 294 294 295 294 294

GFSNGP_925_thetae_048.txt.gz
Theta_e
310 310 310 310 309 314 320 323 327 327 329 330 334 332 332 333 333 333 334 338 345 347 350 355 355 356 355 352 352 351 352 351 353 354 353 353 354 354 354 355 356 356 355 355
311 310 310 309 308 309 312 317 321 323 326 327 332 334 333 332 334 335 339 338 336 343 347 351 352 356 357 356 354 353 355 354 354 356 355 355 355 356 356 356 356 357 355 355
311 309 308 309 309 311 311 315 319 323 325 329 334 336 337 337 337 342 344 345 347 344 343 346 349 353 355 357 355 354 356 356 356 357 358 357 357 358 357 357 357 357 357 356
312 309 312 310 310 311 313 314 318 321 324 327 335 338 349 348 348 349 348 349 349 349 348 342 345 348 352 353 356 356 358 358 358 359 359 359 359 359 359 358 358 358 357 357
314 312 311 311 313 318 314 316 318 324 325 326 331 338 351 347 346 347 349 350 351 350 349 349 343 345 350 352 355 357 358 359 359 359 359 359 359 359 359 359 359 358 358 358
313 313 314 315 311 310 321 325 328 330 332 330 334 343 344 343 342 343 346 348 350 352 354 352 351 344 348 352 354 358 358 359 359 360 360 360 360 360 360 359 359 359 359 359
313 313 312 310 310 310 326 331 325 326 330 341 341 340 334 331 334 336 341 346 351 353 354 352 349 344 352 354 355 357 356 356 358 359 360 360 361 361 360 359 358 359 359 359
313 314 314 311 310 318 325 319 318 319 326 328 325 324 323 324 324 328 336 349 354 351 347 345 342 349 357 358 356 357 357 357 359 360 359 359 361 362 361 360 360 361 360 360
313 315 312 307 308 316 316 318 317 318 322 321 320 321 321 322 321 322 326 339 353 354 351 349 350 350 355 358 357 357 358 360 360 360 360 360 362 363 362 362 361 361 361 360
310 311 307 311 312 315 316 315 315 316 316 319 321 321 321 322 323 322 323 325 342 352 357 357 353 353 354 357 359 359 360 361 361 362 361 360 362 362 361 361 361 360 360 360
309 307 309 312 311 315 314 314 314 315 316 316 319 321 320 323 324 324 323 324 327 340 349 350 351 353 358 359 358 360 361 361 362 362 361 362 362 357 361 360 360 361 361 361
312 309 309 309 312 313 314 313 313 314 315 317 318 319 321 323 324 324 324 324 326 328 337 343 344 347 349 354 360 356 358 359 360 360 362 362 362 354 353 348 356 360 360 362
309 309 311 313 311 311 313 314 313 314 316 315 315 317 320 323 323 322 322 323 324 326 329 336 337 338 343 350 354 360 361 360 357 357 359 357 353 353 354 354 353 359 360 361
307 308 309 309 310 309 312 312 312 312 312 314 318 319 320 321 321 321 319 320 321 323 324 328 329 331 335 339 349 352 354 360 359 357 355 352 341 337 338 340 352 357 355 358
307 307 308 307 307 308 308 310 312 314 314 316 314 316 317 319 319 320 319 319 320 321 323 322 323 325 330 334 338 348 351 349 349 348 346 345 335 334 334 338 353 337 336 345
307 306 307 307 306 306 306 306 307 308 310 310 311 311 312 315 316 316 317 318 319 320 321 319 320 321 326 333 336 344 346 343 346 349 349 351 353 350 351 353 344 338 336 334
306 307 306 306 306 306 306 306 306 306 307 307 308 308 308 310 312 313 314 315 315 316 318 316 317 317 323 329 334 337 345 344 341 340 344 346 351 352 352 345 341 332 330 335
306 306 305 305 305 305 305 305 304 305 305 305 306 307 307 307 308 308 309 310 311 311 311 313 314 316 322 325 330 336 340 342 343 341 337 336 336 335 331 330 326 326 325 327
306 306 305 305 304 304 304 304 304 304 303 304 304 305 304 305 305 306 308 306 307 307 308 310 310 315 317 321 325 335 335 339 338 337 333 329 328 326 325 324 323 321 323 325
308 306 306 306 305 305 305 304 304 303 303 302 303 302 302 303 304 305 306 305 305 305 306 307 309 313 316 319 322 331 333 333 335 334 332 329 328 323 319 319 318 317 316 318
309 308 307 306 306 306 305 304 304 304 303 303 302 301 301 302 303 303 303 303 304 303 305 305 307 310 313 315 321 329 328 327 326 323 323 321 318 316 315 313 312 312 311 310
308 308 307 307 306 305 305 304 304 303 303 303 302 302 302 301 301 302 302 302 302 302 304 305 305 307 313 315 321 326 328 325 323 317 315 315 312 310 308 306 305 305 304 304
307 306 306 306 304 305 303 303 304 304 304 303 303 302 302 301 301 301 301 300 301 301 303 303 305 312 315 317 318 318 315 312 310 308 307 305 304 303 302 300 299 299 298 298
306 305 305 305 304 303 303 303 303 304 304 303 303 302 302 302 302 300 299 299 300 300 302 302 304 304 305 304 303 303 302 302 303 300 298 297 297 296 297 296 296 295 295 294
305 304 304 304 303 302 302 302 302 302 302 303 303 303 302 302 302 301 299 299 299 300 301 301 301 301 301 300 300 299 298 297 297 296 296 295 295 294 293 293 293 293 293 293
305 303 303 303 302 302 302 301 302 302 302 302 302 302 302 302 302 302 301 299 299 300 301 300 300 299 299 299 298 298 297 296 296 295 295 295 294 294 294 294 294 294 293 293
303 301 303 302 302 301 301 301 302 302 301 302 302 302 302 302 302 301 301 301 300 299 299 300 299 298 297 297 296 295 295 295 295 295 295 294 294 294 294 294 293 293 294 294

GFSNGP_925_thetae_051.txt.gz
Theta_e
314 313 313 313 314 315 317 319 322 326 329 332 333 334 333 333 334 335 335 340 344 348 355 359 356 358 357 354 353 351 352 352 355 357 355 355 354 356 357 358 358 359 359 358
317 314 312 312 312 313 312 313 319 323 326 327 328 329 332 334 334 335 336 337 339 344 347 354 358 359 359 357 355 353 354 353 353 356 356 356 355 357 358 359 360 360 360 360
317 315 313 313 313 312 312 312 312 315 320 322 324 327 329 333 335 334 336 337 340 338 344 346 349 356 357 359 356 356 357 355 356 358 358 358 358 359 360 360 361 362 361 361
319 314 316 313 312 311 311 312 313 313 314 317 321 324 327 336 347 349 347 344 345 346 344 342 345 348 353 356 359 359 358 361 357 360 361 360 361 361 361 361 361 362 363 362
320 317 313 311 311 310 317 316 317 319 319 316 318 321 325 330 348 348 349 349 349 348 348 347 344 344 351 354 361 360 362 361 361 361 362 363 363 363 363 363 363 363 363 363
317 316 316 313 312 315 314 319 315 318 320 318 317 321 326 344 349 348 347 347 349 350 350 351 350 347 346 353 357 362 362 362 362 362 363 364 364 364 365 364 364 362 363 363
320 317 315 312 312 312 315 316 319 324 323 318 321 324 328 339 341 341 345 348 349 352 352 353 353 351 350 351 357 359 361 362 364 363 365 365 365 365 366 365 362 364 363 363
316 317 318 314 313 314 315 313 310 321 322 325 331 336 333 331 334 336 338 340 346 357 357 356 355 357 357 355 355 358 361 362 364 365 364 363 366 366 366 366 365 366 365 365
317 316 315 313 311 311 308 311 312 322 329 332 332 331 329 328 329 331 330 335 339 354 358 350 351 356 360 353 359 360 361 362 363 365 365 363 366 367 366 366 363 363 364 362
310 312 312 311 308 309 310 312 316 317 321 324 326 325 325 325 324 326 326 327 331 344 361 360 359 352 352 363 360 363 364 363 364 365 366 364 364 365 363 362 363 360 360 358
310 308 306 309 310 309 312 314 316 316 318 320 322 324 324 325 324 323 324 325 327 333 342 346 351 356 360 360 361 362 364 365 364 363 363 364 365 363 363 357 358 360 355 352
311 306 309 308 308 311 314 314 315 318 317 316 319 322 324 325 323 322 323 324 325 328 332 333 335 337 341 354 362 362 364 363 364 361 363 364 356 352 356 353 354 355 356 357
307 307 306 307 306 309 314 314 314 314 315 319 321 322 324 324 322 321 321 323 325 326 327 329 330 333 338 345 357 361 363 364 362 362 363 364 362 359 356 351 353 356 358 359
308 308 306 306 307 308 308 310 312 313 314 314 316 317 319 320 322 322 322 322 323 323 323 324 325 328 332 340 347 360 360 361 361 363 363 364 364 362 360 358 353 350 353 353
307 308 307 306 306 306 307 307 308 309 310 311 313 313 315 318 318 320 321 321 322 322 321 322 322 325 328 335 340 352 359 360 360 361 362 360 357 353 349 348 343 342 341 347
307 307 307 307 307 307 306 306 306 308 308 309 310 310 311 313 314 316 316 318 319 318 318 321 319 320 325 330 338 342 347 349 351 350 348 348 347 347 344 344 343 344 340 338
308 308 307 307 307 307 306 306 306 307 307 307 307 307 308 308 309 311 312 313 314 315 313 314 314 317 322 326 333 341 345 345 347 351 351 348 343 344 351 348 346 341 338 340
308 308 307 307 306 307 307 306 305 305 306 306 305 305 306 308 308 308 308 309 309 311 312 312 311 315 320 321 331 339 342 343 340 340 339 341 343 345 343 339 335 334 334 337
308 307 307 307 306 306 306 306 305 304 304 303 303 304 304 305 306 306 307 306 307 307 307 309 309 313 317 320 326 334 340 340 338 334 331 331 334 334 332 332 330 330 331 333
309 308 307 307 306 306 306 305 305 305 304 304 303 303 303 304 304 304 304 305 304 304 306 307 309 311 313 319 323 327 335 338 337 335 334 330 324 322 322 323 323 324 325 325
310 309 308 308 306 306 305 305 304 305 305 304 304 303 303 303 303 303 303 303 303 303 305 307 308 310 312 315 319 330 332 334 332 332 329 326 322 317 315 315 314 314 315 317
308 308 308 306 306 305 305 305 305 304 305 304 304 304 303 302 302 302 302 301 302 302 304 306 309 311 314 317 320 328 329 326 324 321 320 318 317 314 310 309 308 308 308 309
308 307 307 307 305 305 305 305 305 305 304 304 304 304 304 304 302 300 301 301 302 302 304 304 304 306 311 309 310 311 309 310 312 311 309 308 305 305 303 302 301 300 299 299
307 307 306 306 305 305 305 304 304 305 306 305 305 304 304 304 303 300 300 301 301 301 301 301 301 300 300 299 299 299 300 300 300 299 298 299 299 298 298 297 297 297 298 296
306 306 306 306 305 304 304 304 304 304 305 305 305 304 304 303 303 301 300 300 300 300 299 299 299 298 298 297 297 296 296 296 297 297 296 296 295 295 294 294 294 294 294 294
307 305 305 304 304 304 303 303 304 303 304 304 304 304 304 303 302 303 301 300 300 300 299 298 298 297 297 297 297 296 296 296 295 295 296 296 296 296 295 295 295 294 294 294
306 302 305 305 304 303 302 303 303 303 302 304 304 304 304 304 302 302 302 302 301 301 301 301 300 299 299 299 298 297 296 295 295 295 295 295 294 294 294 294 294 294 294 294

GFSNGP_925_thetae_054.txt.gz
Theta_e
315 315 315 316 316 316 316 316 322 323 325 329 330 331 334 336 337 339 340 339 344 347 353 360 357 356 355 355 354 354 355 357 358 359 357 355 354 356 352 355 358 359 359 360
316 315 316 316 315 315 316 315 316 318 321 323 326 327 331 333 334 334 335 340 343 341 359 358 360 359 357 356 355 354 354 356 357 358 358 357 355 356 357 356 358 359 361 361
317 314 316 317 317 315 315 316 316 316 319 320 320 322 326 327 327 329 332 333 343 346 348 353 357 360 359 357 356 356 355 355 356 358 359 358 358 356 358 358 358 360 361 362
320 317 322 317 316 316 314 315 315 315 316 317 318 318 319 321 323 326 331 334 354 343 349 350 348 345 360 359 358 358 357 358 356 358 359 360 359 359 357 359 359 360 362 362
321 319 316 314 315 315 317 315 314 316 317 317 316 317 319 320 321 324 328 334 350 348 349 351 352 351 357 361 360 359 359 358 358 357 359 360 359 359 359 360 361 361 362 363
320 319 317 314 313 314 314 316 314 314 314 315 316 318 321 321 320 327 347 347 348 348 349 349 350 351 352 358 363 360 359 360 361 358 360 360 360 360 360 361 362 362 363 363
321 320 315 313 313 314 315 314 317 317 318 318 319 323 326 326 322 339 343 344 347 348 351 352 352 354 355 354 358 363 359 360 361 361 360 363 362 362 363 363 363 364 363 363
321 320 319 316 316 317 316 316 315 314 314 316 316 319 324 326 332 338 340 340 343 347 350 355 358 355 356 359 355 358 363 361 365 364 362 364 365 366 365 365 366 365 366 366
315 318 314 313 314 313 313 313 313 313 313 315 317 320 321 332 335 335 333 334 337 344 352 363 360 363 358 359 359 359 363 363 364 365 365 364 366 367 367 367 367 367 367 367
311 312 311 311 309 308 309 310 309 310 312 315 317 320 330 329 328 327 327 328 329 337 344 344 344 350 363 360 360 358 364 366 364 367 367 365 367 367 368 368 368 367 366 366
310 309 307 309 308 308 309 310 310 311 315 317 319 326 325 325 324 324 325 326 328 332 333 334 337 345 350 352 361 357 366 366 365 366 367 367 365 367 367 366 367 366 365 364
310 307 305 306 307 305 307 312 313 315 317 317 319 324 322 322 322 323 324 325 324 325 326 326 328 336 341 345 351 367 366 366 366 366 366 367 365 358 365 367 363 365 363 363
308 308 307 305 305 305 308 311 313 314 314 314 316 321 323 323 322 323 323 323 322 322 323 323 324 328 331 337 346 359 367 366 365 365 366 366 365 357 349 351 353 355 357 356
308 306 306 305 305 305 304 305 308 309 310 310 311 314 318 318 319 321 321 322 322 321 321 323 320 322 325 335 342 351 362 364 364 363 365 365 364 361 354 350 351 347 355 358
308 308 307 307 306 305 304 304 305 307 309 310 309 310 312 315 316 316 316 317 318 316 316 318 317 319 321 328 334 347 355 358 359 365 363 365 364 362 362 359 360 352 349 350
308 308 307 307 307 306 305 304 304 305 305 307 307 308 309 309 311 311 311 312 313 314 314 315 315 315 319 323 330 344 348 351 355 361 362 362 362 359 357 354 352 347 346 342
309 308 307 308 307 307 306 305 305 305 303 304 305 306 307 308 307 309 308 309 309 310 309 310 312 313 316 321 324 342 343 348 347 350 350 351 353 352 350 347 346 346 344 341
308 308 308 308 308 307 306 306 305 304 303 302 303 304 305 306 306 305 306 305 305 306 306 307 309 312 316 319 322 337 339 338 339 338 341 343 343 345 343 344 339 337 339 340
309 308 308 308 307 307 306 306 305 305 304 304 303 304 304 304 304 303 304 304 304 304 304 307 309 312 315 317 318 333 340 336 333 331 330 331 331 331 333 334 334 336 338 336
311 309 309 308 308 307 306 306 306 305 304 304 304 303 303 303 304 303 303 303 303 303 305 307 310 312 313 316 318 326 337 336 334 329 325 322 323 323 323 325 326 325 324 322
311 310 309 307 307 307 307 306 306 306 305 305 305 305 304 302 302 302 302 303 303 304 306 307 308 310 315 317 319 323 329 328 325 330 326 322 319 317 317 316 318 319 318 318
310 308 308 307 307 306 307 307 306 306 306 306 305 305 303 302 301 302 302 302 302 302 302 302 304 305 309 311 311 314 317 318 315 314 313 315 312 310 308 308 307 309 310 312
309 309 307 307 307 306 305 306 307 307 306 306 306 305 303 301 301 301 302 300 300 301 300 300 301 301 301 303 304 303 303 303 303 304 303 302 302 301 301 301 300 301 301 301
308 307 308 307 307 306 306 306 307 307 307 305 305 304 304 302 301 301 300 300 299 299 299 299 299 299 298 298 298 299 299 298 298 297 297 296 297 297 297 297 298 298 299 301
308 308 308 306 306 305 305 305 305 307 306 306 304 305 303 302 301 301 301 300 300 300 299 299 298 298 297 297 297 297 297 297 297 297 296 295 295 295 294 294 294 294 295 296
308 308 306 306 306 305 304 304 305 304 306 306 305 304 304 303 303 302 302 302 301 301 301 300 300 299 299 298 297 297 297 296 296 295 295 295 295 295 295 295 295 295 294 294
308 305 306 306 305 304 303 304 305 303 304 305 305 305 304 303 303 303 303 303 303 303 302 302 301 301 301 300 299 299 297 297 297 297 295 294 294 294 294 294 294 295 295 295

GFSNGP_925_thetae_057.txt.gz
Theta_e
312 313 313 314 314 315 314 313 314 314 316 324 322 322 325 324 324 325 329 343 342 341 339 348 344 348 351 352 351 355 357 357 356 355 353 353 349 348 341 353 347 355 355 355
313 313 313 314 315 316 316 315 314 314 314 314 314 315 316 315 316 318 319 326 327 331 334 348 344 343 340 349 353 352 357 358 358 356 355 354 354 353 351 343 358 351 353 356
316 314 315 316 314 315 315 316 313 313 313 314 315 316 315 315 317 318 317 319 327 330 344 345 341 340 339 342 353 353 353 358 358 357 356 355 354 353 355 352 349 359 357 357
316 316 318 316 314 315 316 316 315 315 314 315 315 315 314 315 316 319 322 325 341 337 348 345 347 346 348 349 351 354 354 355 357 357 357 357 356 354 354 356 353 352 357 359
314 316 315 314 313 313 314 315 315 315 315 316 317 316 314 318 319 320 321 323 336 329 339 350 346 345 346 342 339 347 354 354 356 357 357 358 357 357 355 356 357 355 357 359
318 316 316 312 312 312 312 313 313 316 317 316 315 317 316 316 315 318 320 321 333 330 339 342 350 338 337 339 342 343 345 356 356 356 358 358 358 357 358 355 356 358 357 358
319 322 319 314 313 315 317 316 315 315 314 314 314 313 313 314 315 317 318 320 333 340 342 345 349 352 348 340 341 348 354 357 358 356 357 358 359 358 357 358 357 357 359 359
317 320 317 311 312 316 313 310 310 311 312 312 311 311 311 314 316 318 319 323 336 337 338 342 350 349 354 353 353 353 360 359 357 358 357 359 359 359 358 358 358 358 360 360
311 313 310 310 309 308 308 308 308 308 309 310 310 311 311 313 316 318 328 330 332 331 333 340 343 342 349 353 358 356 356 361 361 361 358 360 360 359 359 359 359 360 361 361
308 310 309 308 307 307 306 307 306 306 308 309 309 310 311 313 316 325 327 326 327 329 334 335 333 335 342 347 352 356 361 361 360 363 362 359 363 361 362 362 362 362 362 362
309 309 308 308 306 305 305 304 306 308 307 308 309 311 314 316 321 324 325 325 325 326 327 327 327 331 335 337 343 350 357 363 364 362 365 362 364 364 364 364 363 363 363 363
309 308 308 307 306 305 304 305 306 307 311 311 314 315 314 317 322 324 324 323 323 323 324 324 323 325 328 333 335 342 352 361 365 362 365 365 364 361 366 366 365 365 364 364
309 307 308 307 306 305 305 304 304 306 308 312 311 311 310 321 323 323 322 323 321 320 319 320 319 320 322 325 330 337 348 360 365 363 365 366 365 360 355 357 365 366 366 365
309 308 308 307 307 305 305 303 303 304 304 307 308 309 310 314 316 316 316 317 317 316 316 316 317 317 319 321 325 335 347 358 365 364 364 365 365 363 358 350 352 355 360 364
308 308 307 308 307 306 305 304 304 305 303 304 305 307 308 310 311 310 310 311 313 313 312 312 314 314 316 318 322 332 344 351 359 364 364 364 365 362 354 352 352 354 353 357
309 308 308 308 307 307 305 304 303 303 302 302 303 304 306 307 306 307 306 307 307 309 308 308 309 310 313 316 320 328 342 346 353 358 360 362 363 362 353 353 353 346 347 351
309 309 308 308 308 307 306 305 303 303 302 301 302 303 305 305 304 304 306 305 305 305 306 306 307 310 312 316 318 323 338 341 350 354 355 358 358 357 358 356 350 347 345 344
308 308 308 308 308 307 307 306 305 304 304 302 302 302 303 304 304 303 303 304 304 305 306 307 308 312 313 315 318 321 335 335 339 337 336 340 343 343 340 338 338 338 339 341
310 309 309 309 308 307 307 306 305 305 303 303 303 303 303 303 303 303 303 304 304 305 306 306 309 311 314 316 320 326 334 330 329 329 329 331 331 334 336 338 338 336 333 331
311 310 309 309 307 307 307 307 306 305 304 305 304 303 302 302 302 303 303 303 303 303 303 304 306 309 313 318 326 331 330 325 323 321 320 320 320 320 321 325 327 329 328 326
311 310 310 307 308 307 307 306 306 306 306 305 305 303 301 301 302 301 301 301 301 301 301 302 303 305 307 310 316 315 315 313 318 317 315 313 313 313 313 314 315 316 318 318
310 309 309 309 308 308 307 307 306 306 306 305 303 302 301 301 301 301 300 300 300 300 300 301 301 303 303 304 304 304 305 305 305 304 304 306 306 304 305 305 306 307 308 313
310 309 309 307 307 308 307 307 307 307 306 306 303 302 301 300 300 300 300 299 300 299 299 300 300 300 300 300 299 299 299 298 298 299 300 300 300 299 301 301 301 302 302 301
307 310 308 307 305 305 307 307 308 307 305 304 302 302 301 301 301 300 300 300 300 300 299 299 299 298 298 297 298 298 297 297 297 296 296 296 296 296 297 298 298 299 299 299
311 309 307 307 309 305 308 307 306 306 305 305 303 302 301 301 302 302 302 302 302 301 301 300 299 298 297 297 296 296 296 296 296 296 296 295 295 295 295 296 296 297 298 297
308 307 306 308 305 305 305 306 306 306 305 304 305 304 303 303 303 304 303 303 303 302 301 301 301 300 298 298 297 296 295 295 295 295 295 295 295 295 295 295 295 294 295 295
307 306 306 305 305 304 305 304 305 305 306 305 304 304 303 303 303 303 302 303 302 301 301 301 301 301 300 299 298 297 297 297 297 295 294 294 294 295 295 295 295 295 295 295

GFSNGP_925_thetae_060.txt.gz
Theta_e
310 311 312 312 313 313 313 312 312 311 311 312 313 314 313 316 318 336 345 346 333 333 330 332 339 338 342 346 349 351 350 350 349 351 351 348 344 345 345 344 344 341 341 348
313 313 313 314 314 314 313 313 314 313 311 310 312 313 314 316 317 320 322 327 326 332 339 343 341 333 338 341 348 352 353 352 352 350 352 351 349 345 345 343 344 344 341 341
314 313 313 313 313 313 313 313 313 314 312 311 312 313 313 318 321 322 322 322 323 329 343 346 345 344 343 343 345 350 354 354 354 354 352 352 351 350 346 345 342 346 349 347
313 313 314 310 311 312 312 313 313 314 315 315 315 315 316 315 315 315 317 319 318 319 329 341 338 345 346 343 340 344 350 355 355 356 355 353 352 351 350 349 346 342 348 351
315 310 311 312 312 314 314 312 316 315 315 315 313 313 313 313 313 314 315 315 316 318 327 338 336 338 341 347 350 346 348 348 353 357 356 354 353 352 352 352 352 347 347 353
314 315 314 313 310 311 313 311 311 311 311 311 312 313 312 310 312 314 313 314 314 316 327 342 347 345 345 344 344 341 341 347 347 349 356 355 355 354 353 352 353 353 350 349
316 317 316 309 310 312 314 312 309 308 308 308 310 309 309 309 310 311 312 313 314 320 334 338 338 346 341 344 341 342 337 338 343 341 349 356 356 355 355 354 353 354 354 353
310 315 316 309 310 311 309 307 307 306 306 306 306 307 309 308 308 309 311 312 323 329 333 334 334 343 346 346 349 345 337 338 340 341 349 354 356 356 355 355 354 353 355 356
311 308 307 306 307 305 306 306 305 305 304 305 306 307 307 308 307 309 311 314 323 327 328 331 339 338 338 343 347 346 343 352 348 351 354 354 355 356 356 355 356 355 354 354
308 306 306 307 307 306 305 305 303 303 305 307 307 308 307 307 307 309 312 315 324 327 328 329 330 332 333 335 340 342 338 346 353 356 357 355 355 356 357 356 356 356 356 356
308 307 307 307 306 307 306 305 304 304 305 306 309 308 307 308 308 311 314 317 325 326 326 326 326 326 328 328 330 331 336 341 349 357 357 357 356 357 357 357 356 356 356 357
306 305 306 306 305 307 306 305 305 304 305 305 307 310 311 311 310 311 314 319 324 323 324 324 324 324 323 325 327 326 329 336 347 357 359 360 357 358 358 358 357 357 357 357
306 305 305 307 306 307 305 305 304 304 304 305 304 307 308 309 310 316 316 322 322 321 319 319 321 322 319 321 325 324 325 330 338 350 360 360 362 357 355 355 360 360 359 359
306 306 307 306 306 306 306 305 303 303 303 302 303 304 306 307 307 309 310 312 315 315 314 314 315 316 318 320 323 321 323 328 333 345 356 361 362 362 357 357 355 358 362 362
306 306 306 305 306 306 306 305 304 303 303 302 302 303 304 305 306 306 306 306 308 308 308 308 310 311 312 317 318 319 319 324 334 344 351 361 363 363 360 356 357 359 356 360
305 305 305 306 307 306 306 305 304 304 303 302 302 303 303 304 304 304 304 304 304 305 305 306 307 309 311 313 316 317 319 324 335 340 349 358 362 362 359 353 353 350 350 353
308 306 305 305 305 305 305 305 304 304 303 302 302 302 302 302 303 303 303 304 304 304 305 305 307 310 313 314 316 316 318 323 334 342 351 355 357 358 356 353 351 347 347 347
306 306 305 305 305 305 305 305 305 304 303 303 303 302 302 302 302 303 303 303 304 305 304 305 308 311 314 316 317 317 319 323 334 337 344 350 352 355 352 350 342 338 339 341
309 308 308 307 308 306 306 305 305 305 304 304 304 302 301 301 302 301 301 302 302 303 302 303 307 308 314 319 315 323 323 328 327 327 332 338 340 340 340 339 337 337 340 342
309 308 309 309 308 307 306 306 306 305 305 304 303 302 301 301 301 299 300 301 300 301 301 303 305 306 310 312 311 315 322 320 318 319 320 322 325 326 330 332 331 330 331 330
310 310 309 309 308 307 306 306 306 305 305 303 301 301 300 300 300 299 299 300 300 300 301 301 303 303 304 305 305 307 307 306 308 310 308 307 308 313 315 319 316 318 318 319
308 308 307 307 306 307 306 307 306 306 305 303 301 300 300 300 300 300 300 300 300 299 300 300 301 302 301 300 299 300 302 301 302 303 303 305 304 302 303 304 305 305 306 308
307 308 308 307 306 306 307 306 306 305 304 303 301 301 300 300 300 300 301 301 300 300 299 299 299 299 298 298 297 297 298 298 297 297 298 299 300 300 300 299 301 303 303 303
306 306 305 305 305 303 305 306 306 304 304 302 302 301 302 302 303 303 302 301 301 299 299 299 298 297 297 297 296 297 296 296 296 296 296 296 296 297 298 299 298 298 299 301
307 307 306 305 305 303 306 306 305 304 303 302 302 303 303 303 303 303 302 302 302 301 300 299 298 297 296 295 295 296 296 296 296 296 296 296 296 296 296 297 297 297 298 298
306 305 305 304 304 305 305 305 305 304 305 303 303 303 303 303 303 303 302 301 301 301 301 300 298 297 297 297 296 295 295 295 295 295 295 295 295 296 296 296 296 296 296 297
305 305 305 304 304 304 305 305 304 305 304 304 304 304 304 303 303 303 303 301 301 301 300 300 300 299 298 297 297 297 296 295 295 295 295 295 295 295 295 295 295 294 295 295

GFSNGP_925_thetae_063.txt.gz
Theta_e
309 309 311 311 313 312 312 312 313 311 311 310 309 309 311 318 322 324 329 323 325 332 334 340 343 343 338 344 345 346 345 347 348 348 346 344 344 342 339 339 340 340 343 343
312 312 312 312 312 312 312 311 312 312 313 309 311 310 317 317 318 317 318 319 322 321 322 330 341 344 342 337 344 346 347 346 347 348 348 347 345 344 343 340 339 340 341 343
313 311 311 311 312 312 312 313 312 313 312 313 314 314 315 313 313 314 314 314 315 318 320 319 334 337 344 342 340 346 348 347 347 348 348 349 348 346 344 344 343 342 340 341
311 310 310 309 310 312 312 316 315 315 315 313 312 312 313 311 311 312 313 312 312 313 315 316 326 338 343 343 342 343 350 350 349 349 348 349 350 349 347 345 345 344 343 342
309 306 310 312 311 310 312 314 311 311 311 310 310 310 312 310 309 309 310 311 311 312 313 318 328 340 340 343 343 344 342 348 352 352 352 350 350 350 349 347 346 346 344 343
311 311 314 312 309 308 310 314 308 308 308 308 308 311 311 308 308 308 309 310 310 311 314 323 326 334 340 343 342 344 344 344 346 352 353 353 352 351 350 350 349 348 347 345
314 318 315 309 308 308 315 311 306 306 305 305 306 308 306 305 306 307 308 309 309 310 315 323 325 334 337 342 344 346 345 340 338 342 348 354 354 353 352 351 351 351 351 349
308 310 309 307 308 308 306 305 306 305 305 304 304 304 305 306 306 306 307 308 308 310 312 320 318 329 334 338 338 341 347 348 344 341 340 341 347 354 353 353 351 351 351 352
304 304 305 305 305 306 306 305 304 304 304 304 304 304 307 307 307 307 306 307 308 309 312 319 322 322 336 336 333 335 337 340 342 344 350 345 341 348 354 354 353 352 352 352
304 304 305 305 305 305 306 306 305 304 305 304 304 305 307 309 308 307 307 307 308 310 313 318 324 325 327 330 332 332 332 334 337 341 345 352 353 352 351 354 355 354 354 353
307 304 304 305 305 305 305 306 305 304 305 304 305 306 306 309 310 309 310 310 310 312 313 318 324 327 326 329 329 329 330 331 333 337 343 352 355 355 354 354 355 355 354 354
304 303 303 303 304 305 306 307 305 305 304 304 304 305 305 306 307 308 309 309 311 311 313 317 324 325 326 329 327 325 326 330 331 332 337 346 354 355 355 355 355 355 355 355
304 302 302 303 304 305 306 306 306 304 303 304 303 302 303 304 306 306 307 307 308 312 314 320 323 322 322 322 323 325 322 327 330 330 333 338 348 357 354 353 356 356 356 355
303 304 306 305 305 304 305 305 306 304 303 303 302 302 302 303 304 304 305 306 306 307 315 317 316 316 317 316 317 319 320 320 330 329 329 335 343 353 358 355 354 351 355 356
305 304 305 305 304 304 305 305 305 303 304 303 302 302 302 303 303 303 304 304 305 305 306 306 308 310 311 311 313 315 317 319 324 327 328 333 340 347 357 358 356 355 354 354
305 304 304 304 304 303 304 304 305 303 302 302 303 303 302 302 302 302 303 304 304 305 305 305 306 307 309 310 312 314 316 319 321 326 326 330 338 346 355 359 357 357 354 353
305 306 304 304 303 303 304 303 304 303 303 303 303 303 302 301 301 301 302 303 303 303 304 305 305 305 307 309 312 314 315 317 320 322 325 331 338 347 354 357 355 355 354 353
305 305 303 303 304 304 304 304 304 304 304 304 303 304 302 301 301 301 300 300 301 301 302 303 303 305 308 310 312 314 315 317 319 322 326 335 339 346 353 354 353 351 350 350
307 307 307 306 306 306 305 304 304 305 305 304 302 301 301 300 300 299 299 300 300 301 301 301 303 305 306 308 311 313 316 319 321 325 329 333 338 344 348 350 348 346 345 344
308 308 308 308 308 308 306 306 305 305 304 301 300 300 300 300 299 298 298 299 299 300 301 301 303 303 304 305 307 311 311 314 319 319 323 325 329 332 336 340 340 340 339 338
308 309 308 308 308 308 306 306 305 305 303 301 300 300 300 300 300 300 299 299 299 299 300 300 302 302 302 301 302 303 304 305 305 307 307 310 311 312 315 318 320 322 322 320
307 307 307 307 306 305 305 306 305 305 303 301 301 301 300 301 301 301 300 299 298 299 299 299 300 301 300 298 298 299 299 299 299 301 302 304 303 303 305 307 307 309 310 309
306 306 306 306 305 304 305 305 306 305 303 302 301 301 301 301 302 301 301 299 299 298 298 298 299 298 297 297 297 297 297 297 297 297 298 299 302 302 300 300 301 302 303 303
305 305 304 305 305 302 302 305 305 304 303 302 302 302 301 301 302 302 300 301 299 298 298 298 298 297 296 296 296 296 296 297 297 297 297 297 298 298 299 300 300 300 299 299
306 306 305 303 302 302 304 305 304 303 303 303 303 303 303 302 302 302 302 300 300 299 297 297 298 296 295 295 295 296 296 296 296 296 296 296 297 296 296 297 297 297 298 299
305 304 304 303 303 304 305 304 303 303 303 303 303 304 303 303 303 302 301 301 299 300 298 297 297 297 296 296 295 295 295 295 295 295 295 296 296 295 295 295 296 296 297 297
305 304 303 303 303 303 304 303 303 304 304 303 303 303 303 303 302 302 302 301 300 299 300 298 297 298 297 297 296 296 295 294 294 295 295 295 295 295 295 295 295 295 296 296

GFSNGP_925_thetae_066.txt.gz
Theta_e
308 310 311 311 312 312 311 310 311 309 313 310 311 312 315 314 315 315 315 317 318 319 320 320 328 340 343 341 343 344 345 346 345 344 344 344 343 343 342 342 340 339 343 342
311 311 311 312 311 312 311 311 311 310 312 312 312 313 314 312 313 314 314 313 314 315 316 317 320 325 337 341 340 343 344 344 346 346 345 344 344 343 343 343 341 341 339 339
309 311 309 311 311 311 311 312 313 312 313 312 312 312 312 311 311 311 311 312 311 312 313 313 316 321 334 341 342 340 342 344 345 346 347 346 346 344 344 343 343 342 341 340
308 306 305 307 309 310 313 315 312 313 311 310 309 308 308 310 309 308 308 309 309 309 311 311 312 321 337 339 341 343 342 345 345 345 346 347 347 346 345 344 343 343 343 342
307 303 308 312 310 309 311 312 309 310 308 307 307 307 309 309 306 306 306 307 308 308 309 310 312 321 328 337 336 342 344 343 348 346 346 346 347 348 347 345 344 343 344 343
304 310 312 311 308 307 308 314 306 307 306 306 306 308 309 306 305 305 305 306 307 307 308 309 310 317 324 329 334 338 344 346 343 347 349 348 347 348 348 348 346 345 345 345
309 311 312 308 307 308 312 310 305 306 305 305 305 306 305 304 304 304 305 306 307 307 308 308 309 312 322 324 328 337 336 341 344 339 341 351 350 349 349 349 348 347 346 346
309 310 306 307 306 307 305 304 305 304 304 304 304 304 304 304 304 304 306 308 308 307 307 307 309 311 318 325 320 335 333 332 335 342 343 340 348 353 351 350 349 349 349 348
301 302 302 305 304 304 304 305 305 305 303 304 305 305 304 304 304 305 307 309 307 307 307 308 309 311 315 322 328 331 330 331 331 333 338 343 346 341 353 353 352 351 350 350
302 303 303 303 303 304 304 304 304 304 304 304 305 304 304 304 304 306 307 309 308 308 308 309 310 311 313 318 326 327 329 331 332 332 336 338 343 348 344 350 353 352 351 351
307 303 303 303 303 304 304 304 305 306 305 303 304 304 305 305 305 305 306 307 308 308 308 309 311 312 312 315 324 326 327 329 330 331 332 335 341 346 350 347 349 353 353 353
304 302 302 302 304 304 304 305 305 306 304 304 304 304 303 303 303 303 305 306 307 307 307 307 309 311 312 314 322 323 323 324 327 330 331 332 335 340 348 353 354 351 353 354
303 301 301 303 303 304 305 305 306 306 305 304 303 303 303 302 302 303 304 304 305 305 306 306 307 313 313 317 321 320 319 319 321 325 327 330 331 334 341 346 354 354 353 354
301 303 305 304 305 304 304 305 305 305 305 304 303 302 302 303 303 303 303 303 303 304 305 305 307 308 310 313 316 318 315 314 316 319 323 327 330 334 339 343 352 353 355 354
303 302 304 304 304 303 304 304 304 304 304 303 303 302 303 303 302 302 303 302 302 304 304 305 305 306 308 308 308 309 310 312 315 318 323 325 328 330 334 336 343 353 355 354
304 303 303 304 304 303 303 303 303 304 303 303 303 303 303 303 302 302 301 301 301 302 303 303 304 305 306 307 307 308 309 311 313 315 319 322 325 328 332 337 342 350 356 354
306 305 303 303 303 303 302 303 303 303 303 303 304 303 302 302 301 300 300 299 299 300 301 301 302 303 303 304 306 308 309 310 314 316 318 321 325 327 331 334 340 348 352 356
304 304 304 304 303 303 303 304 304 304 303 304 300 300 300 300 299 299 299 299 299 299 299 300 301 302 303 305 307 308 309 311 312 314 318 320 323 328 331 334 339 345 351 355
305 305 305 304 305 304 304 305 305 304 304 301 300 300 300 300 300 300 299 299 298 298 299 300 301 304 303 304 306 308 310 311 312 313 317 319 321 326 332 335 338 343 350 352
307 307 307 306 307 306 306 307 306 304 303 301 300 300 300 301 301 301 299 299 298 298 298 299 300 301 302 302 304 305 307 309 310 314 320 320 322 327 329 334 337 341 345 344
307 308 308 307 308 308 307 305 305 304 302 301 301 300 300 301 301 300 299 299 298 298 296 298 299 299 300 301 300 301 302 303 304 305 307 308 309 311 316 323 330 336 335 331
306 306 307 308 307 306 305 305 305 305 302 301 301 301 301 301 301 300 300 300 298 298 297 296 297 298 299 299 298 298 299 299 299 299 300 302 302 303 304 308 312 313 312 310
306 305 305 305 305 305 304 304 305 305 303 301 301 301 301 301 301 301 300 299 299 298 297 297 297 296 296 296 296 297 297 297 298 298 298 298 299 300 300 301 302 303 302 301
304 304 303 303 303 301 302 304 305 304 302 302 302 302 301 301 302 302 301 300 299 298 297 297 296 295 294 294 295 296 296 297 297 297 296 296 297 297 299 299 299 297 297 297
306 305 305 304 304 302 302 304 304 304 303 302 302 303 303 302 301 302 301 301 299 298 297 297 296 295 294 294 294 294 295 295 296 295 295 295 295 295 296 296 297 297 297 297
303 304 303 303 302 301 301 304 303 303 302 302 303 302 303 302 301 301 300 299 299 299 298 297 297 296 295 295 294 292 292 294 294 294 294 294 294 294 294 294 295 295 295 296
302 302 302 303 303 302 303 303 302 303 303 302 303 302 301 300 300 301 300 299 298 298 299 298 297 297 296 296 295 294 293 292 292 292 292 291 292 295 294 296 295 294 295 295

GFSNGP_925_thetae_069.txt.gz
Theta_e
314 313 314 314 314 314 315 315 318 317 317 319 321 319 317 316 316 316 315 314 314 314 314 315 317 326 336 342 343 345 346 347 347 347 345 344 345 347 346 346 344 341 346 348
316 314 314 314 313 313 313 313 314 315 317 317 316 317 318 317 316 316 315 313 312 312 311 312 313 315 327 335 340 343 343 347 347 348 348 347 346 344 347 347 345 345 346 346
315 314 313 313 314 313 314 317 316 316 319 316 316 315 315 314 315 314 313 312 312 311 310 310 311 311 320 330 338 342 344 343 346 348 349 348 347 347 347 347 347 347 346 346
315 312 313 314 312 312 316 316 317 317 315 313 312 311 311 313 313 312 311 311 311 310 311 311 310 310 313 322 328 337 346 344 345 347 348 349 349 348 347 347 347 347 348 347
318 314 312 313 312 312 315 315 311 312 311 310 310 311 314 311 310 309 309 308 308 309 310 311 311 310 310 315 323 326 339 346 347 347 348 349 350 350 349 349 348 347 348 348
318 317 316 315 309 309 311 315 310 309 309 309 309 314 314 310 307 307 307 307 307 309 311 311 311 311 310 312 317 324 328 337 343 347 346 351 350 350 350 351 349 349 348 348
318 318 316 312 309 311 317 315 308 308 308 307 309 308 307 306 306 306 306 306 307 309 311 311 311 311 311 312 313 318 323 336 336 339 344 344 347 353 352 352 351 351 350 349
315 316 317 311 309 313 311 308 308 307 306 306 306 306 307 307 307 306 306 306 307 309 310 310 311 311 312 313 312 315 321 331 332 334 338 343 345 345 352 352 352 353 352 352
314 315 310 310 309 308 307 308 307 306 305 305 305 306 306 307 306 305 305 306 307 308 310 310 310 311 312 313 313 313 318 328 329 331 335 338 343 346 346 348 353 353 354 354
310 311 309 309 308 308 308 307 306 306 305 305 307 306 305 305 304 304 304 304 305 306 308 308 309 309 310 311 313 314 314 322 326 328 332 335 337 342 345 346 349 353 354 354
311 311 308 308 309 309 308 307 307 307 307 307 307 306 305 305 304 303 303 302 303 304 306 308 308 308 308 309 311 314 314 319 325 325 329 333 335 337 344 348 348 348 351 353
318 312 311 310 309 308 309 308 309 309 309 308 307 307 305 305 304 303 303 303 304 304 305 305 305 306 307 308 311 315 316 318 323 323 326 330 333 334 334 335 341 348 350 350
311 309 309 309 309 308 309 309 308 309 308 309 307 307 306 305 305 305 304 304 303 304 304 303 304 305 306 307 309 314 316 320 320 322 323 325 329 333 333 333 336 337 345 353
308 308 309 308 310 309 308 309 308 308 308 308 308 307 306 306 305 305 304 303 302 303 303 302 303 305 305 307 307 309 312 315 317 318 320 322 324 330 333 334 336 337 341 349
308 308 310 309 309 309 308 308 310 309 309 309 308 307 306 305 304 304 303 302 301 301 302 301 301 303 303 305 306 307 309 311 313 315 316 318 320 323 330 332 333 334 336 340
309 308 308 309 310 310 310 310 309 309 309 308 307 306 305 303 301 301 300 300 299 299 299 299 300 301 303 304 305 305 306 309 310 313 315 316 319 320 324 329 331 333 335 339
310 310 310 310 311 311 310 309 309 309 309 308 307 304 303 302 301 301 301 300 300 299 299 299 299 300 301 303 303 304 305 306 309 311 313 315 316 318 322 326 331 332 334 337
311 311 311 311 311 309 309 308 308 308 309 307 304 303 302 302 302 301 301 300 299 299 298 298 299 299 301 303 304 305 306 307 308 309 311 313 315 318 320 324 329 332 333 333
310 311 310 309 309 309 310 309 308 309 307 305 304 303 303 302 302 301 302 300 299 298 298 298 298 300 299 301 304 304 305 307 308 309 311 312 314 316 318 321 325 331 334 335
312 311 311 310 310 309 309 310 309 308 306 304 303 303 303 303 302 302 301 300 300 298 298 297 298 297 298 300 302 303 304 306 307 309 310 312 314 316 318 320 322 328 333 335
312 311 311 311 310 310 310 310 309 308 306 304 304 304 304 304 302 303 301 300 299 298 298 297 297 297 298 300 299 299 300 302 303 306 308 309 311 311 314 316 318 320 326 332
310 310 310 310 310 310 310 308 307 308 306 304 303 303 303 304 303 303 302 299 299 299 298 297 297 297 296 295 295 297 298 299 299 300 301 303 305 305 307 308 310 312 314 316
309 308 308 307 306 307 307 307 307 307 306 304 303 303 304 304 304 304 303 301 299 298 297 297 297 295 294 293 292 293 296 297 297 298 298 299 301 302 302 303 302 303 303 302
308 308 307 307 306 306 306 306 307 307 305 304 304 304 304 304 304 303 304 301 299 298 298 298 297 295 294 292 291 291 292 292 294 294 296 297 298 300 299 298 298 298 297 297
306 306 304 302 301 303 302 304 306 306 304 304 304 305 304 304 303 302 302 302 299 299 298 298 298 296 295 294 293 291 290 290 290 291 292 293 295 296 297 297 297 297 297 297
306 306 306 305 304 301 302 305 306 305 305 305 305 304 303 302 302 302 301 300 301 300 299 298 297 297 296 295 294 293 291 290 291 291 290 291 293 294 294 295 295 295 295 295
304 304 305 305 305 303 303 304 305 305 305 304 304 302 301 301 301 301 300 300 300 300 300 300 298 297 297 296 295 294 293 292 291 292 290 290 290 291 293 293 292 293 293 294

GFSNGP_925_thetae_072.txt.gz
Theta_e
318 317 318 318 318 318 321 324 327 326 327 328 327 325 323 323 321 317 316 316 316 314 313 314 314 315 323 334 341 346 349 350 350 350 351 351 351 352 352 352 351 351 350 351
320 317 318 318 317 316 316 318 322 323 324 322 323 323 322 321 321 320 318 317 315 314 314 313 314 313 315 318 332 336 347 348 350 351 351 352 352 351 352 352 352 352 351 349
320 317 316 317 318 316 317 318 320 322 324 321 321 320 319 319 320 319 318 317 317 315 313 314 314 315 313 314 323 327 333 347 348 349 351 352 353 353 352 351 351 352 352 351
318 317 316 319 316 316 318 319 320 321 320 318 318 317 317 318 317 316 315 315 315 314 314 315 315 314 314 314 315 321 326 336 346 346 348 351 352 352 353 353 353 353 353 353
319 317 317 315 315 316 319 319 317 318 317 315 315 316 319 316 314 313 313 312 312 312 313 315 316 315 315 314 314 315 320 324 335 337 349 350 350 352 352 352 353 353 353 353
318 322 319 320 314 314 315 319 315 315 315 315 315 315 320 314 312 312 311 311 311 311 312 314 316 316 316 317 316 315 314 318 323 335 336 345 348 350 350 351 352 353 353 353
320 322 319 316 313 314 316 320 314 313 313 313 314 314 312 311 311 311 310 310 310 311 312 313 314 315 316 317 318 318 316 316 318 329 333 331 340 348 349 352 351 353 353 353
321 322 325 315 314 318 317 313 312 312 311 311 310 310 310 310 310 310 310 310 310 310 311 312 313 314 315 316 316 317 318 317 316 320 331 329 336 339 348 349 353 354 354 355
320 321 316 315 314 313 312 313 311 311 309 308 309 310 309 309 309 308 308 307 307 307 307 308 310 312 313 314 314 315 315 317 318 317 322 328 331 337 338 347 349 354 354 354
317 314 314 315 312 312 311 311 310 309 309 309 310 309 309 309 308 307 307 307 306 306 306 307 308 309 311 312 312 313 313 315 317 318 319 324 327 329 334 338 344 348 352 355
317 315 313 313 313 312 311 311 310 309 309 310 310 309 309 309 308 308 308 307 306 306 306 306 306 307 308 308 309 310 312 313 316 318 319 322 325 327 331 335 340 344 349 351
322 316 316 313 313 312 312 311 310 310 310 309 309 310 309 309 308 307 307 306 306 306 305 305 305 306 306 306 306 308 310 312 315 318 319 320 322 324 326 331 333 332 335 345
316 314 313 312 312 311 312 311 310 310 310 310 309 309 309 308 307 307 306 305 306 306 304 304 304 304 304 306 305 306 308 310 313 315 320 321 322 323 324 326 329 332 332 332
314 313 313 312 312 311 311 310 309 309 310 310 310 309 309 308 308 307 305 304 304 303 303 302 302 302 303 303 304 305 306 307 309 312 315 318 321 321 323 325 328 330 332 334
314 312 312 312 311 312 311 311 312 312 310 310 310 310 309 308 307 306 304 303 303 303 301 301 301 301 301 301 303 305 305 307 308 311 314 315 317 318 320 322 325 329 331 332
315 313 312 312 312 312 312 312 312 311 310 310 310 310 309 308 306 305 303 303 303 303 302 300 300 300 299 300 301 302 303 305 307 308 310 313 316 318 319 320 322 325 328 330
314 315 313 312 312 312 313 312 311 310 309 310 310 309 308 307 306 305 304 303 303 303 302 300 299 299 299 299 300 301 302 304 305 307 310 311 313 316 318 319 321 323 326 328
312 313 312 312 312 313 313 311 311 310 310 310 310 309 308 307 306 305 304 303 303 302 301 300 299 299 300 300 300 301 302 304 305 306 307 309 311 313 315 318 321 323 324 327
313 314 313 313 312 312 312 312 312 310 309 310 310 309 307 306 305 304 304 303 303 303 301 300 299 299 298 298 300 300 302 303 305 306 307 308 309 311 312 315 319 321 323 326
315 314 313 313 313 313 312 312 312 311 310 310 310 308 307 306 305 305 304 304 301 302 300 299 298 298 297 298 299 300 302 303 304 305 307 308 310 311 312 313 315 320 322 325
315 314 313 313 313 312 312 312 311 311 310 310 309 308 306 306 306 305 305 304 302 301 299 298 298 297 297 297 296 296 297 299 301 302 303 305 307 309 311 313 315 318 320 323
312 312 312 312 312 312 312 312 311 311 310 309 308 307 306 306 306 305 305 305 303 299 300 298 298 297 296 294 293 293 293 295 297 299 300 301 303 305 308 310 312 314 317 319
310 309 310 310 310 310 309 309 311 310 310 309 308 306 306 305 304 305 304 304 302 300 300 300 299 297 296 294 292 292 292 291 292 294 294 296 298 300 303 305 307 308 309 310
308 308 308 307 306 307 309 308 308 309 309 308 306 306 306 305 304 303 303 303 300 300 301 299 299 299 297 295 294 292 291 291 290 290 291 292 294 297 300 300 301 302 303 302
307 307 307 307 306 304 302 306 308 306 308 306 306 306 306 305 304 303 303 303 302 301 302 300 299 299 298 297 295 294 292 290 290 290 290 290 291 293 297 298 298 298 298 298
307 306 306 306 306 301 302 304 306 304 306 305 305 305 304 303 302 302 301 301 302 301 302 302 301 298 299 298 297 295 294 292 290 289 289 289 289 290 291 294 295 296 296 296
305 304 304 306 305 304 304 305 305 306 305 305 305 303 303 302 301 301 300 301 300 300 301 301 301 301 300 299 298 297 295 294 292 291 289 288 289 289 290 290 291 291 292 293

GFSNGP_925_thetae_075.txt.gz
Theta_e
321 320 322 324 324 323 325 326 328 335 337 335 333 332 327 322 320 319 319 318 318 318 317 317 318 317 317 325 333 338 344 351 353 354 355 354 354 355 355 355 354 354 353 353
320 320 320 320 320 320 322 324 327 331 334 330 328 328 328 328 325 321 319 319 318 317 317 317 317 318 317 319 323 330 334 343 352 353 353 355 355 355 355 355 355 355 354 353
323 320 319 319 319 320 320 321 325 330 330 328 327 326 325 326 324 322 321 319 319 318 317 318 318 317 318 318 318 321 324 331 338 347 352 351 354 354 355 356 356 357 356 355
323 323 324 320 320 319 319 321 326 327 326 326 325 322 322 322 321 320 319 319 319 318 317 317 318 318 318 319 319 318 320 321 325 331 342 348 351 352 354 355 355 355 356 357
323 324 322 320 318 318 322 322 322 324 322 321 320 321 322 319 317 317 317 317 316 316 316 317 319 319 318 320 321 321 319 319 317 325 333 338 342 350 353 354 354 355 355 356
322 323 322 322 318 318 319 324 319 320 320 319 318 320 324 318 316 315 315 315 315 315 315 316 318 318 319 320 320 322 321 321 320 319 326 335 336 337 345 352 355 355 355 355
324 324 323 320 317 316 319 323 318 317 317 317 318 319 317 315 314 314 314 314 313 314 315 316 316 317 318 319 320 321 321 321 322 322 320 326 332 334 339 344 350 354 355 355
324 325 331 319 317 319 322 319 317 316 316 316 315 314 314 313 313 312 312 312 312 312 312 312 313 314 316 317 318 318 319 319 320 321 323 320 324 331 333 339 342 354 355 355
323 326 322 319 318 319 318 318 315 315 313 312 312 313 312 312 312 311 311 311 311 311 311 311 311 312 313 314 315 316 317 317 318 319 321 323 322 327 330 334 337 340 352 353
319 318 318 317 316 315 313 314 314 312 312 311 313 312 312 312 311 311 311 311 310 310 311 311 310 311 310 311 312 312 313 314 315 317 318 320 322 321 324 326 332 335 343 347
319 317 316 316 316 315 314 313 313 312 312 312 312 312 312 312 311 310 310 310 309 309 309 310 310 309 309 310 310 310 311 311 312 315 316 318 320 322 322 324 329 332 335 341
324 319 319 317 316 315 315 313 313 312 313 312 312 312 311 311 311 310 310 309 308 308 308 309 308 308 308 307 307 308 308 309 311 312 314 316 319 322 322 323 323 323 325 328
319 318 317 316 315 315 315 314 313 313 312 313 311 311 311 311 310 309 310 309 308 307 307 306 306 306 306 305 305 306 306 307 308 309 311 314 316 319 323 324 324 323 323 325
318 317 316 315 314 313 313 313 312 312 312 312 311 311 311 311 310 310 309 308 307 306 306 305 304 304 304 303 303 303 304 305 306 307 308 310 313 316 318 321 323 324 325 326
318 316 316 315 313 314 313 313 314 313 312 312 311 311 310 310 309 309 308 307 306 306 305 304 304 303 302 302 302 302 302 304 304 306 307 308 311 314 317 318 320 321 323 324
316 316 316 314 315 314 314 314 314 313 313 311 311 310 310 309 309 308 307 306 306 305 304 304 303 303 302 301 302 301 301 302 304 304 305 306 309 311 313 317 318 320 321 322
316 317 316 315 314 314 314 314 313 313 312 311 310 311 310 310 309 308 307 306 305 305 304 304 303 302 302 302 302 302 301 301 302 303 304 306 308 309 312 314 317 319 320 321
316 315 315 314 314 313 313 312 312 312 312 311 310 310 311 310 309 308 307 305 305 305 305 303 302 301 301 300 300 300 300 301 301 302 303 304 306 308 309 312 314 316 319 320
315 315 315 314 313 313 313 312 312 312 311 311 311 311 311 310 308 307 306 306 306 305 304 302 301 300 299 299 300 300 300 300 301 302 303 304 306 307 308 309 311 313 315 317
316 316 315 315 314 314 314 313 312 312 311 312 311 312 311 310 307 307 306 307 306 304 302 302 301 300 299 298 298 298 298 298 298 299 300 303 305 307 307 308 309 311 313 315
315 314 315 315 314 314 314 314 314 313 313 311 312 312 310 309 307 307 307 307 305 304 301 302 301 300 299 298 295 294 295 294 295 295 298 300 301 302 304 305 308 311 313 313
312 312 312 311 311 312 312 313 313 313 313 313 312 311 310 308 307 307 306 307 305 302 301 302 302 300 299 298 296 295 293 293 294 293 294 295 297 298 300 301 303 307 310 311
310 309 309 309 310 309 310 310 311 312 311 312 312 310 309 307 306 306 307 306 304 303 301 302 300 300 299 299 298 296 295 293 292 292 292 292 293 294 296 298 299 302 305 308
309 309 309 308 308 308 308 308 309 310 310 307 311 309 307 307 306 306 305 304 303 302 302 302 302 300 299 300 299 296 295 294 291 291 291 291 292 291 292 294 298 301 302 303
308 308 308 308 308 308 307 305 306 307 308 309 308 307 306 306 306 305 304 304 303 303 303 303 302 302 302 301 300 297 295 295 293 291 290 290 290 290 290 292 294 298 299 299
307 306 306 308 307 306 304 304 304 307 308 305 305 306 306 306 304 303 304 302 302 302 302 304 303 302 302 301 301 299 297 295 294 291 290 289 289 289 289 289 291 293 295 296
306 306 305 307 307 304 302 304 304 305 305 305 306 305 304 304 303 302 302 302 301 302 302 302 302 302 301 300 300 300 299 296 294 293 291 289 289 289 288 288 288 289 290 292

GFSNGP_925_thetae_078.txt.gz
Theta_e
325 323 322 325 325 326 326 328 335 341 344 340 337 332 328 325 324 323 322 321 322 322 321 320 321 321 321 323 328 333 337 343 347 344 356 357 355 355 356 356 356 357 356 354
324 323 322 322 324 324 325 325 328 336 338 335 332 328 328 326 325 324 324 321 320 321 320 320 320 321 321 319 322 325 329 334 339 346 348 353 353 354 355 355 355 356 357 356
326 322 322 322 322 322 322 323 336 339 334 331 331 330 330 328 325 324 322 322 321 320 320 321 320 320 321 321 320 320 320 321 328 336 342 348 353 355 355 355 355 356 357 358
327 323 325 322 321 321 320 323 330 333 332 330 329 326 327 324 322 322 321 321 320 319 319 320 321 321 321 322 323 323 322 322 321 321 331 338 344 347 352 353 354 355 357 358
326 327 325 323 321 321 320 323 327 329 328 327 325 325 323 320 319 319 319 319 318 318 318 319 321 321 321 322 323 325 325 324 324 322 319 328 339 338 340 348 352 353 353 355
324 325 325 324 319 319 320 325 324 325 325 324 322 326 324 319 318 318 317 317 317 317 317 319 319 319 320 322 322 324 323 323 323 324 325 323 322 331 333 338 343 350 352 353
324 325 326 323 319 318 322 323 322 322 322 320 321 323 320 318 317 316 316 315 315 315 316 316 316 316 318 320 321 321 321 321 322 322 323 324 323 322 331 333 336 342 347 351
322 326 331 320 319 320 324 321 319 319 318 318 318 317 316 316 315 314 314 314 313 314 314 314 314 315 316 317 317 317 318 319 320 320 321 322 323 326 322 327 333 339 340 344
325 330 325 320 321 322 321 320 318 318 316 316 315 315 315 314 314 313 313 313 313 313 313 313 313 313 314 314 313 314 315 316 316 317 317 319 321 324 327 325 331 334 338 339
323 322 322 322 319 319 318 319 317 316 314 313 314 314 313 314 313 313 312 312 312 311 311 312 312 312 312 311 312 312 313 313 314 314 314 315 317 320 322 324 323 326 330 337
320 319 318 317 318 316 314 314 315 313 313 313 314 314 313 313 313 312 312 311 311 310 310 311 311 310 310 310 310 309 309 310 311 312 313 315 316 318 321 322 324 325 326 328
327 320 321 320 318 317 316 314 314 314 313 313 313 314 313 313 313 311 311 311 310 310 309 309 309 309 308 308 307 307 307 307 308 308 310 311 312 314 315 317 318 321 323 322
322 322 321 319 320 317 317 316 314 314 314 315 313 313 312 313 312 311 311 311 310 309 309 308 308 307 306 306 305 305 305 305 305 306 307 309 310 311 313 314 318 319 321 324
320 319 321 320 318 316 316 315 314 313 313 313 313 313 312 312 311 311 311 310 309 308 307 306 306 306 306 305 304 304 303 303 303 304 306 306 308 310 312 314 317 319 319 321
319 318 318 319 317 315 314 315 315 314 314 313 312 312 312 312 311 311 310 309 308 307 306 306 305 305 305 304 303 303 303 303 302 303 304 305 305 306 307 309 311 314 318 321
319 318 317 317 316 315 315 314 315 315 314 313 313 313 312 312 311 310 309 309 307 307 306 306 305 304 304 303 303 303 303 303 303 303 303 304 305 305 307 308 310 314 315 317
318 318 318 318 317 316 315 316 315 314 314 313 313 312 312 311 311 310 309 308 307 307 306 305 305 304 302 302 301 301 301 301 301 301 301 302 303 304 306 307 309 310 312 315
318 317 317 316 316 315 313 315 314 314 314 313 313 312 313 312 312 311 310 309 307 306 306 305 304 302 302 301 300 300 300 301 301 301 301 301 302 303 304 305 306 308 309 310
316 317 316 315 315 316 315 315 314 314 314 313 313 314 313 313 312 310 308 308 307 307 307 305 303 303 302 301 300 298 298 297 298 297 297 298 299 300 302 304 305 306 307 308
316 316 316 316 314 315 315 315 315 313 314 313 314 313 313 313 311 309 309 308 308 308 306 304 303 303 302 301 300 299 297 296 296 295 295 296 296 297 299 301 302 304 307 308
317 315 314 313 314 315 315 314 314 313 312 312 310 312 314 313 311 308 309 308 309 307 306 302 303 303 301 301 300 299 298 296 296 294 294 294 294 294 295 297 299 301 304 305
312 312 312 311 311 311 310 310 311 312 314 315 315 313 312 313 311 309 308 307 308 306 304 303 303 303 301 300 301 301 299 297 295 294 293 293 293 293 293 294 295 296 298 301
310 310 310 310 309 309 309 308 308 309 310 311 313 313 310 307 309 308 309 308 308 305 304 303 303 303 302 301 302 301 299 298 296 294 293 292 292 292 292 293 293 293 295 297
309 308 309 309 309 309 309 308 308 308 308 310 311 311 311 308 308 308 306 308 306 304 304 304 303 303 303 302 303 301 299 298 296 294 293 292 291 291 291 291 291 291 292 295
308 308 308 309 310 309 307 307 306 306 306 309 309 311 307 306 307 306 306 305 305 304 304 304 303 303 303 304 303 302 300 299 295 294 292 291 290 290 290 289 289 290 289 292
308 307 307 309 308 306 305 306 306 306 307 306 304 306 306 306 307 304 305 304 303 304 304 304 304 304 304 302 301 301 302 300 297 294 293 290 290 289 289 289 289 288 288 290
308 306 306 308 307 305 304 303 304 307 307 306 305 306 306 307 304 303 303 303 303 302 303 303 302 302 302 301 300 300 301 300 298 296 293 292 291 290 289 288 288 288 288 288

GFSNGP_925_thetae_081.txt.gz
Theta_e
325 326 323 321 322 323 323 326 339 345 344 337 332 328 326 324 322 322 323 322 321 322 323 324 322 320 328 330 335 336 340 341 342 344 345 349 350 353 356 356 356 356 354 354
323 323 322 322 322 323 324 335 340 341 341 333 328 325 326 325 323 321 320 322 322 322 322 321 322 322 319 323 327 327 332 335 343 342 336 338 338 343 353 354 355 355 355 355
324 326 324 322 322 320 332 335 335 341 334 329 328 327 325 324 323 322 321 319 319 320 322 321 321 323 322 323 321 319 320 329 337 338 339 341 343 344 349 353 354 354 355 357
325 325 326 322 321 321 321 331 332 332 331 330 330 326 323 321 320 321 320 319 318 320 321 321 321 321 323 324 325 325 325 325 323 323 325 328 339 341 342 346 351 354 354 354
325 326 325 324 322 321 321 330 331 330 328 326 323 320 319 319 318 318 317 317 317 318 321 319 319 321 322 322 324 323 323 323 324 325 326 323 320 326 334 335 340 346 351 352
326 329 326 323 319 319 320 328 330 328 325 324 323 323 319 317 316 317 316 316 316 317 316 315 316 317 319 321 321 321 321 321 321 322 321 322 326 326 323 326 332 334 341 346
324 327 327 322 318 318 323 327 324 324 323 322 320 319 316 315 316 316 314 314 315 314 314 314 314 315 316 316 315 315 316 316 317 318 319 320 320 320 321 325 323 324 327 332
323 325 326 321 320 325 324 319 318 318 318 318 317 316 315 314 314 314 314 313 314 314 314 313 313 313 314 313 313 313 313 314 314 315 314 315 316 318 320 321 326 324 328 331
325 326 323 321 323 322 319 318 319 316 316 315 315 315 313 313 312 313 313 313 312 311 312 313 312 312 312 312 311 310 311 312 311 311 312 312 313 314 317 319 321 323 324 325
321 324 323 321 320 319 319 318 317 315 314 314 314 312 312 311 312 312 312 311 310 310 311 311 311 310 310 310 309 308 308 308 308 310 310 310 311 312 315 318 319 321 324 326
320 319 319 319 319 317 315 316 316 314 313 313 313 312 312 311 312 312 312 310 310 310 309 309 309 309 308 307 306 306 306 306 306 305 306 307 308 310 311 312 313 313 314 316
323 323 323 321 319 316 315 314 315 313 313 314 314 313 313 313 311 311 311 310 310 309 309 308 308 307 307 306 305 304 304 304 304 304 303 305 305 306 308 309 310 311 312 314
321 320 321 320 319 320 316 314 315 314 314 313 313 313 313 313 311 312 311 310 309 309 308 307 306 305 305 305 304 303 303 303 303 303 303 304 305 306 306 307 307 308 311 313
318 319 320 319 320 317 318 315 314 314 314 314 313 313 312 314 312 312 311 309 308 308 307 306 305 305 305 304 304 303 303 303 303 303 303 302 303 303 304 305 305 306 307 308
319 318 318 318 317 317 317 317 314 314 314 314 314 313 313 311 312 311 310 309 308 307 306 306 305 305 304 303 302 303 302 302 302 302 303 303 303 303 303 304 305 305 306 307
318 317 318 318 317 317 316 316 315 313 313 314 314 313 314 312 311 311 310 309 308 307 306 306 306 305 303 301 301 301 301 301 301 301 301 301 301 301 302 303 303 304 305 306
318 318 318 317 317 317 317 315 314 314 314 313 313 313 313 313 312 311 310 309 308 307 306 306 305 304 302 301 300 301 299 299 300 300 300 301 301 301 301 302 302 303 304 305
317 317 317 317 317 316 314 314 313 314 315 315 314 314 313 313 312 311 310 309 308 307 306 306 305 303 302 302 301 300 299 297 297 297 297 297 297 297 297 298 299 301 302 304
317 318 317 316 315 315 314 313 313 314 314 314 315 315 314 313 312 311 311 309 308 307 307 306 305 303 303 302 301 301 299 298 297 296 296 296 295 295 295 296 296 297 299 301
316 315 315 316 315 314 315 315 314 315 314 315 314 313 313 314 313 312 311 309 308 307 307 307 305 303 302 302 302 301 300 299 298 297 296 295 294 294 294 294 294 294 296 297
315 315 314 314 313 313 313 312 312 313 313 314 312 312 311 312 313 312 310 309 308 308 308 306 304 303 303 302 301 301 300 300 299 298 296 295 293 293 293 293 293 293 293 294
313 313 312 311 311 311 310 309 309 309 311 311 311 313 312 311 311 311 310 309 309 309 308 306 304 303 303 303 301 301 301 300 299 298 296 295 293 293 292 292 292 292 292 292
310 309 309 310 310 310 309 310 309 309 310 310 311 311 312 312 312 310 308 307 308 307 306 304 304 304 303 303 302 302 302 301 300 298 295 294 293 292 291 291 291 291 291 291
309 309 308 309 310 309 309 307 307 307 307 307 308 310 311 311 310 309 308 307 308 308 306 304 304 304 303 303 302 303 303 302 300 298 295 293 291 290 290 290 290 289 289 289
308 308 309 309 308 306 306 306 305 306 307 305 307 309 311 309 307 306 306 307 308 307 305 304 304 304 303 303 303 303 303 302 301 299 296 293 292 291 290 289 289 289 289 288
308 309 309 307 306 305 305 305 306 306 305 305 306 308 308 306 306 306 307 307 305 305 305 305 304 303 303 303 303 301 301 301 301 299 297 294 292 291 290 289 289 288 288 287
306 307 308 306 304 304 305 305 306 306 304 304 305 303 305 306 306 305 305 306 304 304 304 304 304 303 302 302 301 300 300 300 300 298 297 295 293 292 291 290 289 288 288 288

GFSNGP_925_thetae_084.txt.gz
Theta_e
321 320 321 320 320 321 320 322 335 340 339 332 328 326 323 322 323 322 321 321 322 324 324 323 326 328 331 338 341 340 341 342 340 343 342 342 346 346 347 351 351 350 351 351
321 325 322 320 320 326 333 339 340 337 335 327 324 323 322 321 322 323 322 321 322 322 323 323 322 324 327 330 333 336 339 341 341 342 339 340 338 340 339 339 350 351 352 353
322 323 323 321 320 321 333 338 338 340 333 326 325 325 324 321 321 321 321 321 321 321 321 322 323 323 321 320 320 326 330 334 337 339 339 339 341 341 338 337 346 351 352 353
320 320 324 321 319 319 329 333 331 329 328 326 325 323 320 320 319 319 318 319 319 320 320 321 322 324 325 325 326 325 326 325 326 329 334 337 333 335 336 339 341 344 350 352
320 320 320 322 319 319 320 329 331 329 327 326 322 320 318 317 316 315 314 315 317 317 316 317 319 322 324 322 321 321 321 322 322 321 321 323 326 326 324 329 331 333 338 343
319 325 323 320 318 318 320 327 326 326 324 321 320 321 319 315 315 314 314 315 314 315 315 315 316 318 317 315 315 315 316 316 317 317 318 319 319 318 319 322 325 322 321 326
320 322 324 321 318 317 322 322 321 323 321 320 318 316 313 314 313 313 314 314 314 314 314 314 314 314 313 313 313 313 313 313 313 313 314 314 314 313 314 316 318 321 323 322
316 318 320 320 320 320 318 316 317 318 316 315 315 315 314 312 311 312 313 313 313 313 313 312 312 312 311 311 310 310 310 310 310 310 311 312 313 314 316 317 319 320 322 324
318 318 317 318 320 317 315 315 316 317 316 315 314 313 312 311 310 310 311 311 312 312 312 312 310 310 309 308 308 308 307 306 307 308 308 308 309 310 311 311 313 314 315 315
316 321 319 318 318 316 315 315 313 313 312 312 312 311 311 308 310 310 310 310 310 310 310 309 309 308 307 306 306 305 305 305 304 304 304 304 305 307 308 309 310 309 310 310
314 315 316 319 317 314 313 314 313 311 311 312 310 310 309 309 309 309 310 309 310 310 309 308 307 307 306 305 305 303 303 303 303 302 303 303 304 305 305 306 307 308 308 309
317 316 314 314 316 314 312 313 312 311 311 311 310 310 310 309 309 310 309 310 309 308 308 307 307 306 305 305 304 302 302 303 302 302 302 302 302 302 302 303 303 304 304 305
316 315 316 316 318 318 313 310 311 309 311 310 311 311 310 309 310 310 310 309 309 308 308 307 305 304 304 304 303 302 303 303 303 303 303 303 302 302 302 302 302 303 304 304
315 316 316 317 316 317 316 313 313 311 312 312 312 312 311 310 310 310 309 309 308 308 307 306 305 304 304 304 301 301 302 301 302 301 301 301 301 301 301 302 302 301 302 303
316 313 313 314 315 315 316 316 312 312 311 311 312 311 311 310 310 310 310 308 308 307 306 305 305 304 304 302 300 300 299 300 301 301 301 301 300 301 301 301 301 301 301 301
316 315 314 314 315 315 315 315 312 310 310 311 312 311 311 312 311 311 309 308 307 306 306 305 305 305 304 302 300 299 299 298 299 298 297 297 297 298 299 299 299 300 300 301
315 315 316 315 314 314 314 315 314 313 311 312 312 312 312 310 309 309 309 308 307 307 306 305 306 305 303 302 300 299 299 298 297 296 296 296 296 296 296 295 295 296 296 297
312 313 314 313 313 313 313 314 314 313 313 313 313 312 311 310 309 309 309 307 307 307 306 306 305 304 303 302 301 300 300 299 298 297 296 295 295 295 295 294 295 295 295 295
315 315 315 315 315 314 313 313 314 313 312 312 314 314 313 313 311 310 309 308 306 305 306 306 305 304 303 303 302 301 301 299 299 299 298 297 295 294 294 294 294 294 294 294
314 315 315 315 315 314 314 313 313 312 312 312 314 313 312 313 312 311 309 307 308 308 307 306 306 305 304 303 303 302 301 300 300 299 299 298 297 295 294 293 293 293 293 293
313 313 313 313 314 315 314 314 314 314 314 314 313 312 311 310 312 313 311 309 307 307 307 307 306 306 305 303 302 302 301 301 300 300 300 298 296 295 293 292 292 292 292 292
309 309 309 309 309 309 309 309 309 309 310 312 313 312 312 311 311 311 312 311 309 308 307 307 307 306 305 302 302 302 301 301 301 301 300 299 296 294 293 291 291 291 290 290
307 308 309 309 309 308 307 306 306 306 307 307 309 311 311 311 311 309 309 310 309 308 307 307 307 306 304 303 303 303 302 302 302 302 301 300 297 294 292 291 291 290 290 289
307 307 308 307 306 305 303 304 304 305 305 305 306 307 309 310 310 311 310 309 309 307 306 307 307 305 304 304 303 302 302 302 302 303 302 300 298 294 292 291 290 289 289 289
308 308 307 306 304 303 304 304 305 305 305 306 306 306 306 310 309 309 309 309 308 307 308 307 306 304 304 303 303 303 302 302 302 303 302 300 299 295 291 291 291 290 288 288
307 307 306 304 304 304 305 305 304 304 303 303 303 307 309 310 309 308 307 307 307 307 307 307 306 304 304 303 303 303 302 302 301 301 301 300 299 295 292 292 291 290 289 288
307 305 303 304 304 303 303 305 304 304 303 302 304 305 306 306 306 306 306 306 307 306 306 306 305 304 303 303 302 302 302 300 300 300 300 300 298 295 294 292 291 291 289 289

GFSNGP_925_thetae_087.txt.gz
Theta_e
320 319 320 319 319 323 320 321 331 336 339 337 330 326 323 321 323 322 322 324 325 325 325 327 331 333 338 338 341 343 343 342 343 340 340 341 340 341 341 343 348 349 350 351
321 326 321 320 321 320 334 337 335 333 332 325 323 321 321 322 322 321 321 322 322 323 323 324 327 329 331 334 336 339 339 339 338 337 340 339 341 339 338 340 339 343 348 350
323 319 328 328 321 319 330 335 334 337 330 325 323 323 321 320 321 322 322 322 322 322 322 323 322 322 323 326 330 331 331 332 334 336 337 338 338 337 339 339 338 340 344 348
319 319 327 324 321 324 332 331 329 328 326 325 323 320 319 319 321 321 321 321 320 320 319 322 323 324 325 325 324 324 323 324 324 324 325 330 330 333 332 335 337 336 337 340
317 319 319 321 318 319 326 331 327 327 325 324 321 319 318 318 317 317 315 316 315 316 318 320 322 321 320 319 318 318 317 318 318 319 320 320 321 320 322 325 324 330 326 327
317 322 319 317 317 316 319 327 326 325 324 322 320 322 319 315 313 314 314 314 314 315 317 318 316 317 316 314 314 313 313 313 314 314 315 314 314 315 315 315 317 320 321 321
319 319 320 319 318 318 324 320 324 324 323 321 322 317 314 312 312 313 313 313 313 314 314 313 313 314 312 311 310 310 311 311 310 311 312 312 312 314 315 316 317 319 321 323
313 315 319 318 318 319 315 316 318 321 321 320 313 314 313 312 311 312 312 312 312 312 311 311 311 311 310 309 308 308 308 307 308 308 309 309 310 311 311 312 314 315 315 316
316 315 313 315 318 316 313 315 316 314 314 314 315 315 312 311 310 311 311 312 312 312 310 310 310 310 308 306 307 306 305 305 305 305 304 305 306 307 308 309 309 309 309 310
316 319 317 318 316 314 314 315 314 314 315 316 316 314 311 309 309 309 310 311 311 310 309 309 308 308 307 305 304 303 303 303 303 303 303 303 304 304 305 305 306 306 306 306
312 313 314 317 316 313 314 313 312 312 313 314 313 311 309 308 308 308 309 310 310 309 308 307 307 306 305 304 303 302 302 302 302 302 302 302 302 302 302 302 303 303 304 304
315 311 312 311 315 314 313 312 311 310 310 311 312 310 309 308 308 308 308 309 308 308 308 307 306 306 305 303 302 301 302 302 302 302 302 302 301 300 301 300 301 302 303 303
314 312 313 315 315 316 313 311 311 309 310 309 310 310 309 308 308 309 309 309 308 308 307 307 306 304 304 303 301 301 301 301 301 301 300 300 300 300 300 300 300 300 300 301
314 313 316 317 316 316 316 316 312 311 310 311 310 310 309 308 308 308 308 309 309 308 307 306 304 303 304 303 300 299 299 300 300 300 299 299 298 297 298 299 299 299 298 299
314 312 312 312 314 314 314 314 314 311 309 309 309 310 309 307 308 308 309 309 309 308 307 305 304 304 304 303 299 298 298 299 298 297 296 296 296 296 296 296 296 295 295 296
314 314 313 314 313 313 314 313 313 311 309 310 309 310 309 309 309 309 309 308 307 306 307 305 304 304 304 302 299 299 298 298 297 297 296 296 295 295 294 294 294 295 295 295
313 314 314 314 313 314 313 313 311 312 311 311 311 310 310 309 309 308 308 308 309 308 308 306 305 304 304 303 300 299 299 298 297 298 298 297 295 294 294 294 294 294 294 294
311 311 312 312 311 312 312 312 313 314 314 313 313 312 310 309 308 308 308 308 307 306 307 307 306 305 304 303 301 300 300 299 299 299 298 298 297 296 294 294 294 293 293 293
312 313 313 313 313 313 313 312 312 313 313 313 313 313 313 311 309 308 308 306 305 305 307 307 306 305 304 303 302 300 300 300 300 299 299 299 298 297 295 294 293 293 292 292
314 314 314 314 314 314 314 313 312 313 312 312 312 313 312 312 311 310 308 306 305 306 307 306 305 305 304 304 303 301 301 301 300 300 299 299 299 298 296 294 293 292 292 291
311 312 312 312 312 313 314 313 312 313 313 311 312 312 312 311 311 311 309 307 308 306 306 306 306 305 304 304 304 303 302 301 301 300 300 300 300 299 297 294 292 291 290 291
308 308 307 307 308 308 306 306 306 306 306 307 310 312 312 311 311 311 311 311 311 309 308 306 306 306 305 305 303 302 302 302 301 301 301 300 300 300 298 295 292 291 291 290
306 307 307 307 306 304 304 304 304 304 304 304 304 305 307 311 311 310 310 311 311 310 308 306 306 306 306 304 304 303 302 302 302 302 301 301 301 301 299 297 293 291 291 290
306 307 306 305 304 303 302 304 304 304 304 304 305 305 305 306 309 309 309 310 311 309 308 308 307 306 303 305 305 303 303 303 303 302 301 301 302 301 300 297 294 292 291 290
306 306 304 303 302 302 303 303 303 302 302 302 304 305 305 305 306 308 307 309 309 309 307 307 306 306 305 307 306 304 303 303 302 301 301 301 302 302 301 298 294 293 291 291
305 305 304 303 303 304 305 304 303 302 303 305 305 306 306 306 306 308 308 308 307 308 308 307 306 306 307 306 304 303 303 302 302 302 302 301 300 301 301 298 295 293 292 291
305 304 303 303 303 303 303 304 304 304 303 303 304 304 305 306 306 306 306 306 306 307 306 307 306 307 306 305 304 303 303 302 302 302 301 300 300 300 300 298 296 294 292 291

GFSNGP_925_thetae_090.txt.gz
Theta_e
320 319 318 320 319 322 331 319 329 328 336 335 331 327 323 322 325 326 326 327 328 328 329 331 334 338 341 341 342 343 342 343 342 341 339 340 339 341 342 341 343 346 348 348
321 321 325 325 321 326 335 336 335 334 336 327 324 322 322 322 322 324 324 324 325 325 326 328 329 331 334 337 338 340 340 340 339 340 340 339 339 338 338 339 339 340 344 346
322 318 327 328 323 330 332 333 333 336 329 324 323 324 322 321 321 321 321 322 323 323 323 323 323 326 328 330 333 334 334 334 334 336 336 336 336 335 337 336 336 336 337 340
319 319 329 323 320 328 331 330 329 327 325 324 322 319 318 319 320 321 321 321 320 319 321 323 324 322 322 323 323 323 321 322 323 325 327 326 326 329 329 331 330 331 330 330
316 318 317 320 317 318 321 328 326 325 323 321 319 318 319 317 318 317 319 317 317 319 321 322 320 319 319 317 317 317 315 315 316 317 317 317 317 318 318 320 321 323 326 325
315 318 319 314 318 319 318 321 325 324 323 322 320 323 320 316 315 316 315 316 317 317 317 318 316 317 316 313 313 312 312 312 312 313 313 313 313 314 315 317 319 320 323 324
317 317 318 316 317 317 323 320 323 324 323 321 322 321 315 313 314 313 313 315 315 316 315 314 314 315 312 310 309 309 309 309 310 310 310 310 311 312 313 314 315 317 318 318
311 315 316 316 317 318 315 315 318 322 321 320 314 314 314 314 312 312 312 312 313 312 311 312 312 312 309 308 307 306 306 307 307 307 307 307 308 309 310 310 311 311 312 312
313 313 311 312 317 316 312 315 317 319 317 315 315 315 313 312 312 312 311 311 311 310 310 310 309 309 308 306 305 305 304 304 303 304 304 304 305 305 306 306 307 306 307 306
315 316 317 316 315 314 314 315 314 314 315 316 318 315 313 312 311 310 310 310 310 309 309 308 308 307 306 305 303 303 303 303 302 302 302 302 302 302 303 303 303 303 304 304
312 311 313 314 315 314 314 313 314 314 314 316 315 314 313 312 310 310 310 310 310 309 308 307 306 306 305 304 301 301 302 302 302 302 302 301 300 300 301 301 301 302 302 302
314 311 313 312 313 313 313 313 313 313 313 313 313 312 311 311 309 309 309 310 309 309 309 307 306 305 304 302 301 301 302 302 302 301 301 300 300 300 300 300 300 300 300 300
314 310 310 315 314 314 312 311 311 310 311 311 311 310 310 310 309 309 309 310 309 308 308 307 306 305 303 302 300 301 300 301 300 300 299 298 297 297 297 297 297 297 297 297
312 313 316 316 316 316 315 315 313 312 310 310 311 310 310 309 308 308 309 310 309 308 307 306 306 304 303 302 299 299 299 300 299 298 296 296 296 296 296 296 296 296 296 295
312 312 311 311 313 314 314 313 314 312 310 309 310 309 309 308 308 308 309 309 308 307 307 306 305 303 303 302 299 298 299 298 296 296 295 295 295 295 295 295 294 295 295 294
312 312 312 314 313 312 313 313 313 311 310 310 308 309 309 309 309 309 308 309 307 306 307 306 305 303 303 302 299 298 298 297 297 298 297 295 295 294 294 294 294 294 294 293
312 313 312 312 312 313 313 312 311 311 310 309 309 309 309 309 309 308 307 309 309 309 309 307 306 304 304 302 300 298 298 298 297 298 297 297 296 296 295 294 294 293 293 293
310 310 310 310 311 311 311 312 312 312 312 313 311 310 309 309 308 308 308 309 308 307 308 308 307 305 304 303 301 299 299 298 298 298 298 298 297 297 296 295 294 293 293 292
311 311 312 312 312 312 312 312 312 313 313 313 313 313 311 309 309 309 308 307 306 306 308 308 307 306 304 304 302 300 299 300 299 299 298 299 298 298 298 297 295 293 293 292
312 313 313 313 314 313 313 313 312 312 312 312 312 312 313 313 312 311 309 308 307 308 307 306 305 306 305 304 303 301 300 300 300 300 299 299 299 299 299 298 297 295 292 291
310 311 311 311 308 308 307 307 308 308 306 309 310 311 312 313 313 312 309 307 307 306 306 307 307 306 305 304 304 303 300 300 301 301 300 300 300 299 300 300 299 297 294 292
307 307 306 306 306 304 304 304 304 304 304 304 304 305 307 310 311 310 308 307 307 308 308 306 307 307 306 306 304 304 303 302 302 301 301 301 300 300 300 300 300 298 295 293
305 306 305 304 304 303 302 303 303 303 302 302 302 303 303 303 306 309 309 310 310 310 309 307 308 307 306 305 304 303 303 303 302 302 302 302 301 301 301 301 300 299 297 294
305 305 304 303 303 302 302 303 303 304 304 303 302 303 304 304 304 305 308 309 309 309 310 309 306 307 306 306 305 304 301 303 302 302 302 302 302 300 300 301 301 300 298 295
305 304 303 302 301 302 303 303 303 303 304 304 305 305 305 305 305 305 307 308 308 309 308 308 307 306 306 305 302 302 302 305 304 303 303 302 301 301 301 300 300 300 298 295
304 303 302 303 304 304 304 303 302 303 302 303 303 305 306 304 305 305 306 307 307 307 307 307 307 306 304 303 302 302 306 306 304 303 302 302 301 302 301 299 299 299 298 296
303 302 303 303 303 303 302 302 302 303 304 303 303 304 303 304 305 306 306 307 307 308 307 306 307 306 306 305 306 306 305 304 303 302 302 301 301 301 300 299 299 299 298 296

GFSNGP_925_thetae_093.txt.gz
Theta_e
324 324 325 327 335 336 326 326 332 334 336 342 343 341 338 335 332 332 334 334 333 333 333 334 338 343 344 344 343 343 343 343 341 340 341 343 344 342 341 342 343 346 348 349
326 324 328 325 330 338 337 337 337 338 338 332 338 333 332 334 331 332 333 331 330 329 330 330 332 335 339 341 342 342 342 342 341 341 340 339 339 340 340 340 341 343 345 347
328 325 329 330 327 329 333 336 337 336 337 335 334 334 334 333 333 331 330 329 327 326 325 325 328 330 331 333 336 336 335 336 336 337 337 338 337 336 336 335 335 335 336 340
326 329 329 325 323 327 330 333 333 334 333 335 334 332 330 329 330 330 328 328 327 326 324 322 323 324 325 325 327 329 325 325 327 330 328 330 331 333 332 330 332 331 332 332
328 327 323 323 321 322 325 328 332 332 331 330 328 328 327 325 326 327 326 325 325 325 323 319 321 321 321 319 318 317 317 317 318 318 318 318 319 319 320 324 326 329 327 333
324 324 325 322 321 321 322 327 331 330 332 330 328 339 335 324 323 323 321 321 321 320 318 317 316 317 317 315 314 312 312 312 312 313 314 314 315 316 317 322 325 326 324 323
325 323 321 321 321 321 327 327 326 329 330 329 332 330 326 323 323 321 320 319 318 319 317 315 314 314 313 312 310 309 309 309 310 310 310 311 312 312 313 316 317 319 318 317
322 324 325 320 321 323 323 322 323 329 328 327 323 322 322 322 321 320 320 319 319 318 317 315 314 313 311 310 308 307 307 308 307 307 308 308 309 309 310 311 311 313 314 313
323 324 320 320 322 320 320 322 323 325 327 326 322 322 321 321 320 319 318 317 316 315 314 312 312 312 311 309 308 307 307 307 307 306 306 306 307 308 309 308 309 308 309 309
325 324 323 322 320 318 319 320 321 320 324 323 323 320 320 319 318 317 316 315 314 314 313 311 310 310 309 307 306 306 306 306 305 306 305 305 305 305 306 306 306 307 307 306
323 319 320 321 320 320 318 319 320 319 321 323 322 321 320 319 317 316 315 314 313 313 313 311 309 308 307 305 305 305 305 305 305 305 305 304 303 304 304 303 304 305 304 304
326 322 324 323 321 319 319 320 320 321 320 320 320 321 319 318 316 315 314 313 313 313 312 310 309 307 306 304 304 304 304 304 304 304 304 303 303 302 299 301 300 299 299 300
321 318 320 319 319 318 318 318 317 318 318 320 319 319 318 318 316 315 314 313 312 312 311 309 308 307 306 304 303 304 304 304 302 303 302 302 301 302 302 298 296 296 296 296
316 318 320 320 321 319 319 318 315 316 316 316 317 316 317 317 315 315 314 314 313 312 311 309 308 308 306 304 303 303 303 301 302 301 300 300 300 300 300 301 301 300 297 296
318 318 319 319 318 319 318 317 318 318 317 315 314 315 314 315 315 314 315 314 313 312 310 309 309 307 305 304 302 302 302 301 300 299 299 298 299 299 299 299 299 299 299 298
318 318 316 318 318 317 317 317 317 317 316 316 315 315 314 314 314 314 314 312 312 311 311 309 309 308 305 304 302 301 301 299 299 299 298 298 298 298 298 298 298 298 298 297
319 319 318 318 317 317 317 317 316 316 316 316 315 314 313 313 313 313 313 312 311 312 311 310 309 307 305 304 302 300 300 299 299 300 300 299 299 299 298 298 298 298 297 296
317 318 317 317 317 317 317 316 316 316 316 316 316 315 313 313 313 313 312 311 309 311 311 310 309 307 305 304 302 301 301 301 300 301 300 300 300 300 299 299 298 298 297 296
315 315 316 316 316 317 316 316 316 316 315 315 316 316 315 314 313 313 312 311 310 310 311 310 308 308 306 304 303 301 300 301 301 301 300 300 300 301 301 300 300 299 298 296
315 316 316 316 316 316 316 315 315 314 313 313 314 315 315 315 315 314 311 311 310 310 309 308 307 307 306 305 303 302 301 301 301 301 301 301 301 301 302 300 300 300 298 297
316 315 314 313 311 309 308 308 308 308 307 307 309 311 313 314 314 315 313 310 311 310 309 308 307 307 306 304 304 302 302 301 301 302 302 302 302 301 301 301 301 300 300 298
311 311 311 310 309 307 306 306 305 305 306 306 306 306 306 307 309 311 313 313 310 306 306 307 307 306 306 304 305 303 301 301 302 302 302 302 302 302 302 302 302 301 301 299
309 309 308 308 308 306 305 305 305 306 306 306 306 305 304 305 306 307 309 312 312 307 307 306 305 306 305 305 304 304 304 302 302 303 303 303 303 302 302 302 302 302 301 300
308 308 307 306 305 305 306 305 305 305 305 306 306 306 305 304 305 306 306 308 309 309 310 310 308 308 307 306 305 303 304 304 303 304 303 303 303 303 302 302 302 301 301 300
308 307 306 306 306 306 306 305 305 305 305 306 306 307 307 304 303 305 307 308 308 308 309 309 308 307 307 305 304 304 305 303 303 302 305 304 304 303 303 302 302 301 301 300
307 307 306 305 305 305 305 306 306 306 306 306 306 306 306 306 306 306 306 308 309 308 308 308 307 307 306 304 304 304 303 303 302 302 305 304 304 304 303 303 302 301 300 300
306 304 305 305 305 305 304 305 305 306 305 306 306 306 305 305 305 307 308 309 308 308 307 307 306 305 304 303 302 303 303 303 304 305 304 303 302 302 301 302 301 300 298 299

GFSNGP_925_thetae_096.txt.gz
Theta_e
328 328 328 329 329 327 328 328 330 331 333 346 350 350 348 343 343 342 343 343 339 337 338 338 345 350 349 349 348 348 345 344 344 344 344 343 346 350 351 351 352 352 353 354
329 328 328 332 333 331 329 330 329 333 334 338 346 347 347 344 339 342 342 341 338 334 335 334 335 341 347 347 346 347 344 344 342 345 342 344 344 347 348 348 349 351 352 353
330 328 329 330 330 331 334 334 334 331 341 341 344 344 344 344 341 341 341 339 336 333 332 332 330 334 336 339 343 343 342 340 341 340 340 339 339 339 342 343 344 344 346 349
328 329 332 329 327 329 331 332 333 336 338 340 341 341 341 341 341 339 337 333 333 329 328 325 325 329 330 334 336 336 335 334 334 334 334 334 336 336 336 337 341 341 341 341
329 330 329 327 326 327 328 331 331 336 337 339 340 338 338 336 337 337 337 335 331 329 325 322 322 322 322 321 323 324 323 324 326 326 326 328 331 333 334 335 337 338 339 335
324 328 329 328 324 323 325 330 330 334 337 337 337 344 341 334 334 333 332 332 332 326 321 319 317 318 318 315 314 315 316 316 317 319 319 320 322 322 326 328 333 334 334 327
325 324 324 325 323 323 329 331 330 333 335 335 338 335 334 332 331 329 329 328 326 324 322 319 316 317 314 314 313 312 312 312 312 312 313 315 316 317 322 325 328 328 327 325
324 325 327 323 324 326 328 326 327 332 333 334 332 330 331 330 329 327 326 325 323 321 317 315 316 318 314 312 311 310 310 310 311 313 312 314 316 316 318 320 321 323 323 320
323 326 326 326 325 324 324 325 326 329 330 331 330 330 329 329 328 326 325 324 323 323 322 320 317 315 314 312 312 312 311 311 311 312 313 314 314 313 314 315 315 315 316 316
324 323 324 325 324 323 323 323 323 325 328 329 329 328 328 328 327 325 324 323 322 321 320 318 317 316 315 313 313 312 312 312 311 312 312 311 311 311 312 312 312 313 313 313
324 323 325 325 324 322 322 321 321 323 326 328 328 328 327 327 325 324 323 322 321 320 319 318 316 315 313 311 311 311 311 310 310 310 310 310 309 309 310 306 307 310 310 310
322 321 321 321 322 323 322 322 321 322 323 325 326 327 326 326 324 323 323 321 320 320 318 317 315 313 311 310 309 309 309 309 309 309 309 309 308 305 303 302 301 301 301 305
323 322 322 323 322 322 322 322 321 321 322 323 323 324 325 326 324 322 321 320 319 319 318 317 315 313 311 309 308 308 308 308 307 307 307 307 307 308 305 298 297 297 297 297
322 322 323 322 322 322 321 321 318 320 320 320 321 322 322 323 324 322 321 321 320 319 318 316 314 313 311 309 308 308 307 305 306 306 305 305 306 306 306 307 306 304 298 298
322 322 322 322 322 322 320 319 319 318 319 319 319 319 320 321 322 322 321 321 320 319 317 316 314 313 311 309 307 307 306 304 305 304 304 304 304 304 304 304 305 304 304 301
322 321 321 322 322 321 319 318 317 317 317 317 317 318 319 319 319 319 320 321 320 319 318 316 315 314 311 308 307 306 306 304 303 303 302 303 303 303 303 303 304 304 303 302
323 323 321 321 320 319 318 317 316 317 317 316 317 317 317 317 318 318 318 318 319 319 318 317 315 314 311 309 307 305 305 302 302 304 303 303 303 303 303 302 302 302 302 298
321 320 321 320 319 318 318 317 316 316 317 318 317 316 316 316 317 318 318 317 317 317 317 317 315 314 311 309 307 305 304 304 302 304 304 303 303 303 303 303 302 302 301 300
319 320 319 318 317 317 317 317 317 317 317 317 317 316 315 315 316 316 316 317 317 317 316 315 315 313 312 310 307 306 305 305 304 304 304 303 303 304 304 304 303 303 302 301
319 319 318 319 319 318 319 318 317 317 316 316 316 316 315 313 313 314 314 316 315 315 315 315 314 312 312 311 307 307 306 306 305 304 304 304 304 304 304 303 303 303 302 302
320 320 320 319 317 315 313 313 312 312 311 311 311 311 311 311 312 312 313 313 313 315 314 312 312 311 310 310 308 307 306 306 305 305 305 303 304 304 304 304 304 303 303 302
318 317 315 314 313 312 310 309 309 309 309 309 309 309 309 309 309 309 310 313 312 313 313 312 312 310 308 309 307 306 305 306 305 305 305 305 304 304 304 304 304 304 303 303
315 313 312 310 310 310 309 308 308 309 309 309 309 308 308 307 307 308 309 309 310 312 311 311 311 309 308 307 306 306 303 303 303 305 305 305 305 304 304 304 304 304 304 304
311 310 310 310 309 309 309 308 308 308 308 308 308 308 308 307 306 306 307 308 307 309 311 311 310 306 307 306 305 305 302 302 302 304 305 304 305 304 304 304 303 304 304 304
311 311 311 309 309 309 308 308 308 307 307 307 307 307 308 308 307 307 307 308 308 308 310 311 310 310 308 307 306 305 304 303 302 302 302 304 303 304 304 303 304 304 304 304
311 310 309 308 308 307 307 307 307 306 306 306 306 306 306 307 308 308 308 308 309 309 310 310 310 309 308 308 307 304 304 304 303 302 301 302 305 305 304 304 304 304 304 303
311 309 308 307 307 307 306 306 306 306 306 305 305 305 304 305 306 308 308 308 308 309 308 307 306 306 306 305 304 304 303 304 302 302 303 304 304 305 305 304 304 305 304 303

GFSNGP_925_thetae_099.txt.gz
Theta_e
329 331 330 327 325 327 328 330 331 330 338 350 353 353 353 350 348 347 348 347 344 345 345 348 352 351 350 348 348 349 349 348 347 342 342 344 344 345 347 351 351 351 351 352
330 330 328 328 328 328 327 327 328 330 340 347 350 352 352 350 350 350 348 347 344 339 339 339 343 352 351 351 349 348 350 349 348 348 349 348 347 343 348 349 350 352 352 354
335 329 330 331 331 330 329 328 329 333 342 341 348 350 352 350 347 347 346 344 342 340 337 335 333 338 344 349 349 350 348 348 347 346 346 346 346 344 346 346 347 349 350 350
336 335 332 332 330 331 333 334 333 337 340 342 344 345 347 346 347 346 343 341 340 336 331 328 328 331 334 339 340 340 339 340 341 340 340 340 342 340 338 341 345 345 346 342
335 336 333 332 331 331 331 333 333 337 338 341 342 344 345 343 343 343 340 339 338 333 329 324 325 326 326 328 329 329 331 330 333 335 336 336 337 341 340 341 343 344 343 339
331 335 336 333 327 327 327 334 332 334 338 341 341 345 346 341 340 340 338 336 334 329 324 322 320 323 323 320 321 321 321 322 325 324 326 329 332 333 334 337 340 340 336 334
328 327 334 330 326 325 328 334 333 333 335 338 342 343 340 339 337 336 335 334 330 326 322 319 318 317 316 315 314 314 314 315 315 318 319 321 322 321 327 330 335 335 334 330
328 333 331 326 324 327 332 329 331 333 335 336 336 336 337 336 335 334 333 330 330 328 325 320 318 316 314 314 313 311 312 312 312 313 315 318 320 321 322 324 328 330 330 328
327 334 329 327 330 328 328 329 329 330 332 334 333 335 335 335 334 332 331 329 326 324 322 320 321 321 315 312 311 310 310 310 311 313 314 316 318 318 318 319 321 323 322 322
327 326 325 324 325 325 325 325 325 327 329 330 332 333 334 334 333 331 329 328 326 326 324 322 319 318 317 317 316 315 315 315 312 312 313 314 314 316 316 316 317 317 317 317
326 326 326 325 324 324 323 322 322 324 327 329 330 331 332 332 332 330 329 327 326 324 324 322 321 320 318 316 315 315 315 314 314 314 312 315 314 312 312 311 310 310 315 315
324 324 326 324 324 323 323 322 322 322 324 327 329 330 330 331 330 329 328 326 325 324 324 322 321 319 317 315 315 315 314 314 313 313 313 313 312 308 307 304 303 306 305 308
324 324 324 324 324 324 322 323 323 322 323 323 324 327 328 329 328 328 327 326 325 325 323 322 321 319 316 315 314 314 313 312 312 309 312 311 311 311 309 300 298 298 298 299
324 325 324 324 324 323 322 322 321 321 321 322 322 322 323 326 328 328 327 326 325 324 323 323 321 318 317 315 313 313 312 309 311 309 310 310 310 310 311 309 309 306 298 300
325 324 324 324 323 324 322 322 322 321 321 321 321 321 322 323 323 325 325 325 325 324 323 323 321 319 317 315 313 312 311 309 307 309 308 307 308 308 308 308 309 309 306 302
324 323 323 324 324 323 322 321 321 320 319 319 318 319 320 321 321 322 322 323 324 324 323 323 321 319 317 315 313 311 310 308 307 307 307 306 306 307 307 307 307 308 307 307
325 325 323 324 324 323 321 320 318 318 318 317 318 318 318 318 318 319 320 321 321 323 323 323 322 320 318 315 313 310 309 307 305 306 306 306 306 306 306 306 306 306 306 303
324 324 323 323 322 321 320 318 318 318 318 318 318 317 316 316 317 317 318 318 319 320 321 322 321 320 318 316 313 310 309 308 304 305 306 306 306 306 306 306 306 305 305 302
323 323 322 322 320 320 319 319 318 318 317 317 316 316 315 316 315 315 315 316 317 318 319 319 320 319 318 317 313 311 309 308 306 306 307 306 306 306 306 306 306 306 305 304
322 322 320 319 319 319 319 319 317 317 317 316 315 315 314 314 314 314 314 314 315 315 317 317 317 318 318 317 313 312 310 309 308 307 307 307 307 306 307 306 307 307 306 305
321 320 321 321 321 320 319 317 316 315 314 313 312 312 312 312 312 311 311 312 311 312 315 316 316 316 316 316 314 311 310 310 310 309 309 307 307 307 308 308 307 305 305 306
321 321 321 320 319 317 315 313 312 311 311 311 312 311 311 311 311 311 311 311 311 311 314 315 314 314 314 314 313 312 309 309 309 309 309 308 308 308 308 308 308 307 306 306
320 320 318 317 316 314 312 310 310 310 311 311 311 310 310 310 309 309 309 309 310 310 312 312 312 313 312 312 312 312 311 309 308 308 308 309 308 308 308 307 307 307 306 306
318 317 315 314 312 311 311 310 310 310 310 309 309 309 309 309 309 308 309 307 308 309 309 312 311 311 310 310 311 311 309 308 307 306 307 307 307 307 307 307 306 306 306 305
315 313 312 312 311 311 311 310 309 309 309 309 308 308 308 309 308 308 309 310 310 309 309 310 310 310 310 310 310 309 307 306 306 305 304 305 305 305 305 306 306 305 305 305
313 312 312 311 310 310 309 308 309 308 307 307 307 307 306 307 306 308 310 309 310 310 311 311 310 310 310 310 309 307 306 306 305 303 303 304 304 303 303 303 304 305 304 304
312 311 311 310 309 309 309 308 308 308 307 307 306 306 306 305 307 306 307 308 309 308 307 307 307 307 308 308 308 307 306 305 305 303 303 303 302 301 303 304 306 305 305 305

GFSNGP_925_thetae_102.txt.gz
Theta_e
328 329 331 331 326 326 328 327 329 333 346 348 351 356 355 353 353 353 352 351 354 351 351 354 355 353 352 351 350 348 346 347 347 345 345 342 343 343 343 343 348 350 350 350
334 331 332 331 331 326 326 327 328 336 351 347 348 351 354 351 349 350 350 349 346 345 347 344 349 353 352 350 349 349 349 348 348 349 347 344 344 343 344 344 346 348 347 350
340 337 334 332 333 332 327 328 329 349 349 340 339 342 353 352 350 351 348 346 345 342 340 337 336 343 345 353 350 350 350 350 348 348 349 349 347 346 345 344 344 344 348 349
341 337 338 336 332 332 336 330 342 342 344 344 347 352 350 348 349 347 345 343 341 338 334 329 331 335 340 347 347 347 347 348 347 347 345 345 344 344 341 343 344 345 346 339
341 338 336 334 334 332 336 338 336 339 340 346 349 347 348 346 346 344 342 341 338 335 330 325 327 330 334 336 336 335 335 338 339 340 340 340 341 343 342 340 340 343 343 338
337 341 339 337 332 331 332 342 337 336 339 342 342 346 350 344 342 342 337 335 332 328 326 323 322 326 327 326 328 326 326 327 330 334 335 335 334 335 337 339 342 341 339 335
332 338 335 332 331 329 331 338 333 334 337 343 347 346 343 340 339 338 336 333 329 325 323 320 321 323 321 321 320 321 323 324 323 324 325 326 327 327 330 333 337 337 334 332
334 338 338 329 328 328 337 331 333 335 337 339 338 341 341 338 338 336 333 332 329 325 321 320 319 319 317 316 314 314 314 314 315 316 317 319 323 324 325 328 332 333 332 331
333 339 333 330 334 332 331 331 330 332 333 336 335 337 338 337 337 334 333 332 330 327 323 320 318 317 316 315 315 314 313 313 312 313 314 316 318 317 317 321 323 326 328 327
329 333 329 326 326 326 327 327 326 328 330 331 333 334 336 336 335 334 332 330 328 326 325 323 323 323 316 312 311 312 312 313 310 311 313 314 316 317 317 319 318 318 318 318
326 328 326 325 324 325 324 323 323 325 327 329 331 332 334 335 336 332 331 330 328 327 326 324 322 319 320 320 319 319 318 317 317 317 313 314 313 312 313 313 313 312 314 315
324 328 332 326 325 324 324 323 322 323 325 327 328 330 331 335 333 331 330 329 328 327 326 324 324 322 320 319 318 318 316 316 314 315 314 316 314 310 309 310 307 307 308 310
325 325 325 324 325 325 323 323 323 323 324 324 326 327 327 332 331 330 329 328 328 327 326 324 323 322 319 318 317 318 317 315 315 313 315 314 315 313 309 304 302 301 301 301
324 326 326 325 326 324 323 323 322 322 323 323 323 323 324 330 328 328 328 327 327 327 326 325 324 322 320 318 317 316 316 313 314 313 310 312 313 312 313 308 306 302 300 300
325 325 325 325 324 325 323 323 323 322 322 322 322 322 323 323 327 329 328 328 327 326 326 325 325 323 321 318 317 316 315 313 311 310 311 310 310 310 311 311 312 308 304 303
326 325 324 325 325 325 324 323 322 322 321 320 320 320 321 321 322 322 323 325 325 326 325 325 325 324 321 319 317 316 314 312 310 309 310 309 309 309 309 309 309 310 310 308
327 326 325 325 326 326 324 324 321 320 320 319 319 319 319 319 319 319 319 320 321 323 324 324 324 324 322 319 317 316 314 312 308 308 309 308 307 308 308 308 308 308 308 306
325 325 325 328 325 325 323 320 319 319 319 320 319 318 318 317 317 318 318 318 319 320 321 320 321 324 323 320 319 316 314 312 309 307 308 308 308 308 308 308 307 307 306 304
324 326 324 324 322 321 320 320 319 319 319 318 318 317 316 316 316 317 317 316 316 317 316 317 318 320 321 320 319 317 315 312 310 307 307 308 308 308 308 307 307 307 307 304
325 323 323 322 320 320 320 320 319 319 318 318 316 315 315 314 314 314 314 315 315 315 314 315 314 316 319 319 319 318 316 314 311 309 308 308 308 308 308 308 307 307 307 307
324 322 322 321 322 322 321 320 318 317 317 315 314 313 313 313 313 312 313 313 312 313 312 312 317 317 316 316 317 318 315 315 312 311 310 309 309 308 308 308 308 308 308 308
323 322 323 322 321 319 318 317 315 314 312 312 313 312 312 312 311 310 310 310 310 310 311 312 314 314 314 315 316 316 315 314 312 310 310 310 310 310 309 309 309 308 307 307
322 322 321 320 319 318 315 313 312 312 312 312 311 311 311 311 310 310 309 309 309 309 308 310 312 312 313 313 313 314 314 313 312 311 310 309 309 309 309 309 309 309 309 308
320 319 320 318 317 316 313 312 312 312 311 311 310 309 309 309 308 308 308 309 310 310 310 309 309 310 311 311 312 312 313 313 313 310 310 309 309 308 309 308 309 308 308 307
319 318 317 315 314 313 312 312 311 311 311 310 310 309 308 309 308 308 309 310 311 310 311 310 310 309 310 310 311 311 311 311 310 309 307 307 308 308 308 307 307 307 307 306
318 316 314 313 312 312 312 311 310 311 309 308 308 308 307 307 308 307 310 309 310 309 310 310 310 310 311 310 310 311 310 310 308 306 305 305 305 306 306 306 305 305 305 305
315 313 314 313 311 311 311 310 310 309 308 308 307 306 307 307 307 306 307 309 309 307 307 307 307 307 308 307 309 309 309 308 308 307 305 304 304 305 305 304 303 304 304 304

GFSNGP_925_thetae_105.txt.gz
Theta_e
328 331 328 329 330 326 323 324 328 348 352 350 350 354 353 351 352 352 353 353 349 347 350 348 352 352 351 349 348 347 345 343 343 344 345 344 345 345 345 344 343 347 350 351
335 336 336 335 331 332 329 324 344 355 353 346 346 345 350 349 349 350 349 348 347 345 346 346 350 350 350 350 350 348 344 345 346 345 345 344 341 342 343 343 343 344 346 348
338 334 336 338 334 334 338 338 337 347 347 340 341 341 345 349 347 349 348 343 343 341 337 337 341 348 350 350 349 348 347 348 348 348 347 348 347 346 346 343 342 343 343 343
337 336 340 336 331 332 338 338 336 341 340 337 336 333 333 347 348 346 344 342 337 334 331 332 336 342 348 351 350 350 351 350 348 348 346 345 344 343 341 344 344 343 343 339
336 336 337 337 335 333 333 337 337 340 346 346 345 351 350 346 343 341 339 337 333 330 327 328 331 335 340 344 345 346 344 345 345 344 342 342 342 343 341 340 342 343 340 339
332 337 341 338 332 331 329 341 334 339 343 347 347 352 351 342 339 335 333 330 328 327 325 327 328 332 335 332 334 332 333 335 338 338 337 337 337 339 339 339 342 341 336 337
335 338 336 333 332 330 340 340 334 337 333 339 334 343 340 336 335 333 331 327 326 325 323 324 326 328 327 327 326 327 329 330 331 332 332 331 330 332 334 337 338 336 335 332
329 331 336 330 330 329 333 332 334 341 339 343 340 340 338 335 334 332 329 326 323 321 320 321 324 327 323 323 322 322 324 323 322 324 325 325 325 326 328 333 334 334 332 331
333 332 325 328 332 332 331 329 329 330 338 338 339 339 337 335 332 332 330 327 324 322 321 320 320 321 318 315 315 314 314 314 315 315 315 317 315 317 316 324 326 327 328 328
333 331 332 331 326 327 326 324 325 325 328 332 335 336 335 333 331 332 331 328 324 322 320 319 318 317 317 315 314 312 312 312 312 312 314 316 317 318 318 318 318 319 319 319
333 332 327 326 326 325 323 323 323 324 328 329 332 334 334 334 331 330 330 327 326 325 323 322 323 319 312 311 311 313 313 312 312 311 313 313 313 313 314 313 312 312 314 314
330 330 328 327 326 326 323 322 323 324 326 326 329 335 334 330 331 330 330 329 328 326 324 322 319 319 320 320 320 320 318 317 316 316 315 313 313 311 312 312 311 308 308 311
330 327 326 327 327 324 324 324 323 324 324 323 324 332 333 332 331 330 329 328 328 327 325 325 324 322 320 318 318 319 319 319 315 314 314 317 315 313 311 308 307 303 302 302
327 326 326 326 326 325 325 324 323 324 323 324 323 324 330 329 330 329 329 329 328 328 325 323 323 321 320 318 317 317 317 316 314 313 312 312 316 314 313 313 309 305 303 301
325 325 326 324 325 324 324 324 322 322 323 323 322 323 326 329 329 328 328 327 327 327 326 324 324 323 321 320 318 316 316 315 313 313 311 312 312 312 312 312 309 309 304 304
326 326 325 326 327 325 324 323 323 323 322 322 321 320 319 319 319 319 320 322 327 326 326 325 325 324 323 322 320 317 316 315 313 311 309 310 309 309 310 309 312 310 306 306
327 327 326 327 326 325 324 322 321 321 320 321 320 319 318 318 318 318 318 319 320 322 323 324 324 324 325 321 320 318 316 315 313 310 309 309 309 308 308 308 309 310 309 308
328 326 328 325 324 322 321 320 320 321 321 319 318 318 318 318 320 318 318 317 316 315 316 316 317 318 321 322 320 318 317 315 314 312 308 309 308 307 308 307 308 308 309 307
326 326 326 324 322 320 320 320 320 319 318 318 317 317 316 316 315 314 313 313 314 315 315 314 314 315 315 317 320 320 317 317 315 313 309 307 308 307 308 308 308 307 307 305
327 325 324 323 320 320 321 320 319 318 317 316 315 314 314 314 313 313 312 313 313 313 312 312 312 312 316 316 316 319 319 318 316 313 310 307 306 309 308 308 308 307 307 306
325 324 324 323 322 321 320 319 319 317 315 314 313 313 314 313 312 312 311 310 310 310 310 309 311 313 315 317 316 316 317 317 316 311 309 307 307 308 308 307 307 308 308 307
323 324 324 322 321 320 317 315 314 313 312 313 312 312 311 311 312 311 310 311 309 309 309 308 308 309 311 312 314 313 313 315 315 312 310 309 310 308 309 308 307 308 307 308
323 323 323 321 319 317 315 314 312 312 313 312 312 310 311 311 310 310 309 309 310 310 309 309 310 310 310 311 312 312 312 313 314 314 313 310 309 309 309 309 309 310 309 308
324 322 320 318 316 316 315 313 312 312 312 311 311 310 309 310 309 307 308 309 310 308 311 311 309 310 310 309 310 311 313 312 313 312 311 309 309 309 310 309 309 309 309 309
322 321 319 318 318 316 313 312 312 311 311 311 310 311 309 309 308 308 309 309 310 308 309 309 309 309 309 309 309 310 311 310 311 310 308 307 307 308 309 309 309 309 307 307
321 321 318 316 314 314 313 312 312 312 312 311 311 310 308 307 308 308 309 309 309 307 308 307 307 307 308 309 310 310 310 310 309 307 307 307 306 306 307 308 308 308 308 307
318 317 315 314 313 313 313 312 311 310 309 308 307 306 306 306 307 307 308 308 308 307 307 307 306 306 306 306 305 306 308 308 309 308 307 306 305 305 306 306 306 306 306 306

GFSNGP_925_thetae_108.txt.gz
Theta_e
325 334 334 333 334 334 331 324 323 327 345 348 344 354 353 353 353 351 345 346 346 346 344 344 345 347 344 346 348 346 348 348 348 347 346 346 346 347 346 345 346 346 349 349
335 332 332 335 334 339 340 339 353 352 354 348 351 349 351 352 353 353 348 347 346 345 346 346 346 346 348 350 349 349 346 344 344 344 345 344 343 342 342 343 343 344 344 348
335 331 334 338 335 337 339 338 340 350 347 343 346 350 347 349 351 351 350 348 345 342 344 346 346 345 341 345 348 346 345 344 345 344 345 345 344 344 344 344 343 343 344 344
331 329 339 333 332 331 336 336 341 345 343 340 337 335 344 345 347 345 343 340 338 333 333 336 339 345 346 348 348 347 347 346 347 347 347 346 345 344 343 343 344 342 337 333
329 331 333 335 332 334 332 334 338 345 345 345 344 346 345 342 341 340 337 335 332 331 331 331 333 336 343 348 348 349 349 349 348 347 345 344 342 339 340 343 342 341 338 336
327 333 335 332 332 331 331 336 335 339 339 342 345 349 346 337 334 331 329 329 327 328 328 330 333 337 338 336 341 341 343 345 345 344 342 341 341 340 340 341 342 340 338 336
330 332 331 329 329 330 338 334 335 335 335 341 343 341 337 334 331 328 327 326 326 326 325 326 329 332 333 331 331 332 334 337 338 338 338 336 336 337 337 341 340 337 335 332
324 328 329 327 329 331 330 332 335 334 334 333 332 332 337 334 330 326 324 324 324 324 323 325 327 329 327 327 326 329 330 331 329 328 328 328 330 331 336 337 335 333 331 326
331 327 322 324 328 328 327 336 336 331 338 333 330 333 336 333 329 327 324 323 323 322 321 321 323 325 323 320 321 322 322 321 321 319 320 318 323 323 328 331 333 332 331 327
325 326 329 328 324 325 324 322 323 330 333 338 338 336 334 331 329 327 325 323 322 320 319 318 320 320 319 315 314 314 313 314 313 315 316 317 317 318 318 320 321 321 320 324
326 326 326 324 322 320 321 322 324 324 328 335 336 335 333 331 330 329 326 323 324 324 322 321 319 316 315 313 312 311 311 310 310 312 313 314 313 314 314 315 315 315 315 316
326 323 320 322 321 320 320 320 322 322 323 327 333 333 331 330 329 327 326 325 325 324 322 322 321 316 313 313 317 317 316 314 314 313 312 311 312 312 312 312 311 310 308 311
326 323 320 322 322 321 320 321 321 319 320 325 330 331 330 329 328 328 327 325 325 324 324 321 318 317 317 317 317 317 315 315 315 316 314 314 313 311 310 308 308 306 303 302
321 320 323 322 321 320 322 322 322 322 321 325 330 330 329 329 329 328 328 328 327 325 324 323 322 321 320 318 317 317 318 318 314 317 314 314 315 315 313 311 310 308 303 303
321 320 320 320 319 320 321 320 319 319 320 320 324 323 325 325 326 326 327 328 328 326 325 324 323 322 321 321 319 316 314 315 315 313 313 311 311 314 315 313 311 309 306 304
320 320 320 320 320 320 320 319 318 319 318 317 317 318 318 318 319 319 321 325 325 324 325 324 323 323 322 321 321 320 318 314 313 313 313 310 309 310 310 310 310 309 309 307
322 322 322 322 320 319 318 319 318 318 318 317 317 317 317 318 317 317 317 317 317 317 318 320 319 319 321 323 321 321 320 318 315 314 313 309 309 309 309 308 308 309 311 308
319 319 319 320 319 318 317 318 319 318 317 317 316 316 316 315 314 313 313 313 313 314 316 314 314 313 313 317 321 322 319 318 320 318 314 312 309 309 308 308 307 308 310 309
323 323 321 318 318 317 318 319 318 318 317 316 315 315 314 313 312 312 312 311 313 311 310 310 311 311 311 313 315 319 320 319 317 317 315 313 311 308 308 307 307 307 308 309
323 322 321 319 318 318 318 319 317 316 315 314 314 313 312 312 312 311 310 309 310 310 309 308 308 307 310 313 317 317 316 318 318 317 316 315 313 312 307 307 307 307 307 308
321 320 319 319 318 318 317 316 315 314 313 313 313 312 312 311 311 310 309 309 310 309 309 308 308 308 308 309 311 314 316 315 315 315 316 315 314 311 307 307 308 308 307 306
321 319 319 318 317 317 316 315 313 312 312 312 312 311 309 310 311 311 310 309 308 308 307 308 310 310 310 310 310 311 314 314 312 313 314 313 312 309 307 307 308 307 307 307
319 319 318 316 314 313 313 312 312 312 312 312 310 309 308 310 310 309 307 308 307 307 308 310 309 308 309 309 309 310 312 312 311 311 312 310 310 310 310 310 309 308 307 307
319 319 318 316 314 312 310 312 312 312 312 311 310 309 309 309 310 310 308 308 307 307 307 308 308 307 309 309 309 308 309 311 310 311 311 310 311 309 309 309 309 309 309 309
319 318 316 314 312 310 311 312 312 311 311 310 310 310 310 309 309 307 308 308 308 307 306 306 305 305 305 306 308 310 310 310 310 311 309 308 308 309 309 309 309 310 309 309
318 316 315 315 313 311 311 311 311 310 310 310 310 310 310 310 310 308 308 308 308 307 306 306 305 305 304 303 304 305 308 309 309 309 308 306 306 306 307 307 308 308 309 309
318 318 316 314 314 312 312 311 311 311 311 311 311 310 309 307 308 307 308 308 308 307 307 307 306 306 306 305 304 304 305 306 308 308 307 307 306 305 305 306 307 307 307 308

GFSNGP_925_thetae_111.txt.gz
Theta_e
322 332 332 335 338 339 335 336 319 321 322 341 349 351 348 346 345 344 346 347 347 345 343 343 344 343 343 342 344 345 346 347 344 343 347 345 343 345 347 346 346 346 348 349
332 331 333 334 334 338 338 341 339 347 349 348 350 350 351 350 349 345 346 345 344 345 344 343 344 345 343 344 345 346 345 347 344 344 346 346 345 346 345 344 344 343 344 346
332 329 330 332 333 335 337 341 342 345 345 342 343 346 345 348 348 348 345 346 345 344 344 344 344 347 348 347 346 347 346 346 345 346 345 345 343 342 341 342 342 343 344 344
328 328 334 329 331 333 333 336 342 346 342 340 345 345 344 344 345 344 342 340 339 336 340 342 344 345 344 343 344 346 345 344 344 343 343 344 345 345 344 344 343 343 341 336
328 329 330 335 333 331 331 332 338 344 342 346 346 345 342 339 337 336 336 333 332 331 332 335 335 336 342 343 342 343 345 344 345 345 346 346 344 342 342 343 342 339 334 331
326 330 335 331 330 330 329 334 337 339 345 345 341 348 345 336 331 329 327 327 329 328 330 331 331 333 339 340 340 340 338 344 346 347 346 344 341 339 341 342 339 334 332 331
328 329 327 325 328 327 334 331 335 337 340 341 343 339 336 332 329 326 326 325 327 327 325 326 329 332 332 331 329 331 336 338 343 343 340 340 340 339 340 341 338 333 331 328
321 326 327 324 327 329 327 334 333 333 335 335 337 336 333 330 326 324 323 324 324 324 323 326 328 330 326 325 326 329 332 332 333 333 332 333 334 334 338 340 336 332 329 322
326 325 320 321 326 325 328 333 333 335 331 329 332 336 333 330 327 325 323 323 324 323 322 322 325 326 325 321 324 324 327 327 327 328 327 328 328 329 335 334 332 330 327 324
324 325 327 325 324 324 327 329 330 333 330 328 333 335 332 329 326 324 323 323 323 323 321 320 321 321 320 318 317 318 318 317 317 319 318 318 319 320 327 328 328 328 326 326
323 325 325 325 321 321 323 325 329 331 333 336 334 332 329 328 325 324 323 321 321 319 318 317 317 317 316 315 314 313 312 312 312 313 313 314 314 315 316 316 318 317 316 317
323 321 320 321 319 320 323 323 324 326 328 332 333 331 330 327 327 324 322 321 322 322 322 321 317 313 311 311 312 313 311 311 312 311 311 311 311 311 311 311 311 310 310 312
321 318 318 319 318 319 321 320 321 326 329 329 330 330 329 326 326 326 325 325 324 322 320 319 317 315 315 316 317 317 315 315 315 315 314 313 311 311 311 309 308 307 306 304
319 320 322 321 319 319 321 320 321 323 329 331 330 329 328 326 326 325 325 325 325 324 323 321 318 317 317 316 315 316 317 318 317 314 315 314 313 314 313 311 310 309 305 304
319 319 318 316 317 319 319 320 320 322 324 323 327 326 327 325 325 325 327 327 327 325 324 323 322 322 320 319 318 317 316 315 315 315 313 313 311 311 312 312 312 310 307 305
319 318 317 318 318 317 317 319 319 318 317 317 317 318 319 319 320 321 323 324 323 322 324 323 322 323 322 322 321 320 319 318 316 314 313 313 311 309 311 314 314 312 310 307
319 320 319 319 318 317 317 318 318 316 315 316 315 317 317 317 316 316 315 315 317 317 315 315 315 314 314 316 321 322 320 319 319 317 314 313 312 309 308 308 308 309 309 309
319 317 318 318 316 316 316 318 318 316 316 315 316 316 315 315 313 313 313 314 314 313 312 312 312 312 312 312 313 314 317 321 319 318 318 317 315 312 308 308 308 307 307 308
319 318 319 318 317 316 316 317 317 316 315 315 314 313 312 312 311 311 311 311 311 310 309 309 308 307 306 308 311 314 316 317 319 319 317 317 316 314 312 308 308 307 307 307
321 320 319 316 317 317 316 316 316 314 314 314 312 311 311 311 310 308 308 309 308 309 309 308 308 307 307 306 307 311 313 316 316 317 317 317 317 317 314 314 312 307 306 307
320 318 316 316 316 317 317 316 314 313 313 312 312 311 311 310 308 308 308 308 308 307 306 306 307 309 309 309 310 309 310 311 315 316 315 314 313 313 315 313 310 308 307 307
317 316 316 316 316 314 314 314 313 312 312 312 311 311 310 309 310 310 309 306 306 306 305 307 308 307 307 309 309 309 309 311 313 313 312 312 312 312 312 311 311 310 307 306
317 317 316 316 315 313 313 313 312 312 311 311 310 308 309 309 309 309 307 307 307 306 306 306 307 306 308 308 308 308 308 309 309 310 310 310 311 310 309 308 308 308 308 306
316 315 315 315 312 311 310 311 312 312 312 310 307 307 309 309 309 309 308 308 307 305 304 304 304 304 303 303 304 307 309 309 309 310 310 310 310 310 310 308 308 309 309 309
316 314 312 311 311 310 310 311 311 311 310 308 308 308 308 309 309 308 308 308 308 305 304 304 304 304 305 303 303 304 307 309 309 310 310 309 307 307 308 309 309 309 309 309
315 313 313 312 312 311 311 310 310 310 310 309 309 309 309 309 309 309 308 308 308 307 305 305 305 305 305 305 303 303 305 306 307 307 307 307 306 306 306 306 307 307 308 308
315 314 312 311 310 310 310 310 310 309 309 308 309 309 309 310 310 310 309 307 308 307 306 306 306 306 306 306 306 304 303 303 304 303 303 303 303 305 305 305 305 306 306 307

GFSNGP_925_thetae_114.txt.gz
Theta_e
322 329 333 335 335 338 334 335 319 331 342 349 348 350 344 342 343 345 346 346 346 345 344 345 345 345 346 347 347 348 349 349 348 346 346 344 344 343 342 343 345 345 345 346
332 329 332 333 333 337 338 343 341 341 348 348 347 350 351 347 344 346 346 345 345 344 343 343 343 343 343 342 341 345 348 348 347 343 342 343 343 345 342 342 345 345 344 344
329 329 330 334 332 334 336 340 341 346 341 343 345 346 348 350 346 344 346 345 344 342 343 343 343 343 343 343 341 343 345 345 345 344 345 344 344 344 345 344 343 342 342 342
329 328 334 329 330 330 332 334 339 344 342 346 344 343 342 342 344 345 343 343 339 338 339 340 343 346 346 345 344 344 344 344 345 345 344 344 345 344 343 342 342 342 342 342
328 329 328 335 334 331 330 332 336 342 343 346 344 341 341 337 335 336 335 333 332 332 333 334 337 341 344 344 344 344 344 345 345 345 344 344 344 343 343 343 343 340 336 331
324 329 333 329 330 329 328 335 334 339 344 347 340 346 346 335 331 329 328 328 328 328 329 331 332 337 342 343 344 343 344 344 344 344 344 343 343 340 341 342 340 333 328 327
326 326 326 323 328 329 335 331 335 340 341 339 340 338 338 331 327 325 325 326 327 326 325 327 329 332 331 334 332 336 340 336 338 343 344 342 339 339 341 339 336 332 330 327
321 324 324 323 327 332 327 332 334 335 336 336 336 334 331 327 326 325 325 325 325 324 324 326 327 329 325 325 328 330 331 336 334 335 332 336 337 338 339 338 334 330 328 321
322 322 318 319 324 324 326 331 331 333 330 335 334 333 329 326 324 324 323 323 324 323 321 322 325 326 325 324 327 328 328 328 329 333 328 328 331 334 338 335 332 328 324 322
322 324 324 324 323 326 330 331 331 330 329 329 334 331 328 326 324 323 323 322 322 322 320 318 319 320 319 320 321 321 319 318 319 320 322 324 324 329 331 331 330 328 326 325
322 324 325 323 323 321 326 328 332 328 328 332 332 330 327 325 324 322 322 321 320 317 317 317 318 317 315 315 314 314 313 313 313 314 314 314 315 315 319 323 323 323 320 320
323 321 320 320 320 321 328 330 331 331 334 332 330 329 326 325 323 321 320 320 320 319 318 315 315 313 311 311 311 309 309 310 310 310 310 311 311 311 312 312 312 312 312 313
320 318 317 318 319 319 324 325 326 328 330 331 330 329 327 325 325 323 322 322 321 320 319 317 312 311 312 316 316 314 314 314 314 314 312 311 310 310 310 309 308 307 306 306
318 318 320 318 319 319 320 322 326 329 330 330 329 329 328 325 325 323 323 323 322 321 319 318 317 316 316 316 315 316 316 317 317 314 314 314 313 313 313 312 311 310 309 306
318 317 318 316 317 319 319 322 326 327 326 325 327 326 326 324 324 324 325 325 325 323 322 321 321 321 320 319 318 318 317 316 315 314 314 313 313 311 311 312 311 311 310 308
317 316 316 318 318 318 319 322 323 320 320 321 321 322 322 322 322 322 324 325 324 322 322 322 321 319 321 321 321 320 319 318 317 316 314 313 312 311 309 309 311 312 312 311
319 318 317 317 318 318 320 320 320 318 317 318 316 317 316 315 314 315 316 316 315 314 314 314 312 312 312 312 312 313 315 319 319 318 317 316 314 312 310 308 308 309 309 309
318 318 317 318 316 316 317 318 317 317 317 316 316 315 314 313 311 312 313 312 312 311 310 309 309 308 308 308 309 311 311 313 314 316 318 318 317 315 316 313 308 307 307 307
317 317 316 316 316 317 317 316 316 315 315 316 315 314 313 312 311 310 311 311 309 308 308 308 307 305 305 305 306 305 309 311 313 315 316 316 317 316 315 314 315 313 308 306
318 318 318 317 316 316 316 316 315 315 315 315 313 312 311 310 311 311 308 307 308 308 306 304 305 306 307 307 308 308 308 308 310 312 315 315 315 314 314 314 314 313 313 314
319 318 316 315 315 316 316 315 315 314 313 313 312 311 310 309 307 307 307 307 306 305 305 305 307 307 306 307 308 308 308 308 309 311 312 314 314 313 312 312 311 312 312 311
316 316 315 315 315 314 315 315 314 313 312 312 311 311 308 306 307 307 305 305 305 305 305 306 306 306 307 307 307 307 308 308 308 309 310 310 310 310 310 310 310 310 309 308
316 315 315 315 314 313 313 313 313 313 311 311 311 310 308 308 308 308 306 306 306 305 304 304 305 304 303 303 303 304 307 308 308 308 309 309 309 309 309 309 309 308 308 308
314 315 315 314 312 311 310 311 312 312 313 312 311 310 308 308 308 308 306 307 306 304 303 303 303 304 304 303 302 305 307 308 309 309 309 309 308 308 307 306 308 307 307 308
314 313 312 311 312 312 311 311 312 312 311 310 309 308 308 308 307 308 308 307 307 305 303 303 304 305 305 305 303 303 304 305 306 306 306 306 306 306 306 305 306 307 308 308
312 312 312 313 313 311 310 310 310 310 309 307 306 307 308 308 308 308 308 307 307 307 304 304 304 305 306 305 305 304 303 303 303 304 303 302 302 301 303 304 305 305 307 307
312 312 310 310 310 310 311 310 309 308 309 307 307 308 308 308 308 309 309 309 307 307 307 305 306 306 306 306 306 305 305 305 304 303 303 303 302 302 304 305 305 305 306 306

GFSNGP_925_thetae_117.txt.gz
Theta_e
326 332 334 334 336 341 336 340 327 331 345 351 351 352 351 347 347 348 349 348 349 350 349 346 346 347 349 347 346 349 348 350 351 347 349 350 348 343 341 341 344 344 346 345
333 331 330 335 332 338 343 345 346 345 349 347 348 350 350 347 348 348 349 349 349 349 347 345 345 346 347 349 347 347 350 351 348 348 348 348 344 343 342 343 342 344 345 344
330 330 330 334 333 332 339 341 344 348 347 344 348 350 350 348 348 349 348 348 348 347 345 344 344 343 344 344 344 345 348 348 347 347 346 343 343 344 344 344 343 344 344 344
332 331 333 331 331 332 334 336 341 345 344 346 345 343 342 345 345 346 343 343 344 344 342 342 344 344 344 342 341 342 343 342 346 345 343 342 343 344 344 343 344 344 343 342
333 334 330 334 332 333 332 332 337 344 345 345 342 341 342 338 337 337 336 334 333 334 336 337 341 345 344 344 344 344 343 344 344 344 344 344 342 344 344 343 343 342 342 340
331 332 332 332 331 330 330 336 334 344 344 346 345 347 344 335 334 333 332 331 330 329 330 333 336 341 343 345 345 344 344 344 344 344 344 343 343 343 342 342 342 339 332 324
334 334 330 327 328 330 337 335 337 343 342 347 347 345 337 332 330 330 330 329 327 327 327 328 331 335 339 339 340 341 342 341 340 340 342 342 342 342 341 339 334 324 321 321
331 335 331 326 329 335 332 334 339 342 341 341 337 336 334 331 331 329 329 328 328 327 324 326 327 329 327 328 332 336 336 336 336 337 338 338 338 338 338 335 327 325 321 320
332 331 328 327 329 329 330 337 338 340 338 336 336 336 334 332 332 331 329 327 326 324 323 322 325 327 324 324 327 327 326 327 328 332 334 335 335 335 335 333 331 325 322 319
330 330 329 329 328 328 333 335 337 338 337 336 335 333 333 332 332 330 329 327 326 324 320 319 318 320 321 322 325 326 323 322 324 327 328 328 330 327 330 329 328 326 324 322
330 329 329 329 329 328 332 335 334 334 335 335 334 333 332 333 331 329 327 323 322 323 321 319 317 315 314 314 315 316 315 314 314 315 319 319 318 319 323 324 327 326 325 325
325 332 332 332 327 330 336 337 334 333 334 334 332 332 329 329 326 324 323 322 321 319 317 316 315 314 312 311 312 313 313 313 311 310 310 310 310 311 312 312 312 312 313 314
328 327 327 328 327 326 333 335 334 333 334 336 332 330 329 328 326 324 325 324 323 320 316 315 314 314 316 316 314 317 317 317 315 314 313 313 312 314 314 309 309 308 307 307
322 325 325 326 329 327 328 332 331 333 335 335 333 331 330 328 326 327 327 325 323 322 321 320 319 319 316 315 315 315 316 316 316 316 316 315 314 314 314 314 315 313 310 307
324 324 325 327 326 326 326 331 335 334 335 333 332 331 330 330 328 328 327 325 324 323 322 323 324 322 320 318 318 319 320 318 317 316 314 314 315 315 314 314 314 313 312 311
325 323 323 326 327 326 327 330 333 334 334 332 331 330 328 327 326 326 327 326 327 326 324 322 318 319 321 321 321 321 321 320 319 318 318 316 315 314 313 312 312 313 313 314
325 324 324 325 326 326 327 328 330 331 330 330 328 325 324 323 323 322 320 319 319 317 316 314 313 311 312 315 316 316 317 317 315 318 319 319 318 317 316 314 315 314 312 311
327 326 325 325 325 326 326 326 327 328 327 325 323 322 321 322 320 317 315 314 313 312 311 312 309 307 306 309 310 310 312 313 315 315 316 317 318 318 317 317 317 315 314 312
324 325 324 324 324 324 325 325 325 326 323 322 321 320 319 318 316 314 313 313 313 312 309 308 303 305 305 306 309 310 310 310 310 312 314 315 316 316 316 315 315 315 314 314
323 323 322 323 323 323 324 324 322 321 320 320 319 317 315 314 314 313 312 310 309 308 308 308 309 309 309 309 308 311 311 311 311 311 312 313 314 315 316 314 313 313 313 312
324 323 322 321 321 322 323 322 321 320 318 318 318 317 315 314 313 310 310 308 309 307 306 306 308 309 310 309 309 310 310 310 311 312 312 313 313 313 313 313 313 312 312 311
324 324 323 322 321 321 320 320 321 319 317 316 315 314 313 311 310 309 308 307 308 304 307 308 309 307 306 304 307 308 309 310 310 310 311 311 311 311 311 312 311 311 311 311
324 323 323 322 321 320 319 319 319 316 314 314 313 313 312 310 309 307 306 306 308 304 307 307 304 303 302 304 308 309 310 310 310 310 310 310 310 309 309 309 309 309 309 310
323 323 322 321 320 318 319 317 317 316 315 313 313 312 311 310 309 308 308 306 306 304 306 306 305 304 304 303 305 307 308 309 309 309 308 307 307 306 305 305 307 308 309 309
322 321 319 318 318 319 318 317 316 315 315 314 313 312 310 309 308 308 308 308 306 305 306 303 304 305 305 305 304 306 307 308 307 307 307 306 306 305 305 303 304 306 306 307
320 320 319 319 319 318 316 315 316 315 315 314 311 310 309 309 309 309 308 309 309 307 307 306 305 305 306 305 305 305 305 306 307 307 304 306 305 305 304 304 305 306 306 307
319 318 318 317 317 315 315 316 316 315 313 313 312 309 309 308 308 308 309 309 309 309 308 307 306 306 307 307 307 306 306 306 305 305 305 305 304 304 305 304 305 305 305 305